Date StartTime U_cm/s V_cm/s W_cm/s Ustd_cm/s Vstd_cm/s Wstd_cm/s Uvar_(cm/s)^2 Vvar_(cm/s)^2 Wvar_(cm/s)^2 KE_(m/s)^2 TurbulentKE_(m/s)^2 HorizWindSpeed_cm/s FrictionSpeec_cm/s DragCoef SpeedOfSound_m/s SonicTemperature_C Pressure_mb 
04/18/2014  00:00:00     -395.312      -18.606       -2.277      129.401      122.767       62.420    16744.538    15071.684     3896.254        9.616        1.786      395.750       69.392        0.031      341.214       15.767      856.404
04/18/2014  00:01:00     -313.031      -89.680      -21.631      132.950      105.232       70.261    17675.620    11073.799     4936.612        7.009        1.684      325.624       68.574        0.044      341.198       15.741      856.414
04/18/2014  00:02:00     -314.504      -80.120       -3.358      128.817       91.766       60.996    16593.799     8421.035     3720.519        6.703        1.437      324.549       64.346        0.039      341.169       15.693      856.430
04/18/2014  00:03:00     -325.402      -62.017       -1.074      159.827      109.180       65.964    25544.676    11920.319     4351.273        7.577        2.091      331.259       76.055        0.053      341.154       15.665      856.436
04/18/2014  00:04:00     -242.699      -85.204        4.008      126.881      109.757       54.461    16098.668    12046.576     2965.958        4.864        1.556      257.221       62.045        0.058      341.172       15.698      856.443
04/18/2014  00:05:00     -335.564       -6.842      -23.285      129.570      121.623       59.001    16788.343    14792.068     3481.108        7.412        1.753      335.633       58.503        0.030      341.190       15.727      856.446
04/18/2014  00:06:00     -351.422      -34.422      -20.477      101.097       92.591       51.826    10220.666     8573.032     2685.905        7.329        1.074      353.104       45.358        0.017      341.183       15.715      856.450
04/18/2014  00:07:00     -199.013      -38.145       -9.056      140.235      108.156       54.985    19665.889    11697.653     3023.356        3.776        1.719      202.635       66.259        0.107      341.158       15.672      856.433
04/18/2014  00:08:00     -265.368      -84.515        2.451      100.432       98.423       50.282    10086.664     9687.176     2528.248        4.993        1.115      278.502       51.550        0.034      341.138       15.638      856.430
04/18/2014  00:09:00     -264.883      -93.680       -9.608      160.869      124.456       62.848    25878.695    15489.222     3949.838        6.217        2.266      280.961       66.210        0.056      341.128       15.622      856.431
04/18/2014  00:10:00     -187.738      -88.643       -2.611      139.622      117.034       67.813    19494.275    13696.946     4598.647        4.044        1.889      207.613       66.700        0.103      341.139       15.641      856.444
04/18/2014  00:11:00     -298.575      -35.770      -10.065      142.972      131.625       75.451    20441.020    17325.058     5692.865        6.698        2.173      300.710       66.724        0.049      341.132       15.631      856.476
04/18/2014  00:12:00     -311.803      -45.705      -19.500      115.332      107.628       59.061    13301.425    11583.889     3488.244        6.403        1.419      315.135       62.397        0.039      341.182       15.713      856.488
04/18/2014  00:13:00     -369.443      -87.648      -18.203      122.411      115.414       60.611    14984.558    13320.362     3673.747        8.823        1.599      379.698       59.133        0.024      341.151       15.659      856.487
04/18/2014  00:14:00     -433.602     -136.855      -28.510      134.152      108.481       62.935    17996.812    11768.140     3960.793       12.063        1.686      454.687       61.555        0.018      341.148       15.654      856.472
04/18/2014  00:15:00     -394.189      -98.023       -9.333      133.500      112.353       64.152    17822.136    12623.102     4115.419        9.981        1.728      406.194       66.375        0.027      341.132       15.629      856.490
04/18/2014  00:16:00     -413.924      -38.248      -33.962      125.959      109.324       60.350    15865.738    11951.672     3642.081       10.270        1.573      415.688       63.956        0.024      341.146       15.653      856.504
04/18/2014  00:17:00     -352.420      -73.006       -6.422      143.567      124.775       75.901    20611.456    15568.726     5760.961        8.575        2.097      359.902       86.129        0.057      341.157       15.671      856.505
04/18/2014  00:18:00     -393.597      -79.680      -14.260      165.431      116.570       65.600    27367.381    13588.509     4303.376       10.336        2.263      401.581       65.520        0.027      341.158       15.672      856.525
04/18/2014  00:19:00     -445.812      -70.191      -36.177      172.708      160.796       69.610    29828.106    25855.432     4845.529       13.274        3.026      451.304       74.365        0.027      341.184       15.716      856.532
04/18/2014  00:20:00     -434.902      -99.471      -28.250      150.000      154.746       84.240    22500.047    23946.433     7096.363       12.668        2.677      446.132       66.582        0.022      341.199       15.743      856.543
04/18/2014  00:21:00     -402.754      -60.604      -14.132      148.481      159.894       69.341    22046.485    25566.128     4808.176       10.924        2.621      407.288       71.146        0.031      341.176       15.703      856.531
04/18/2014  00:22:00     -350.367     -139.345       -7.294      154.599      124.636       67.645    23900.808    15534.221     4575.840        9.311        2.201      377.060       68.315        0.033      341.123       15.613      856.539
04/18/2014  00:23:00     -428.686       13.413      -25.173      168.079      119.077       69.610    28250.402    14179.286     4845.603       11.592        2.364      428.896       83.029        0.037      341.114       15.600      856.551
04/18/2014  00:24:00     -438.430      -90.296      -31.007      125.422       98.098       61.558    15730.566     9623.213     3789.429       11.523        1.457      447.632       63.598        0.020      341.089       15.556      856.544
04/18/2014  00:25:00     -352.907      -98.342      -17.672      126.489       90.127       56.923    15999.573     8122.827     3240.190        8.094        1.368      366.353       64.118        0.031      341.078       15.537      856.546
04/18/2014  00:26:00     -385.348      -56.369      -27.330      141.291       93.370       61.941    19963.067     8717.995     3836.644        9.246        1.626      389.449       76.429        0.039      341.050       15.491      856.558
04/18/2014  00:27:00     -295.505      -53.825      -10.828      117.636       96.248       57.160    13838.345     9263.738     3267.208        5.835        1.318      300.367       55.766        0.034      341.033       15.464      856.562
04/18/2014  00:28:00     -266.403      -64.886       -2.264      133.506      107.832       62.303    17823.816    11627.659     3881.637        5.425        1.667      274.191       65.505        0.057      340.982       15.376      856.565
04/18/2014  00:29:00     -201.204        4.506      -24.168       77.762      101.882       63.772     6046.873    10379.989     4066.910        3.079        1.025      201.254       42.014        0.044      340.835       15.127      856.581
04/18/2014  00:30:00     -260.837      -38.703      -35.470      142.739       76.016       63.572    20374.285     5778.451     4041.445        5.049        1.510      263.692       49.095        0.035      340.599       14.727      856.589
04/18/2014  00:31:00     -284.532      -27.671      -46.557      111.525       95.487       55.380    12437.786     9117.747     3066.979        5.425        1.231      285.875       50.269        0.031      340.493       14.548      856.619
04/18/2014  00:32:00     -246.908      -70.464      -23.026      131.402       89.081       62.817    17266.409     7935.390     3946.021        4.780        1.457      256.766       43.568        0.029      340.400       14.390      856.623
04/18/2014  00:33:00     -211.555       26.119      -27.827      118.217      107.868       77.746    13975.307    11635.600     6044.379        3.893        1.583      213.161       41.331        0.038      340.443       14.463      856.657
04/18/2014  00:34:00     -210.930      -39.149      -23.312       88.485      105.368       52.813     7829.546    11102.348     2789.227        3.414        1.086      214.532       44.986        0.044      340.403       14.397      856.636
04/18/2014  00:35:00     -188.359      -47.998      -35.641       85.359       86.952       47.486     7286.214     7560.735     2254.881        2.807        0.855      194.378       25.762        0.018      340.374       14.349      856.650
04/18/2014  00:36:00     -196.473      -60.440      -18.991       77.374       88.816       43.536     5986.712     7888.313     1895.404        2.919        0.789      205.560       37.493        0.033      340.373       14.346      856.661
04/18/2014  00:37:00     -155.875      -10.977      -11.588       85.926      115.786       61.082     7383.363    13406.460     3730.964        2.453        1.226      156.262       49.542        0.101      340.320       14.256      856.659
04/18/2014  00:38:00     -165.659        4.313      -13.997       74.261       86.839       47.250     5514.644     7541.062     2232.608        2.147        0.764      165.715       40.495        0.060      340.326       14.268      856.674
04/18/2014  00:39:00     -146.248      -57.287      -13.446       84.773       65.924       37.371     7186.448     4345.971     1396.609        1.889        0.646      157.068       21.322        0.018      340.319       14.257      856.669
04/18/2014  00:40:00     -184.721      -63.635      -13.837       94.767       66.181       43.245     8980.874     4379.864     1870.126        2.679        0.762      195.375       35.843        0.034      340.271       14.175      856.669
04/18/2014  00:41:00     -304.480      -41.527      -25.563      129.336      104.359       67.210    16727.917    10890.878     4517.153        6.360        1.607      307.299       62.168        0.041      340.184       14.026      856.683
04/18/2014  00:42:00     -244.627      -19.276      -22.057      107.821       97.203       50.625    11625.377     9448.518     2562.849        4.216        1.182      245.386       55.133        0.050      340.245       14.129      856.690
04/18/2014  00:43:00     -179.623        4.012      -25.226       78.777       96.382       47.713     6205.873     9289.434     2276.556        2.534        0.889      179.668       34.141        0.036      340.344       14.297      856.694
04/18/2014  00:44:00     -220.057       -0.222      -29.466       72.869       79.555       36.196     5309.836     6329.067     1310.150        3.112        0.647      220.057       19.729        0.008      340.293       14.210      856.706
04/18/2014  00:45:00     -246.506       81.611      -42.036       86.292       93.863       60.545     7446.364     8810.299     3665.651        4.455        0.996      259.664       45.417        0.031      340.282       14.191      856.707
04/18/2014  00:46:00     -161.385       25.787      -10.253       80.532       94.128       58.288     6485.481     8860.165     3397.453        2.278        0.937      163.432       48.306        0.087      340.297       14.218      856.700
04/18/2014  00:47:00     -198.184      -43.376      -20.745       66.985       71.529       41.788     4487.016     5116.377     1746.228        2.647        0.567      202.875       20.000        0.010      340.262       14.158      856.701
04/18/2014  00:48:00     -106.293        7.509        3.934       81.145       86.907       52.989     6584.562     7552.895     2807.866        1.415        0.847      106.558       47.012        0.195      340.239       14.121      856.715
04/18/2014  00:49:00     -141.480      -43.196      -26.428       86.024       66.476       40.430     7400.172     4419.012     1634.625        1.801        0.673      147.927       26.965        0.033      340.241       14.125      856.724
04/18/2014  00:50:00     -184.453     -103.169      -25.429      110.817       74.144       53.450    12280.474     5497.312     2856.885        3.297        1.032      211.345       30.858        0.021      340.244       14.128      856.735
04/18/2014  00:51:00     -198.973       10.721      -30.389       81.349      111.484       57.544     6617.679    12428.584     3311.344        3.149        1.118      199.262       50.086        0.063      340.267       14.167      856.752
04/18/2014  00:52:00     -165.948      -47.620      -14.598       87.493       79.813       51.595     7654.949     6370.113     2662.001        2.335        0.834      172.645       32.717        0.036      340.241       14.123      856.769
04/18/2014  00:53:00     -111.893      -61.437       -6.537      112.197       79.238       51.681    12588.067     6278.726     2670.967        1.893        1.077      127.650       46.912        0.135      340.273       14.177      856.794
04/18/2014  00:54:00     -268.298      -83.062      -16.372       76.490       74.065       46.039     5850.743     5485.597     2119.627        4.630        0.673      280.861       30.937        0.012      340.336       14.283      856.811
04/18/2014  00:55:00     -303.503      -39.751      -24.144       97.309       80.100       59.043     9469.023     6415.979     3486.128        5.682        0.969      306.095       57.676        0.036      340.441       14.460      856.812
04/18/2014  00:56:00     -262.430      -64.110      -23.017       88.076       92.411       44.503     7757.330     8539.702     1980.490        4.589        0.914      270.147       35.887        0.018      340.506       14.569      856.829
04/18/2014  00:57:00     -247.094      -34.702      -10.883       79.202       60.527       45.455     6273.034     3663.553     2066.171        3.719        0.600      249.518       38.335        0.024      340.497       14.553      856.831
04/18/2014  00:58:00     -233.845      -13.799      -31.674      103.396       98.124       52.623    10690.803     9628.277     2769.217        3.948        1.154      234.252       39.949        0.029      340.359       14.322      856.831
04/18/2014  00:59:00     -146.655       14.256      -27.554       98.994       66.221       46.262     9799.821     4385.268     2140.166        1.939        0.816      147.346       31.317        0.045      340.284       14.196      856.820
04/18/2014  01:00:00     -194.203       57.610      -30.099       90.538      103.320       52.415     8197.069    10674.936     2747.339        3.178        1.081      202.568       54.410        0.072      340.252       14.142      856.837
04/18/2014  01:01:00     -142.755       74.491      -28.034       67.698       62.827       39.960     4583.058     3947.170     1596.833        1.842        0.506      161.021       21.319        0.018      340.176       14.013      856.833
04/18/2014  01:02:00     -212.468      -60.564      -13.071       76.403       82.478       38.085     5837.384     6802.591     1450.494        3.153        0.705      220.931       31.393        0.020      340.093       13.873      856.841
04/18/2014  01:03:00     -198.745      -63.289      -20.448       89.439       75.872       38.426     7999.362     5756.594     1476.558        2.957        0.762      208.578       37.624        0.033      340.019       13.748      856.853
04/18/2014  01:04:00     -127.670       24.965       -5.089       80.397       92.070       48.073     6463.700     8476.848     2311.049        1.710        0.863      130.088       43.477        0.112      340.084       13.860      856.866
04/18/2014  01:05:00      -47.853        2.959        6.477       45.844       50.092       27.381     2101.699     2509.182      749.714        0.385        0.268       47.945       17.269        0.130      340.145       13.963      856.876
04/18/2014  01:06:00     -131.881      -22.582       -6.365       73.374       74.131       48.296     5383.709     5495.405     2332.501        1.557        0.661      133.801       41.554        0.096      340.178       14.019      856.867
04/18/2014  01:07:00     -163.091       10.254      -29.148       76.082       79.969       37.611     5788.515     6395.090     1414.625        2.057        0.680      163.413       23.147        0.020      340.197       14.049      856.874
04/18/2014  01:08:00     -141.390       34.352      -19.867       70.029       47.899       34.987     4904.020     2294.341     1224.094        1.499        0.421      145.504       33.626        0.053      340.163       13.993      856.867
04/18/2014  01:09:00      -80.456       74.381       -5.675       59.099       77.563       41.178     3492.725     6015.980     1695.589        1.162        0.560      109.570       41.853        0.146      340.102       13.890      856.860
04/18/2014  01:10:00     -257.357       27.307      -29.416       97.072       95.033       60.961     9423.052     9031.193     3716.209        4.500        1.109      258.801       62.354        0.058      339.983       13.686      856.836
04/18/2014  01:11:00     -186.610       79.671      -18.569       87.021      157.281       56.022     7572.590    24737.205     3138.507        3.847        1.772      202.906       38.940        0.037      339.872       13.499      856.819
04/18/2014  01:12:00     -112.042        9.895       11.110       89.978      118.939       47.961     8096.015    14146.523     2300.287        1.865        1.227      112.478       45.579        0.164      339.795       13.374      856.809
04/18/2014  01:13:00     -101.645      146.888      -21.038       57.216       88.741       40.935     3273.701     7874.884     1675.653        2.258        0.641      178.627       34.264        0.037      339.702       13.214      856.810
04/18/2014  01:14:00     -116.401      186.997      -20.152       90.459      118.998       65.304     8182.899    14160.514     4264.548        3.776        1.330      220.266       73.815        0.112      339.722       13.249      856.785
04/18/2014  01:15:00     -214.584       95.074      -38.431      114.677      109.611       47.075    13150.854    12014.564     2216.044        4.197        1.369      234.702       46.927        0.040      339.699       13.209      856.788
04/18/2014  01:16:00     -193.619      197.792      -34.590       83.700      108.285       57.418     7005.620    11725.697     3296.873        4.991        1.101      276.785       39.052        0.020      339.609       13.057      856.813
04/18/2014  01:17:00     -113.041      133.445      -17.264      117.994      112.250       58.302    13922.528    12600.155     3399.119        3.040        1.496      174.888       57.557        0.108      339.661       13.146      856.823
04/18/2014  01:18:00     -255.090      206.459      -43.671      157.585      102.798       79.719    24832.944    10567.529     6355.115        7.567        2.088      328.170       70.029        0.046      339.492       12.858      856.855
04/18/2014  01:19:00     -203.528      181.790      -29.811      115.465       96.856       63.354    13332.199     9381.040     4013.689        5.104        1.336      272.894       50.729        0.035      339.493       12.859      856.871
04/18/2014  01:20:00     -227.386      183.721      -34.723      139.357      127.607       81.041    19420.321    16283.520     6567.574        6.446        2.114      292.331       69.539        0.057      339.500       12.872      856.900
04/18/2014  01:21:00     -235.087      185.965      -50.839      140.419      131.346       70.924    19717.542    17251.680     5030.280        6.721        2.100      299.748       83.106        0.077      339.495       12.864      856.902
04/18/2014  01:22:00     -209.437      173.035      -24.607      143.585      142.703       76.372    20616.773    20364.101     5832.647        6.060        2.341      271.671       83.105        0.094      339.429       12.753      856.911
04/18/2014  01:23:00     -184.219      222.618      -29.533      128.302      125.661       67.392    16461.397    15790.767     4541.649        6.057        1.840      288.955       65.815        0.052      339.431       12.757      856.906
04/18/2014  01:24:00     -152.679      218.765      -33.278       84.484      160.592       61.639     7137.513    25789.914     3799.418        5.449        1.836      266.775       68.948        0.067      339.423       12.744      856.910
04/18/2014  01:25:00     -126.913       95.139      -26.790       70.552       96.445       37.906     4977.558     9301.672     1436.890        2.079        0.786      158.614       42.661        0.072      339.491       12.859      856.917
04/18/2014  01:26:00     -165.239      159.865      -20.475      126.454      111.743       64.978    15990.519    12486.480     4222.076        4.298        1.635      229.915       44.561        0.038      339.347       12.614      856.943
04/18/2014  01:27:00     -288.313      263.306      -65.763      139.389      145.897       68.406    19429.333    21285.925     4679.425       10.108        2.270      390.454       82.694        0.045      339.322       12.572      856.981
04/18/2014  01:28:00     -315.868      362.879      -73.163      152.775      160.158       74.367    23340.324    25650.639     5530.452       14.565        2.726      481.096       73.077        0.023      339.204       12.374      857.006
04/18/2014  01:29:00     -201.748      163.732      -37.433      137.601      130.181       69.173    18933.937    16947.183     4784.945        5.478        2.033      259.828       59.794        0.053      339.206       12.378      857.012
04/18/2014  01:30:00     -215.712      265.913      -54.718       95.524      115.590       67.535     9124.801    13361.116     4561.001        7.364        1.352      342.405       56.498        0.027      339.181       12.335      857.029
04/18/2014  01:31:00     -150.767      203.982      -17.119       76.678       96.543       54.709     5879.518     9320.586     2993.106        4.141        0.910      253.652       42.794        0.028      339.209       12.382      857.036
04/18/2014  01:32:00     -147.686      233.702      -21.816       89.566      158.226       59.095     8022.059    25035.598     3492.215        5.672        1.827      276.456       69.710        0.064      339.218       12.399      857.041
04/18/2014  01:33:00     -258.684      282.493      -65.910      123.405      127.759       77.019    15228.782    16322.470     5931.969        9.427        1.874      383.040       72.250        0.036      339.163       12.306      857.053
04/18/2014  01:34:00     -209.456      294.047      -51.982      106.836      139.142       76.211    11413.884    19360.523     5808.077        8.480        1.829      361.020       75.477        0.044      339.128       12.245      857.061
04/18/2014  01:35:00     -151.258      179.685      -13.208       99.088      121.379       62.361     9818.378    14732.771     3888.892        4.188        1.422      234.874       53.697        0.052      339.102       12.202      857.054
04/18/2014  01:36:00     -340.113      239.161      -59.574      162.825      152.882       82.478    26511.830    23372.912     6802.593       11.654        2.834      415.782       85.787        0.043      339.046       12.107      857.050
04/18/2014  01:37:00     -295.618      245.125      -49.420      136.750      119.968       74.056    18700.501    14392.242     5484.357        9.424        1.929      384.027       76.279        0.039      339.010       12.046      857.041
04/18/2014  01:38:00     -256.142      248.741      -52.389      143.219      144.972       73.952    20511.548    21016.757     5468.868        8.860        2.350      357.045       77.638        0.047      338.989       12.013      857.031
04/18/2014  01:39:00     -281.541      362.266      -64.357      129.118      152.827       75.991    16671.555    23356.020     5774.657       13.021        2.290      458.805       65.737        0.021      338.989       12.012      857.008
04/18/2014  01:40:00     -228.664      404.089      -64.249      109.086      135.854       76.002    11899.722    18456.429     5776.292       12.791        1.807      464.301       59.821        0.017      338.990       12.016      857.023
04/18/2014  01:41:00     -146.648      236.287      -16.428      100.519      145.841       67.746    10104.078    21269.664     4589.566        5.678        1.798      278.096       74.670        0.072      339.032       12.085      857.028
04/18/2014  01:42:00     -252.727      330.506      -50.409      129.097      146.016       75.019    16666.149    21320.742     5627.879       10.962        2.181      416.059       72.018        0.030      338.956       11.957      857.048
04/18/2014  01:43:00     -203.367      218.272      -43.138      130.013      125.088       79.327    16903.387    15646.895     6292.777        6.484        1.942      298.330       77.780        0.068      338.955       11.955      857.065
04/18/2014  01:44:00     -222.748      317.069      -42.171      116.563      142.573       80.399    13587.008    20327.141     6464.062        9.614        2.019      387.491       75.593        0.038      338.870       11.811      857.046
04/18/2014  01:45:00     -223.803      371.205      -61.667      149.365      146.106       81.663    22309.950    21347.059     6668.841       12.099        2.516      433.452       82.479        0.036      338.885       11.837      857.056
04/18/2014  01:46:00     -210.171      325.453      -63.734      138.889      137.460       73.599    19290.059    18895.180     5416.849        9.887        2.180      387.416       67.766        0.031      338.909       11.877      857.075
04/18/2014  01:47:00     -204.210      324.592      -52.497      129.785      149.665       72.450    16844.164    22399.619     5249.069        9.715        2.225      383.487       65.936        0.030      338.872       11.815      857.088
04/18/2014  01:48:00      -92.608      106.592      -13.153       76.493      100.398       54.190     5851.160    10079.664     2936.551        1.949        0.943      141.202       45.489        0.104      338.945       11.941      857.106
04/18/2014  01:49:00     -120.719      157.212      -23.095      124.542      100.110       66.436    15510.688    10021.921     4413.684        3.488        1.497      198.214       73.255        0.137      338.928       11.912      857.127
04/18/2014  01:50:00     -142.472      160.606      -26.795       81.189      123.848       61.670     6591.623    15338.351     3803.229        3.627        1.287      214.692       51.735        0.058      338.872       11.816      857.149
04/18/2014  01:51:00     -107.488      202.105      -22.823       89.515       97.664       54.233     8012.978     9538.285     2941.213        3.670        1.025      228.911       57.258        0.063      338.858       11.792      857.179
04/18/2014  01:52:00     -133.938      196.455      -45.868       81.952      157.352       62.786     6716.208    24759.630     3942.097        4.702        1.771      237.769       54.904        0.053      338.858       11.792      857.203
04/18/2014  01:53:00      -94.884      298.043      -24.793       94.122      119.041       59.042     8859.024    14170.808     3486.010        6.248        1.326      312.782       59.188        0.036      338.806       11.705      857.207
04/18/2014  01:54:00     -105.667      177.495      -16.746      119.661      124.811       63.251    14318.688    15577.855     4000.673        3.842        1.695      206.567       65.602        0.101      338.820       11.729      857.213
04/18/2014  01:55:00     -105.509      227.389      -20.162       86.909      119.803       68.143     7553.139    14352.797     4643.453        4.489        1.327      250.675       62.160        0.061      338.795       11.685      857.211
04/18/2014  01:56:00     -217.481      191.996      -43.322       99.874      128.753       65.949     9974.912    16577.341     4349.217        5.846        1.545      290.105       72.139        0.062      338.863       11.800      857.228
04/18/2014  01:57:00      -94.060      174.398       -9.670       97.945      106.536       55.409     9593.269    11349.845     3070.121        3.168        1.201      198.146       65.513        0.109      338.884       11.838      857.228
04/18/2014  01:58:00     -146.132      150.292      -33.805       78.362      126.751       54.451     6140.657    16065.807     2964.942        3.512        1.259      209.624       48.329        0.053      338.881       11.831      857.233
04/18/2014  01:59:00     -146.421      208.811      -25.566      108.591      127.407       56.505    11792.091    16232.595     3192.854        4.845        1.561      255.032       65.560        0.066      338.870       11.812      857.218
04/18/2014  02:00:00     -101.191      148.720      -26.460       74.054      132.675       49.949     5483.964    17602.613     2494.889        2.931        1.279      179.881       55.404        0.095      338.967       11.975      857.215
04/18/2014  02:01:00     -141.782      270.390      -40.920      129.146      108.928       58.778    16678.591    11865.352     3454.824        6.344        1.600      305.308       53.281        0.030      338.813       11.716      857.235
04/18/2014  02:02:00      -61.850      235.242      -23.057      102.859      132.068       59.430    10580.021    17442.021     3531.874        4.562        1.578      243.237       52.181        0.046      338.827       11.740      857.253
04/18/2014  02:03:00      -65.390      279.019      -41.916       99.630      127.142       65.722     9926.178    16165.083     4319.414        5.714        1.521      286.579       57.788        0.041      338.819       11.726      857.270
04/18/2014  02:04:00      -25.655      197.901      -17.922       66.702       89.235       46.615     4449.103     7962.899     2172.924        2.736        0.729      199.557       48.439        0.059      338.843       11.768      857.299
04/18/2014  02:05:00       -9.505      145.652      -15.182       45.519       72.847       44.185     2071.987     5306.670     1952.300        1.543        0.467      145.962       45.507        0.097      338.809       11.713      857.317
04/18/2014  02:06:00       58.295      153.719      -13.027       69.959       88.912       48.545     4894.292     7905.272     2356.613        2.117        0.758      164.402       48.279        0.086      338.802       11.700      857.322
04/18/2014  02:07:00      -75.209      298.446      -37.112       85.633      155.066       54.319     7333.081    24045.616     2950.601        6.521        1.716      307.777       74.123        0.058      338.781       11.663      857.340
04/18/2014  02:08:00       -7.124      147.119       -6.476       88.470       93.373       51.829     7827.010     8718.595     2686.285        2.048        0.962      147.292       51.253        0.121      338.819       11.728      857.337
04/18/2014  02:09:00       39.925      222.615      -25.490      130.470      128.219       62.096    17022.407    16440.138     3855.904        4.455        1.866      226.167       71.299        0.099      338.722       11.563      857.338
04/18/2014  02:10:00      -16.686      331.915      -41.889       85.270      133.105       57.874     7270.987    17716.906     3349.455        7.026        1.417      332.334       64.517        0.038      338.689       11.508      857.339
04/18/2014  02:11:00        8.415      204.022      -24.972       76.142       98.410       46.468     5797.537     9684.580     2159.261        2.998        0.882      204.196       49.219        0.058      338.635       11.417      857.331
04/18/2014  02:12:00      -24.190      270.754      -42.563       89.635      115.893       54.292     8034.459    13431.252     2947.600        5.005        1.221      271.832       64.136        0.056      338.614       11.383      857.347
04/18/2014  02:13:00      -89.838      327.174      -16.842      131.845      225.862       80.724    17383.195    51013.679     6516.358        9.514        3.746      339.284       83.524        0.061      338.651       11.444      857.357
04/18/2014  02:14:00     -182.067      438.851      -55.091      142.447      209.630       83.076    20291.197    43944.561     6901.635       14.994        3.557      475.119       93.933        0.039      338.620       11.392      857.358
04/18/2014  02:15:00     -144.934      323.835      -42.201       90.919      131.681       68.903     8266.204    17339.976     4747.683        7.900        1.518      354.789       65.960        0.035      338.639       11.424      857.359
04/18/2014  02:16:00     -120.207      172.359      -18.942      107.604      130.978       54.988    11578.606    17155.218     3023.708        3.813        1.588      210.136       57.013        0.074      338.631       11.410      857.368
04/18/2014  02:17:00     -142.612      143.732      -24.234       90.622      123.768       58.680     8212.377    15318.448     3443.369        3.427        1.349      202.478       54.991        0.074      338.686       11.504      857.382
04/18/2014  02:18:00     -165.000      239.785      -52.058       77.516      129.502       63.241     6008.800    16770.860     3999.369        5.710        1.339      291.070       64.679        0.049      338.591       11.343      857.389
04/18/2014  02:19:00     -167.287      249.992      -39.547      134.639      150.323       69.651    18127.790    22597.031     4851.227        6.880        2.279      300.800       73.859        0.060      338.640       11.425      857.367
04/18/2014  02:20:00     -145.662      232.711      -18.713      124.933      121.156       77.878    15608.231    14678.681     6064.921        5.603        1.818      274.540       69.901        0.065      338.578       11.322      857.351
04/18/2014  02:21:00     -168.027      281.551      -42.945       96.738      108.059       69.821     9358.191    11676.846     4874.954        6.762        1.295      327.878       69.262        0.045      338.551       11.275      857.355
04/18/2014  02:22:00      -71.356      220.359      -25.796       62.911      114.351       44.088     3957.839    13076.234     1943.733        3.664        0.949      231.624       47.940        0.043      338.574       11.316      857.361
04/18/2014  02:23:00      -49.116      194.592      -20.643       52.059       98.180       51.257     2710.166     9639.307     2627.285        2.784        0.749      200.695       57.350        0.082      338.605       11.368      857.376
04/18/2014  02:24:00      -92.323      201.223      -18.684       66.435       97.279       45.694     4413.564     9463.255     2087.918        3.266        0.798      221.392       47.471        0.046      338.582       11.328      857.418
04/18/2014  02:25:00     -135.846      222.679      -32.651       92.244      135.848       62.988     8508.877    18454.790     3967.435        5.001        1.547      260.845       63.579        0.059      338.535       11.250      857.483
04/18/2014  02:26:00     -131.952      275.979      -40.723       91.607       93.978       48.592     8391.861     8831.860     2361.157        5.741        0.979      305.902       51.969        0.029      338.489       11.171      857.512
04/18/2014  02:27:00      -42.263      265.047      -24.502       83.769      178.147       66.798     7017.201    31736.513     4462.002        5.792        2.161      268.395       91.362        0.116      338.497       11.186      857.530
04/18/2014  02:28:00      -13.522      192.771      -23.804       55.079      118.225       39.120     3033.664    13977.231     1530.349        2.822        0.927      193.245       49.272        0.065      338.479       11.155      857.558
04/18/2014  02:29:00      -31.144      148.347      -19.854      136.225      118.098       53.054    18557.210    13947.104     2814.682        2.934        1.766      151.581       75.261        0.247      338.515       11.217      857.575
04/18/2014  02:30:00      -32.821      164.276      -25.119       60.561       84.199       39.221     3667.620     7089.529     1538.251        2.049        0.615      167.523       46.169        0.076      338.468       11.137      857.593
04/18/2014  02:31:00      -67.454      185.069      -39.291       81.315       86.961       44.771     6612.207     7562.184     2004.476        2.826        0.809      196.979       52.131        0.070      338.431       11.077      857.585
04/18/2014  02:32:00      -74.288      216.834      -24.247       99.261      102.413       52.778     9852.721    10488.486     2785.514        3.812        1.156      229.207       45.715        0.040      338.462       11.127      857.578
04/18/2014  02:33:00       36.689      136.914      -15.433       64.474       48.666       39.067     4156.958     2368.387     1526.200        1.419        0.403      141.745       34.569        0.059      338.398       11.023      857.546
04/18/2014  02:34:00      -26.611      236.252      -23.446      121.298      142.792       65.067    14713.236    20389.587     4233.657        4.820        1.967      237.746       70.347        0.088      338.411       11.042      857.560
04/18/2014  02:35:00      -75.960      268.777      -47.614       63.577      128.844       55.539     4042.039    16600.670     3084.606        5.200        1.186      279.304       72.786        0.068      338.427       11.069      857.564
04/18/2014  02:36:00       21.170      223.379      -32.549       92.969      118.908       54.363     8643.187    14139.010     2955.353        3.857        1.287      224.380       59.828        0.071      338.444       11.098      857.552
04/18/2014  02:37:00        2.580      270.139      -33.193       62.105      101.466       53.627     3857.002    10295.326     2875.827        4.555        0.851      270.152       57.760        0.046      338.406       11.032      857.539
04/18/2014  02:38:00        0.208      240.606      -20.573       80.497      111.940       55.585     6479.815    12530.547     3089.737        4.020        1.105      240.606       64.092        0.071      338.360       10.954      857.506
04/18/2014  02:39:00      -79.810      259.035      -31.499       71.335      134.225       57.864     5088.738    18016.256     3348.291        5.045        1.323      271.051       67.743        0.062      338.352       10.943      857.476
04/18/2014  02:40:00      -64.253      345.182      -61.231      126.676      124.051       58.916    16046.783    15388.575     3471.046        8.096        1.745      351.111       49.540        0.020      338.293       10.843      857.468
04/18/2014  02:41:00      -79.717      309.256      -43.829       77.240      113.990       46.031     5965.951    12993.647     2118.857        6.249        1.054      319.365       47.001        0.022      338.294       10.846      857.506
04/18/2014  02:42:00      -64.203      249.295      -28.427       80.798      114.724       52.333     6528.247    13161.490     2738.767        4.475        1.121      257.430       43.075        0.028      338.318       10.886      857.509
04/18/2014  02:43:00     -139.176      358.901      -56.123      124.506       95.235       58.506    15501.808     9069.726     3422.902        8.966        1.400      384.941       63.895        0.028      338.262       10.790      857.519
04/18/2014  02:44:00     -106.112      275.199      -30.755      125.048      104.548       60.173    15636.944    10930.363     3620.735        5.906        1.509      294.948       53.932        0.033      338.303       10.859      857.546
04/18/2014  02:45:00     -155.319      259.655      -37.607       91.548      146.278       63.044     8380.967    21397.164     3974.581        6.335        1.688      302.564       61.771        0.042      338.262       10.792      857.554
04/18/2014  02:46:00     -123.178      223.252      -45.014      119.644      156.553       49.563    14314.674    24508.701     2456.444        5.415        2.064      254.979       38.902        0.023      338.277       10.816      857.588
04/18/2014  02:47:00      -95.060      454.653      -48.877      116.585      145.044       76.970    13592.010    21037.849     5924.372       12.934        2.028      464.485       73.872        0.025      338.186       10.662      857.579
04/18/2014  02:48:00     -123.690      359.472      -42.927      102.795      152.135       65.914    10566.780    23145.145     4344.716        9.220        1.903      380.157       73.816        0.038      338.163       10.624      857.606
04/18/2014  02:49:00     -140.583      271.148      -34.891      100.042      184.424       70.043    10008.456    34012.365     4906.070        7.170        2.446      305.426       72.941        0.057      338.196       10.680      857.618
04/18/2014  02:50:00     -136.115      245.388      -34.483      123.112      188.444       64.849    15156.556    35511.032     4205.371        6.739        2.744      280.612       76.580        0.074      338.170       10.638      857.605
04/18/2014  02:51:00      -78.345      281.438      -37.259      148.674      162.701       67.172    22103.973    26471.522     4512.024        6.990        2.654      292.139       81.031        0.077      338.156       10.614      857.583
04/18/2014  02:52:00     -131.980      241.471       -7.770      122.702      139.208       81.755    15055.877    19378.909     6683.890        5.844        2.056      275.185       81.932        0.089      338.209       10.701      857.620
04/18/2014  02:53:00      -85.984      407.651      -58.426      116.645      170.594       64.006    13606.042    29102.228     4096.805       11.189        2.340      416.621       64.882        0.024      338.089       10.500      857.623
04/18/2014  02:54:00     -118.347      310.001      -30.809       82.983      185.190       54.807     6886.236    34295.304     3003.807        7.761        2.209      331.823       66.601        0.040      338.144       10.593      857.610
04/18/2014  02:55:00     -133.182      208.263      -28.128      141.984      122.818       71.031    20159.351    15084.320     5045.471        5.109        2.014      247.206       73.666        0.089      338.192       10.673      857.609
04/18/2014  02:56:00     -145.816      231.324      -19.675       97.948      185.667       69.976     9593.746    34472.368     4896.668        6.205        2.448      273.447       77.063        0.079      338.189       10.668      857.616
04/18/2014  02:57:00     -162.543      314.601      -34.957      104.553      190.399       61.360    10931.343    36251.769     3765.107        8.877        2.547      354.110       75.181        0.045      338.165       10.628      857.631
04/18/2014  02:58:00     -221.480      331.294      -61.466       89.595      133.655       62.528     8027.325    17863.780     3909.776        9.619        1.490      398.509       57.810        0.021      338.089       10.501      857.635
04/18/2014  02:59:00     -138.283      152.579      -13.990       84.225      118.683       54.460     7093.846    14085.748     2965.841        3.337        1.207      205.919       55.747        0.073      338.193       10.677      857.655
04/18/2014  03:00:00     -153.336      199.153      -32.299       95.875      113.928       71.596     9192.031    12979.555     5125.990        4.575        1.365      251.344       64.416        0.066      338.220       10.719      857.655
04/18/2014  03:01:00     -214.669      296.649      -54.964      124.798      166.442       68.960    15574.500    27702.865     4755.460        9.256        2.402      366.174       71.541        0.038      338.189       10.668      857.665
04/18/2014  03:02:00     -185.317      309.644      -53.911      104.133      209.389       62.521    10843.661    43843.812     3908.927        9.585        2.930      360.863       87.780        0.059      338.226       10.731      857.671
04/18/2014  03:03:00     -171.459      243.806      -30.504      116.603      141.244       75.349    13596.211    19949.762     5677.425        6.449        1.961      298.060       71.439        0.057      338.232       10.740      857.697
04/18/2014  03:04:00     -151.667      273.549      -31.702       82.954      129.725       69.521     6881.447    16828.545     4833.236        6.368        1.427      312.781       68.934        0.049      338.204       10.693      857.699
04/18/2014  03:05:00     -187.813      317.915      -52.912       73.753      122.837       60.845     5439.455    15088.974     3702.160        8.168        1.212      369.247       55.118        0.022      338.152       10.606      857.686
04/18/2014  03:06:00     -127.049      234.734      -30.280      150.858      184.195       82.553    22758.021    33927.678     6815.016        6.782        3.175      266.911       99.283        0.138      338.187       10.664      857.672
04/18/2014  03:07:00     -239.765      252.087      -33.458      151.132      164.255       95.709    22840.758    26979.616     9160.181        9.056        2.949      347.901       98.408        0.080      338.151       10.605      857.674
04/18/2014  03:08:00     -271.692      245.808      -50.101      104.271      117.600       74.006    10872.443    13829.763     5476.946        8.346        1.509      366.385       69.537        0.036      338.086       10.495      857.693
04/18/2014  03:09:00     -167.553      313.900      -44.618      102.879      164.808       76.385    10584.012    27161.588     5834.694        8.608        2.179      355.819       76.693        0.046      338.087       10.497      857.687
04/18/2014  03:10:00     -207.565      308.870      -44.570      114.119      164.615       80.870    13023.042    27098.224     6539.935        9.356        2.333      372.134       84.742        0.052      338.092       10.506      857.675
04/18/2014  03:11:00     -142.608      193.528      -24.358      108.454      109.279       65.742    11762.375    11941.862     4322.045        4.320        1.401      240.396       65.768        0.075      338.144       10.593      857.653
04/18/2014  03:12:00     -203.490      326.090      -44.475      157.378      159.848       89.448    24767.988    25551.364     8000.922       10.401        2.916      384.373       87.481        0.052      338.085       10.494      857.656
04/18/2014  03:13:00     -235.009      363.247      -53.904      137.567      167.070       75.626    18924.608    27912.502     5719.300       12.131        2.628      432.640       77.028        0.032      338.061       10.452      857.707
04/18/2014  03:14:00     -151.185      337.664      -46.837      135.593      144.168       74.095    18385.457    20784.524     5490.039        9.185        2.233      369.965       76.716        0.043      338.019       10.383      857.734
04/18/2014  03:15:00     -196.243      371.457      -39.797      117.698      161.552       74.417    13852.764    26099.073     5537.836       11.177        2.274      420.109       68.519        0.027      337.996       10.344      857.748
04/18/2014  03:16:00     -174.927      289.761      -49.694      144.184      131.650       60.334    20788.968    17331.627     3640.174        7.939        2.088      338.468       57.971        0.029      337.999       10.349      857.794
04/18/2014  03:17:00      -45.140      253.718      -28.614       76.793       94.644       45.581     5897.226     8957.563     2077.657        4.208        0.847      257.702       39.062        0.023      338.007       10.361      857.791
04/18/2014  03:18:00      -80.150      246.241      -11.803       73.119      105.755       58.093     5346.339    11184.053     3374.829        4.355        0.995      258.957       61.653        0.057      337.979       10.317      857.806
04/18/2014  03:19:00      -10.312      406.661      -44.441      108.630      149.279       73.398    11800.386    22284.192     5387.294       10.346        1.974      406.792       77.306        0.036      337.888       10.162      857.803
04/18/2014  03:20:00     -144.874      271.562      -21.003       99.789      138.697       75.398     9957.807    19236.760     5684.907        6.502        1.744      307.789       87.054        0.080      337.917       10.213      857.837
04/18/2014  03:21:00      -13.371      276.481      -34.230       61.342      182.933       52.136     3762.807    33464.639     2718.190        5.886        1.997      276.804       80.559        0.085      337.916       10.210      857.855
04/18/2014  03:22:00      -88.823      304.883      -46.164      113.209      134.750       55.021    12816.327    18157.545     3027.271        6.848        1.700      317.558       50.947        0.026      337.915       10.208      857.856
04/18/2014  03:23:00      -76.170      408.710      -46.070       96.617      164.343       58.249     9334.941    27008.564     3392.990       10.734        1.987      415.747       58.308        0.020      337.864       10.122      857.871
04/18/2014  03:24:00     -106.033      191.347      -22.396      100.609      140.919       60.045    10122.131    19858.163     3605.384        4.097        1.679      218.762       66.871        0.093      337.991       10.336      857.873
04/18/2014  03:25:00      -24.193      309.766      -41.231       50.866       93.193       40.566     2587.367     8684.905     1645.560        5.558        0.646      310.709       39.481        0.016      337.878       10.145      857.860
04/18/2014  03:26:00       -6.105      288.106      -36.157      104.099       81.443       53.188    10836.652     6632.960     2829.001        5.232        1.015      288.170       50.457        0.031      337.875       10.142      857.874
04/18/2014  03:27:00      -78.226      303.420      -46.359       93.319      134.316       47.306     8708.479    18040.755     2237.858        6.465        1.449      313.342       55.460        0.031      337.906       10.193      857.876
04/18/2014  03:28:00      -52.441      211.425      -19.152       64.475       93.060       55.970     4157.041     8660.127     3132.593        3.188        0.797      217.832       56.178        0.067      337.960       10.284      857.884
04/18/2014  03:29:00     -106.807      375.594      -54.458       99.843      131.869       57.294     9968.634    17389.418     3282.585        9.304        1.532      390.486       53.288        0.019      337.875       10.140      857.896
04/18/2014  03:30:00      -22.235      306.475      -38.885       66.330      113.687       52.331     4399.675    12924.819     2738.556        5.799        1.003      307.280       48.802        0.025      337.921       10.218      857.905
04/18/2014  03:31:00     -130.721      266.190      -44.138       91.591      113.835       63.681     8388.824    12958.388     4055.261        5.764        1.270      296.555       58.324        0.039      337.919       10.214      857.924
04/18/2014  03:32:00     -114.326      198.865      -30.342       90.687       79.481       53.988     8224.045     6317.242     2914.738        3.549        0.873      229.386       47.507        0.043      337.964       10.290      857.955
04/18/2014  03:33:00      -72.429      348.859      -52.268      106.135      150.944       56.410    11264.643    22784.211     3182.118        8.345        1.862      356.298       46.106        0.017      337.894       10.172      857.952
04/18/2014  03:34:00     -135.498      368.380      -37.468      100.016      153.972       73.879    10003.159    23707.228     5458.121        9.731        1.958      392.510       87.701        0.050      337.844       10.090      857.950
04/18/2014  03:35:00      -90.798      341.776      -35.618       92.340      162.879       68.468     8526.689    26529.664     4687.861        8.303        1.987      353.632       82.896        0.055      337.872       10.135      857.941
04/18/2014  03:36:00     -129.162      358.973      -53.510      126.880      101.852       64.924    16098.507    10373.844     4215.108        8.954        1.534      381.502       59.508        0.024      337.845       10.089      857.968
04/18/2014  03:37:00      -99.061      449.552      -51.701      115.950      112.401       63.915    13444.466    12634.041     4085.176       12.237        1.508      460.337       67.397        0.021      337.826       10.059      857.963
04/18/2014  03:38:00      -47.850      218.286      -25.882       64.976       86.885       52.367     4221.881     7548.964     2742.295        3.256        0.726      223.469       47.063        0.044      337.876       10.142      857.945
04/18/2014  03:39:00     -123.035      214.421      -31.504       87.861      157.001       65.648     7719.547    24649.232     4309.611        4.939        1.834      247.212       67.425        0.074      337.961       10.285      857.946
04/18/2014  03:40:00     -148.848      248.116      -37.076      124.420       94.963       58.125    15480.232     9018.020     3378.559        5.648        1.394      289.339       62.259        0.046      337.905       10.191      857.960
04/18/2014  03:41:00      -31.722      274.053      -26.584       76.670      114.222       60.050     5878.251    13046.699     3606.003        4.967        1.127      275.882       60.198        0.048      337.874       10.140      857.960
04/18/2014  03:42:00       -6.360      261.157      -28.044       77.016       96.405       53.529     5931.507     9293.920     2865.397        4.356        0.905      261.234       23.729        0.008      337.859       10.115      857.953
04/18/2014  03:43:00       -5.798      378.585      -41.420       77.948      117.286       59.686     6075.914    13756.081     3562.478        8.423        1.170      378.629       60.485        0.026      337.800       10.014      857.963
04/18/2014  03:44:00      -73.030      196.709      -26.225       72.584      101.356       40.409     5268.453    10272.965     1632.863        3.094        0.859      209.828       41.327        0.039      337.824       10.055      857.984
04/18/2014  03:45:00      -50.023      170.553      -20.003       67.497      112.291       49.444     4555.853    12609.256     2444.719        2.580        0.980      177.738       53.443        0.090      337.875       10.141      857.995
04/18/2014  03:46:00       -1.724      143.311        0.296       58.201       66.929       39.309     3387.335     4479.455     1545.215        1.497        0.471      143.322       34.826        0.059      337.902       10.189      857.998
04/18/2014  03:47:00      -14.566      313.024      -37.484       74.609       99.593       47.525     5566.548     9918.822     2258.637        5.867        0.887      313.363       44.518        0.020      337.762        9.952      857.990
04/18/2014  03:48:00      -27.327      265.502      -37.756       87.709       75.921       47.381     7692.901     5764.059     2244.920        4.418        0.785      266.905       37.468        0.020      337.773        9.969      857.977
04/18/2014  03:49:00       -2.683      237.769      -29.882       63.414       83.194       42.471     4021.332     6921.270     1803.807        3.509        0.637      237.784       35.152        0.022      337.758        9.945      857.970
04/18/2014  03:50:00       -0.764      239.689      -38.623       54.840       84.214       35.718     3007.424     7092.004     1275.785        3.516        0.569      239.691       22.695        0.009      337.707        9.860      857.977
04/18/2014  03:51:00       34.307      201.976       -9.011       67.409       98.365       54.024     4543.975     9675.764     2918.607        2.959        0.857      204.869       53.838        0.069      337.687        9.829      857.974
04/18/2014  03:52:00      -30.206      279.510      -42.033       70.367      160.433       51.254     4951.467    25738.708     2626.942        5.705        1.666      281.137       61.878        0.048      337.687        9.826      857.982
04/18/2014  03:53:00       17.871      255.725      -26.312       81.838       96.423       57.740     6697.539     9297.427     3333.933        4.286        0.966      256.349       61.284        0.057      337.666        9.792      857.982
04/18/2014  03:54:00      -26.144      189.329      -30.268       54.186       90.504       40.385     2936.156     8191.050     1630.920        2.510        0.638      191.126       32.834        0.030      337.696        9.844      857.982
04/18/2014  03:55:00       17.217      248.266      -33.167       63.582      122.364       48.881     4042.696    14973.044     2389.350        4.221        1.070      248.863       55.749        0.050      337.705        9.858      857.978
04/18/2014  03:56:00      -56.881      236.752      -16.959       69.669      110.486       51.458     4853.827    12207.170     2647.971        3.964        0.985      243.489       61.895        0.065      337.714        9.871      857.987
04/18/2014  03:57:00       20.553      247.400      -15.231       70.029      100.754       65.240     4904.054    10151.430     4256.243        4.058        0.966      248.253       67.831        0.075      337.696        9.842      857.999
04/18/2014  03:58:00      -38.091      302.067      -28.296       73.988      115.937       55.502     5474.172    13441.445     3080.513        5.774        1.100      304.459       54.986        0.033      337.659        9.780      858.000
04/18/2014  03:59:00      -73.564      369.892      -36.407       86.072      102.264       63.750     7408.331    10457.913     4064.113        8.274        1.097      377.137       63.332        0.028      337.647        9.759      858.016
04/18/2014  04:00:00      -75.348      259.945      -30.288       71.557      140.910       47.837     5120.475    19855.666     2288.411        5.071        1.363      270.645       52.454        0.038      337.684        9.821      858.034
04/18/2014  04:01:00      -79.953      260.111      -26.694       66.324      124.243       48.078     4398.833    15436.306     2311.493        4.845        1.107      272.122       52.988        0.038      337.647        9.759      858.033
04/18/2014  04:02:00      -78.924      341.493      -47.966       76.426      107.219       49.242     5840.978    11496.007     2424.772        7.245        0.988      350.495       50.349        0.021      337.631        9.732      858.042
04/18/2014  04:03:00      -78.079      281.481      -29.905       65.190      127.783       45.757     4249.708    16328.509     2093.701        5.444        1.134      292.109       45.682        0.024      337.629        9.729      858.067
04/18/2014  04:04:00     -132.073      176.909      -26.628      100.963       99.469       50.601    10193.608     9894.103     2560.468        3.604        1.132      220.772       56.665        0.066      337.658        9.779      858.066
04/18/2014  04:05:00     -124.653      308.613      -35.913       87.570      154.275       65.632     7668.525    23800.666     4307.605        7.392        1.789      332.837       72.805        0.048      337.613        9.702      858.075
04/18/2014  04:06:00     -200.815      441.698      -66.205       87.001       96.256       57.613     7569.255     9265.165     3319.246       12.998        1.008      485.205       45.616        0.009      337.558        9.608      858.065
04/18/2014  04:07:00      -85.352      392.039      -48.320       96.436       78.473       48.325     9299.987     6157.994     2335.331        9.055        0.890      401.223       37.363        0.009      337.564        9.618      858.069
04/18/2014  04:08:00      -85.534      343.192      -36.663       99.595      118.525       57.294     9919.116    14048.285     3282.562        7.684        1.362      353.690       51.387        0.021      337.556        9.607      858.057
04/18/2014  04:09:00      -61.051      379.161      -44.397       63.663      106.654       55.831     4052.959    11375.102     3117.148        8.400        0.927      384.044       51.802        0.018      337.538        9.576      858.046
04/18/2014  04:10:00     -104.553      280.139      -29.793       71.693       99.869       50.734     5139.869     9973.803     2573.901        5.399        0.884      299.014       52.609        0.031      337.534        9.570      858.061
04/18/2014  04:11:00     -111.677      234.999      -26.548       69.490      107.077       54.367     4828.880    11465.581     2955.785        4.382        0.963      260.185       48.657        0.035      337.551        9.598      858.067
04/18/2014  04:12:00      -78.472      181.143      -15.158       86.029      102.882       46.175     7400.990    10584.743     2132.120        2.966        1.006      197.410       50.472        0.065      337.591        9.666      858.073
04/18/2014  04:13:00     -103.284      122.569      -14.562       93.336       91.021       43.464     8711.643     8284.910     1889.135        2.239        0.944      160.283       40.660        0.064      337.596        9.675      858.076
04/18/2014  04:14:00     -133.592      269.888      -35.370      100.396      119.620       58.119    10079.456    14308.882     3377.814        5.985        1.388      301.142       66.829        0.049      337.543        9.584      858.092
04/18/2014  04:15:00     -150.381      208.407      -29.528       93.506      114.019       52.592     8743.449    13000.230     2765.936        4.571        1.225      256.998       54.250        0.045      337.579        9.647      858.092
04/18/2014  04:16:00     -115.776      233.243      -12.199      103.663      116.729       70.176    10746.063    13625.628     4924.741        4.862        1.465      260.397       72.683        0.078      337.568        9.625      858.097
04/18/2014  04:17:00      -90.923      208.203      -29.386       60.692       81.353       42.083     3683.572     6618.311     1771.006        3.227        0.604      227.190       28.563        0.016      337.599        9.678      858.084
04/18/2014  04:18:00      -95.835      141.813      -22.710       62.615       65.131       38.694     3920.632     4242.040     1497.251        1.973        0.483      171.158       36.030        0.044      337.636        9.742      858.081
04/18/2014  04:19:00      -70.283      289.587      -35.610       67.149       98.117       50.529     4508.954     9626.914     2553.208        5.338        0.834      297.994       46.904        0.025      337.587        9.657      858.073
04/18/2014  04:20:00      -60.084      338.270      -33.772       70.076      122.880       52.723     4910.632    15099.593     2779.742        7.098        1.139      343.564       58.419        0.029      337.548        9.592      858.063
04/18/2014  04:21:00      -86.062      268.671      -35.819       69.291      118.538       52.515     4801.268    14051.156     2757.784        5.124        1.081      282.118       40.918        0.021      337.607        9.692      858.066
04/18/2014  04:22:00      -87.845      350.786      -42.800       71.897       85.653       46.369     5169.199     7336.389     2150.052        7.362        0.733      361.618       33.978        0.009      337.536        9.573      858.071
04/18/2014  04:23:00     -160.272      315.103      -48.686       88.422      140.570       59.228     7818.471    19759.997     3507.973        7.921        1.554      353.521       55.137        0.024      337.529        9.561      858.076
04/18/2014  04:24:00     -113.782      245.327      -33.990       98.778      100.908       57.951     9757.000    10182.403     3358.326        4.879        1.165      270.429       57.948        0.046      337.535        9.571      858.090
04/18/2014  04:25:00     -136.607      252.741      -26.035       92.759      154.159       64.624     8604.305    23764.878     4176.246        5.987        1.827      287.297       69.069        0.058      337.523        9.551      858.078
04/18/2014  04:26:00     -126.994      265.139      -38.506       86.890       93.451       57.073     7549.915     8733.016     3257.355        5.372        0.977      293.984       47.539        0.026      337.518        9.543      858.077
04/18/2014  04:27:00     -181.931      135.059      -35.547       73.797       92.010       46.311     5445.991     8465.898     2144.744        3.433        0.803      226.583       47.660        0.044      337.539        9.578      858.078
04/18/2014  04:28:00      -95.351      228.485      -29.828       50.055      116.161       48.305     2505.458    13493.479     2333.373        4.026        0.917      247.582       53.428        0.047      337.508        9.527      858.088
04/18/2014  04:29:00     -182.968      184.318      -25.178       81.996      101.850       55.326     6723.297    10373.405     3060.918        4.412        1.008      259.713       47.330        0.033      337.495        9.501      858.114
04/18/2014  04:30:00     -207.712      312.293      -50.272       89.923      122.009       61.580     8086.155    14886.177     3792.102        8.498        1.338      375.062       61.606        0.027      337.457        9.440      858.137
04/18/2014  04:31:00     -268.188      320.548      -63.475      102.856      123.130       66.277    10579.441    15160.946     4392.652       10.441        1.507      417.942       62.306        0.022      337.448        9.425      858.144
04/18/2014  04:32:00     -190.099      195.537      -42.574       94.874       95.235       61.257     9001.117     9069.625     3752.467        4.900        1.091      272.713       63.368        0.054      337.449        9.427      858.146
04/18/2014  04:33:00     -172.329      203.867      -33.158       72.913      106.585       56.406     5316.307    11360.260     3181.587        4.610        0.993      266.944       51.944        0.038      337.450        9.428      858.140
04/18/2014  04:34:00     -155.697      198.573      -29.867       84.662      120.899       55.058     7167.660    14616.600     3031.367        4.469        1.241      252.335       55.901        0.049      337.441        9.415      858.134
04/18/2014  04:35:00     -131.768      133.907      -24.360       80.748       78.170       51.328     6520.309     6110.524     2634.579        2.557        0.763      187.867       45.642        0.059      337.468        9.460      858.133
04/18/2014  04:36:00     -139.428      193.427      -38.528       79.591       78.259       47.064     6334.794     6124.477     2215.066        3.650        0.734      238.441       44.693        0.035      337.443        9.416      858.154
04/18/2014  04:37:00     -170.358      246.448      -37.081      113.811      120.992       65.521    12952.938    14639.110     4292.976        6.150        1.594      299.598       64.843        0.047      337.406        9.354      858.169
04/18/2014  04:38:00     -122.534      223.324      -28.463       90.850      102.084       48.531     8253.811    10421.114     2355.260        4.336        1.052      254.732       54.867        0.046      337.406        9.357      858.182
04/18/2014  04:39:00     -112.962      241.543      -35.379       63.023      111.901       44.199     3971.916    12521.861     1953.569        4.540        0.922      266.652       37.457        0.020      337.420        9.377      858.194
04/18/2014  04:40:00     -124.436      175.949      -32.005       93.691       91.333       56.820     8778.074     8341.697     3228.553        3.390        1.017      215.505       59.611        0.077      337.422        9.383      858.227
04/18/2014  04:41:00     -120.817      215.406      -33.846       88.120      112.223       59.051     7765.128    12593.908     3487.042        4.299        1.192      246.975       60.370        0.060      337.427        9.391      858.257
04/18/2014  04:42:00     -130.344      189.168      -27.197       94.648      101.514       45.120     8958.191    10305.140     2035.833        3.740        1.065      229.726       44.313        0.037      337.430        9.395      858.274
04/18/2014  04:43:00     -138.012      291.257      -28.719       70.400       88.231       51.219     4956.147     7784.737     2623.353        6.003        0.768      322.301       44.551        0.019      337.420        9.378      858.278
04/18/2014  04:44:00     -136.527      166.033      -17.461      113.110       76.948       52.919    12793.932     5921.030     2800.419        3.401        1.076      214.957       48.648        0.051      337.450        9.429      858.276
04/18/2014  04:45:00     -187.536      189.819      -31.576       62.049       89.270       45.496     3850.097     7969.204     2069.848        4.304        0.694      266.835       28.708        0.012      337.479        9.476      858.263
04/18/2014  04:46:00     -163.817      204.603      -38.982       73.455       74.598       46.703     5395.686     5564.788     2181.149        4.168        0.657      262.104       42.213        0.026      337.470        9.463      858.254
04/18/2014  04:47:00     -120.585      165.907      -29.747       69.281       70.298       48.309     4799.869     4941.879     2333.777        2.751        0.604      205.100       48.093        0.055      337.481        9.481      858.272
04/18/2014  04:48:00     -123.392      243.825      -27.906       80.963       74.137       52.281     6555.008     5496.332     2733.296        4.512        0.739      273.270       44.528        0.027      337.503        9.516      858.294
04/18/2014  04:49:00     -145.330      252.067      -36.976       71.739      120.345       49.038     5146.484    14482.833     2404.772        5.403        1.102      290.961       43.714        0.023      337.492        9.498      858.316
04/18/2014  04:50:00     -128.523      179.181      -24.358       85.647       65.645       47.117     7335.472     4309.220     2220.022        3.154        0.693      220.509       45.693        0.043      337.472        9.466      858.332
04/18/2014  04:51:00     -113.408      130.320      -12.823       72.594       70.413       58.067     5269.906     4957.971     3371.783        2.180        0.680      172.756       49.356        0.082      337.489        9.496      858.342
04/18/2014  04:52:00     -163.297      180.917      -39.981       88.078       83.049       50.150     7757.717     6897.211     2515.043        3.908        0.858      243.715       37.731        0.024      337.489        9.494      858.356
04/18/2014  04:53:00     -171.008      215.085      -22.085       83.317      113.901       58.786     6941.717    12973.423     3455.765        4.968        1.169      274.783       53.933        0.039      337.476        9.472      858.348
04/18/2014  04:54:00     -162.306      200.746      -36.213      118.410       73.659       45.125    14020.965     5425.587     2036.285        4.471        1.074      258.152       47.206        0.033      337.522        9.548      858.333
04/18/2014  04:55:00     -143.664      201.980      -31.346       76.239       99.146       59.341     5812.324     9829.872     3521.352        4.079        0.958      247.861       59.397        0.057      337.488        9.492      858.314
04/18/2014  04:56:00      -95.423      190.349      -24.088       53.810       61.853       38.237     2895.496     3825.735     1462.076        2.705        0.409      212.928       33.029        0.024      337.505        9.523      858.312
04/18/2014  04:57:00      -86.980      228.024      -21.172       74.929       78.847       49.869     5614.283     6216.896     2486.963        3.716        0.716      244.050       39.279        0.026      337.499        9.511      858.334
04/18/2014  04:58:00      -90.463      180.996      -24.252       70.939       83.331       38.587     5032.295     6944.120     1488.957        2.750        0.673      202.344       40.259        0.040      337.445        9.422      858.367
04/18/2014  04:59:00     -135.751      199.076      -34.958       58.436       81.136       32.816     3414.778     6583.077     1076.870        3.518        0.554      240.956       26.792        0.012      337.429        9.394      858.378
04/18/2014  05:00:00      -87.157      108.344      -16.826       51.000       71.302       37.178     2601.024     5084.038     1382.229        1.434        0.453      139.050       30.402        0.048      337.444        9.421      858.389
04/18/2014  05:01:00      -95.904      130.932      -28.419       52.764       61.301       35.747     2784.007     3757.824     1277.861        1.748        0.391      162.299       37.006        0.052      337.364        9.288      858.389
04/18/2014  05:02:00      -99.464      101.969      -11.088       83.229       64.323       45.267     6926.985     4137.403     2049.080        1.676        0.656      142.446       42.919        0.091      337.390        9.329      858.392
04/18/2014  05:03:00     -110.425       54.252       -5.024       68.514       56.193       31.041     4694.212     3157.630      963.573        1.199        0.441      123.032       34.479        0.079      337.374        9.303      858.401
04/18/2014  05:04:00     -203.348      137.966      -39.195       77.861      113.201       44.797     6062.305    12814.579     2006.790        4.140        1.044      245.734       32.191        0.017      337.352        9.265      858.414
04/18/2014  05:05:00     -156.439      214.614      -16.406       97.352      120.335       63.946     9477.476    14480.559     4089.144        4.942        1.402      265.579       61.712        0.054      337.325        9.219      858.425
04/18/2014  05:06:00     -141.081      136.644      -22.878       75.438       85.366       40.356     5690.965     7287.414     1628.630        2.685        0.730      196.406       35.158        0.032      337.337        9.241      858.434
04/18/2014  05:07:00     -151.897      113.264      -25.425       80.781       59.319       46.558     6525.547     3518.771     2167.622        2.438        0.611      189.477       48.101        0.064      337.356        9.273      858.435
04/18/2014  05:08:00     -115.300      156.066      -28.001       82.438       76.654       48.446     6796.065     5875.847     2347.056        2.672        0.751      194.038       52.113        0.072      337.341        9.248      858.430
04/18/2014  05:09:00      -54.060      106.486      -10.336       47.982       59.276       38.756     2302.273     3513.686     1502.022        1.084        0.366      119.423       39.664        0.110      337.402        9.351      858.432
04/18/2014  05:10:00      -46.105       68.594       -7.152       52.904       66.587       40.408     2798.796     4433.814     1632.833        0.787        0.443       82.648       35.272        0.182      337.402        9.352      858.428
04/18/2014  05:11:00      -43.194        4.947       16.129       52.838       41.264       26.673     2791.817     1702.677      711.469        0.368        0.260       43.476       28.529        0.431      337.451        9.433      858.426
04/18/2014  05:12:00      -11.867       58.702       -0.183       46.023       45.335       26.414     2118.129     2055.237      697.721        0.423        0.244       59.890       13.502        0.051      337.428        9.395      858.454
04/18/2014  05:13:00       20.083      169.285      -19.066       28.918       38.094       30.271      836.277     1451.131      916.351        1.631        0.160      170.472       17.673        0.011      337.311        9.200      858.464
04/18/2014  05:14:00       21.948        7.197        1.462       19.696       36.445       24.818      387.935     1328.212      615.946        0.143        0.117       23.098       17.281        0.560      337.299        9.178      858.473
04/18/2014  05:15:00        8.811       40.912        1.471       34.715       38.343       24.072     1205.164     1470.151      579.445        0.250        0.163       41.850       21.219        0.257      337.367        9.292      858.481
04/18/2014  05:16:00      -73.873      124.825      -23.851       45.789       49.027       25.006     2096.672     2403.607      625.303        1.337        0.256      145.047       20.904        0.021      337.314        9.204      858.504
04/18/2014  05:17:00       -9.000       92.504       -7.653       45.665       47.378       24.072     2085.303     2244.654      579.445        0.680        0.245       92.941       23.890        0.066      337.351        9.265      858.517
04/18/2014  05:18:00      -31.046      173.873      -26.278       38.537       46.531       29.646     1485.085     2165.154      878.885        1.821        0.226      176.623       18.285        0.011      337.270        9.131      858.533
04/18/2014  05:19:00       15.006       71.823        2.770       38.565       60.833       29.653     1487.239     3700.676      879.329        0.573        0.303       73.374       23.496        0.103      337.205        9.025      858.537
04/18/2014  05:20:00       -3.436      127.670      -17.998       31.454       53.017       27.307      989.332     2810.849      745.687        1.059        0.227      127.716       12.179        0.009      337.192        9.001      858.545
04/18/2014  05:21:00       -9.206      102.888       -7.310       28.814       30.852       20.837      830.264      951.861      434.160        0.647        0.111      103.299       15.460        0.022      337.235        9.073      858.555
04/18/2014  05:22:00        3.543       53.111       -7.123       29.281       54.431       24.403      857.366     2962.714      595.484        0.365        0.221       53.229       24.905        0.219      337.173        8.968      858.578
04/18/2014  05:23:00        7.950       59.424       -3.080       22.718       32.453       16.932      516.108     1053.229      286.693        0.273        0.093       59.954       17.806        0.088      337.229        9.062      858.591
04/18/2014  05:24:00      -18.717       38.877        2.022       20.947       23.199       21.214      438.774      538.203      450.052        0.165        0.071       43.148       10.633        0.061      337.223        9.053      858.606
04/18/2014  05:25:00      -14.166       97.620       -2.754       36.693       70.379       27.829     1346.393     4953.232      774.459        0.840        0.354       98.642       28.936        0.086      337.172        8.967      858.630
04/18/2014  05:26:00       -9.414       89.110       -5.420       48.965       39.845       29.750     2397.555     1587.612      885.071        0.646        0.244       89.606       26.906        0.090      337.155        8.939      858.647
04/18/2014  05:27:00      -24.439       62.901        5.787       32.809       45.894       24.050     1076.454     2106.223      578.387        0.417        0.188       67.482       25.085        0.138      337.215        9.039      858.657
04/18/2014  05:28:00      -75.864       63.016      -19.121       51.243       29.952       25.006     2625.856      897.125      625.314        0.712        0.207       98.623       25.514        0.067      337.189        8.994      858.679
04/18/2014  05:29:00      -21.968       98.806       -6.851       38.088       63.053       27.471     1450.692     3975.654      754.661        0.824        0.309      101.219       29.772        0.087      337.184        8.986      858.691
04/18/2014  05:30:00      -84.758       80.097      -13.572       72.031       40.938       32.726     5188.424     1675.951     1071.018        1.086        0.397      116.617       37.867        0.105      337.238        9.078      858.692
04/18/2014  05:31:00      -48.301       39.123      -14.520       79.598       84.311       35.884     6335.892     7108.376     1287.658        0.940        0.737       62.158       38.908        0.392      337.104        8.852      858.686
04/18/2014  05:32:00      -34.444      183.040       -4.397       45.313       77.420       39.378     2053.279     5993.794     1550.588        2.215        0.480      186.252       35.524        0.036      337.104        8.850      858.671
04/18/2014  05:33:00     -110.711       97.274      -22.744       48.640       45.253       33.175     2365.882     2047.872     1100.604        1.387        0.276      147.375       31.243        0.045      337.107        8.857      858.665
04/18/2014  05:34:00      -36.950       50.413       -4.202       31.355       55.230       26.131      983.167     3050.350      682.805        0.432        0.236       62.504       19.081        0.093      337.116        8.871      858.675
04/18/2014  05:35:00      -94.506       94.677      -13.215       46.118       82.505       35.571     2126.892     6807.068     1265.290        1.413        0.510      133.773       33.289        0.062      337.113        8.866      858.677
04/18/2014  05:36:00      -99.281      134.697      -20.957       58.103       66.733       39.597     3375.975     4453.292     1567.893        1.892        0.470      167.332       30.967        0.034      337.085        8.818      858.690
04/18/2014  05:37:00      -94.631       68.536      -21.963       44.527       86.846       30.036     1982.650     7542.273      902.167        1.228        0.521      116.843       37.528        0.103      337.114        8.869      858.700
04/18/2014  05:38:00     -145.016      139.803      -19.156       75.980       99.128       42.981     5772.955     9826.408     1847.357        2.919        0.872      201.432       37.578        0.035      337.079        8.807      858.702
04/18/2014  05:39:00      -98.970       51.896      -10.090       64.168       35.784       28.681     4117.569     1280.481      822.581        0.940        0.311      111.751       30.913        0.077      337.116        8.871      858.700
04/18/2014  05:40:00     -154.608      -22.623      -12.899       61.359       87.188       38.893     3764.914     7601.667     1512.653        1.873        0.644      156.254       23.934        0.023      337.166        8.958      858.702
04/18/2014  05:41:00     -201.871      -14.321      -19.774      100.007       62.671       50.807    10001.421     3927.698     2581.389        2.893        0.826      202.379       59.604        0.087      337.133        8.898      858.720
04/18/2014  05:42:00     -185.147       14.386      -27.750       53.806       86.834       44.610     2895.113     7540.063     1990.072        2.384        0.621      185.705       19.779        0.011      337.163        8.948      858.718
04/18/2014  05:43:00     -215.676       58.051      -39.773       99.295       91.899       46.973     9859.437     8445.344     2206.507        3.599        1.026      223.351       51.311        0.053      337.151        8.929      858.728
04/18/2014  05:44:00     -203.550       62.406      -14.097      105.193       90.036       54.725    11065.594     8106.430     2994.787        3.384        1.108      212.901       50.583        0.056      337.159        8.942      858.723
04/18/2014  05:45:00     -119.109       51.137       -7.480       82.513       47.079       38.211     6808.475     2216.415     1460.094        1.367        0.524      129.622       34.203        0.070      337.195        9.006      858.720
04/18/2014  05:46:00     -136.165       22.803      -14.178       60.907       52.815       38.967     3709.623     2789.393     1518.394        1.364        0.401      138.061       38.476        0.078      337.179        8.979      858.734
04/18/2014  05:47:00     -100.623       61.377      -22.253       73.689       66.003       37.783     5430.078     4356.348     1427.578        1.280        0.561      117.865       37.061        0.099      337.197        9.009      858.742
04/18/2014  05:48:00     -216.229      -54.998      -36.137      130.951      122.140       41.866    17148.149    14918.161     1752.791        4.245        1.691      223.114       37.089        0.028      337.171        8.964      858.741
04/18/2014  05:49:00     -223.074      -43.576      -21.326      130.708      123.333       53.708    17084.512    15210.933     2884.554        4.364        1.759      227.290       41.995        0.034      337.094        8.832      858.753
04/18/2014  05:50:00     -171.358      -31.682      -20.137       84.592       60.296       49.538     7155.740     3635.646     2454.023        2.201        0.662      174.262       41.773        0.057      337.104        8.850      858.757
04/18/2014  05:51:00     -127.463      -20.984      -23.495       86.604       65.364       43.347     7500.310     4272.505     1878.972        1.544        0.683      129.178       25.798        0.040      337.108        8.858      858.766
04/18/2014  05:52:00     -134.975      -30.859      -12.673       74.647       69.381       38.899     5572.142     4813.771     1513.099        1.561        0.595      138.458       21.102        0.023      337.124        8.885      858.783
04/18/2014  05:53:00     -208.057      -30.452      -22.419       75.340       85.446       44.681     5676.068     7301.075     1996.396        2.984        0.749      210.274       41.750        0.039      337.085        8.816      858.802
04/18/2014  05:54:00     -150.413      -36.640      -15.217       67.843       59.826       40.407     4602.647     3579.140     1632.690        1.700        0.491      154.811       32.534        0.044      337.088        8.823      858.807
04/18/2014  05:55:00      -60.110      -22.980       -3.485       78.842       60.072       39.771     6216.073     3608.635     1581.760        0.778        0.570       64.352       34.213        0.283      337.108        8.859      858.819
04/18/2014  05:56:00     -205.367      -36.243      -17.759       76.383       52.293       40.315     5834.423     2734.574     1625.330        2.700        0.510      208.541       32.893        0.025      337.056        8.770      858.845
04/18/2014  05:57:00     -224.856      -54.450       -9.673       66.271       62.715       47.195     4391.844     3933.195     2227.322        3.208        0.528      231.355       29.178        0.016      337.047        8.755      858.878
04/18/2014  05:58:00     -144.367      -25.779       -5.693       64.607       64.688       37.989     4174.112     4184.509     1443.140        1.567        0.490      146.650       30.002        0.042      337.045        8.752      858.901
04/18/2014  05:59:00     -132.967       16.884      -35.791       64.031       55.762       34.236     4099.982     3109.449     1172.119        1.381        0.419      134.034       23.126        0.030      337.056        8.771      858.930
04/18/2014  06:00:00      -99.051       29.842      -10.286       45.247       50.390       32.736     2047.301     2539.174     1071.657        0.823        0.283      103.448       21.801        0.044      337.048        8.758      858.952
04/18/2014  06:01:00     -168.763       18.227      -16.388       38.530       50.545       26.939     1484.536     2554.798      725.733        1.692        0.238      169.744       18.246        0.012      337.015        8.703      858.968
04/18/2014  06:02:00     -168.721      -10.350      -20.846       78.950       76.721       40.938     6233.088     5886.063     1675.912        2.140        0.690      169.038       45.607        0.073      337.024        8.716      858.972
04/18/2014  06:03:00     -172.834       62.178      -12.846       45.740       79.741       33.334     2092.115     6358.565     1111.168        2.173        0.478      183.678       23.221        0.016      337.073        8.798      858.973
04/18/2014  06:04:00     -141.065       58.872      -17.029       57.560       55.653       33.453     3313.209     3097.292     1119.117        1.559        0.376      152.857       32.707        0.046      337.035        8.736      858.971
04/18/2014  06:05:00     -181.894       78.325      -30.466       45.955       56.302       26.818     2111.822     3169.862      719.199        2.307        0.300      198.041       21.669        0.012      337.058        8.772      858.960
04/18/2014  06:06:00     -148.119       42.190      -22.553       43.389       57.908       36.316     1882.607     3353.309     1318.845        1.539        0.328      154.010       31.568        0.042      337.094        8.834      858.959
04/18/2014  06:07:00     -168.962       41.811      -24.693       58.871       86.850       40.646     3465.736     7542.930     1652.058        2.178        0.633      174.058       35.011        0.040      337.100        8.843      858.966
04/18/2014  06:08:00      -97.519       50.478       -9.326       61.178       67.901       35.612     3742.781     4610.506     1268.233        1.088        0.481      109.809       37.063        0.114      337.079        8.809      858.981
04/18/2014  06:09:00     -123.879       14.807      -11.046       57.913       51.301       35.848     3353.892     2631.744     1285.105        1.148        0.364      124.761       18.288        0.021      337.101        8.845      859.000
04/18/2014  06:10:00     -141.304       25.154      -17.202       64.799       65.828       39.784     4198.957     4333.349     1582.765        1.550        0.506      143.526       26.437        0.034      337.103        8.851      859.034
04/18/2014  06:11:00      -77.970       43.040      -21.209       54.196       33.430       30.631     2937.199     1117.568      938.252        0.669        0.250       89.061       34.223        0.148      337.121        8.882      859.055
04/18/2014  06:12:00      -67.875       46.309      -20.933       31.331       43.131       28.196      981.649     1860.262      795.030        0.541        0.182       82.168       24.099        0.086      337.236        9.074      859.071
04/18/2014  06:13:00      -70.791       66.834      -14.440       43.880       66.685       23.163     1925.458     4446.836      536.515        0.830        0.345       97.355       20.735        0.045      337.128        8.891      859.073
04/18/2014  06:14:00      -80.269       19.533      -10.887       38.609       71.641       24.889     1490.685     5132.367      619.470        0.709        0.362       82.611       18.593        0.051      337.211        9.033      859.068
04/18/2014  06:15:00      -55.117       55.329      -18.917       68.585       57.049       35.411     4703.902     3254.588     1253.939        0.783        0.461       78.097       30.950        0.157      337.190        8.998      859.057
04/18/2014  06:16:00      -89.103       46.906      -16.319       37.936       61.078       29.889     1439.161     3730.525      893.324        0.823        0.303      100.696       24.392        0.059      337.202        9.018      859.059
04/18/2014  06:17:00     -146.349      154.101      -36.714       90.418       83.025       46.787     8175.409     6893.084     2188.999        3.188        0.863      212.521       49.065        0.053      337.202        9.015      859.074
04/18/2014  06:18:00     -128.953       84.116       -2.114      118.309       58.620       42.068    13997.049     3436.346     1769.721        2.145        0.960      153.962       23.704        0.024      337.215        9.038      859.094
04/18/2014  06:19:00      -49.230       27.596       -7.209       47.207       29.905       16.244     2228.514      894.309      263.856        0.331        0.169       56.437        8.717        0.024      337.222        9.050      859.100
04/18/2014  06:20:00     -127.217       61.676      -35.152       78.190       59.780       42.918     6113.709     3573.676     1841.961        1.637        0.576      141.379       50.272        0.126      337.219        9.045      859.116
04/18/2014  06:21:00      -78.111       63.922      -17.953       51.488       44.081       27.640     2651.047     1943.122      763.950        0.793        0.268      100.933       30.107        0.089      337.239        9.078      859.121
04/18/2014  06:22:00      -96.002      136.133      -18.917       63.265      117.678       52.599     4002.464    13848.079     2766.659        2.436        1.031      166.579       46.761        0.079      337.252        9.100      859.138
04/18/2014  06:23:00      -44.852      126.655       -1.899       45.942       68.160       33.304     2110.672     4645.777     1109.157        1.296        0.393      134.362       22.767        0.029      337.186        8.989      859.147
04/18/2014  06:24:00      -95.734       53.602       -5.124       43.608       61.324       32.681     1901.657     3760.662     1068.031        0.940        0.337      109.718       20.045        0.033      337.232        9.067      859.163
04/18/2014  06:25:00      -71.373       99.051      -22.652       56.870       37.387       26.528     3234.225     1397.793      703.709        1.038        0.267      122.087       25.276        0.043      337.271        9.133      859.187
04/18/2014  06:26:00     -119.179      120.547      -22.701       62.402       90.059       36.040     3893.997     8110.613     1298.867        2.127        0.665      169.515       32.872        0.038      337.205        9.022      859.202
04/18/2014  06:27:00      -49.761      116.334      -14.030       95.509       59.161       40.668     9121.929     3499.992     1653.899        1.524        0.714      126.530       56.800        0.202      337.223        9.051      859.190
04/18/2014  06:28:00      -39.705      151.672      -12.299       54.743       44.763       31.613     2996.793     2003.721      999.404        1.536        0.300      156.783       20.046        0.016      337.202        9.017      859.189
04/18/2014  06:29:00      -78.271      191.543      -28.499       66.965       63.597       34.013     4484.307     4044.552     1156.893        2.665        0.484      206.918       36.502        0.031      337.184        8.985      859.188
04/18/2014  06:30:00      -74.906      197.093      -17.320       62.740       86.563       44.661     3936.298     7493.169     1994.562        2.909        0.671      210.848       40.122        0.036      337.186        8.987      859.198
04/18/2014  06:31:00      -84.640      169.002      -15.017       59.227       70.168       38.241     3507.817     4923.596     1462.383        2.292        0.495      189.012       32.028        0.029      337.205        9.021      859.202
04/18/2014  06:32:00      -59.642      158.654      -11.945       36.274       97.224       42.802     1315.817     9452.428     1832.018        2.073        0.630      169.494       39.371        0.054      337.181        8.980      859.205
04/18/2014  06:33:00      -76.500       93.170      -19.970       35.876       78.068       24.098     1287.067     6094.643      580.712        1.145        0.398      120.552       31.479        0.068      337.181        8.983      859.209
04/18/2014  06:34:00      -81.912      102.476       -4.903       59.708       77.911       38.820     3565.074     6070.131     1506.957        1.419        0.557      131.191       45.760        0.122      337.142        8.915      859.216
04/18/2014  06:35:00     -107.770      107.167      -13.981       46.195       63.175       38.024     2133.955     3991.130     1445.830        1.543        0.379      151.984       33.401        0.048      337.155        8.936      859.216
04/18/2014  06:36:00     -118.504      119.071      -16.485       66.080       96.134       37.989     4366.541     9241.702     1443.127        2.177        0.753      167.991       40.817        0.059      337.188        8.991      859.235
04/18/2014  06:37:00     -163.886      213.944      -44.071       60.283       68.573       48.123     3634.070     4702.294     2315.860        4.261        0.533      269.501       43.737        0.026      337.134        8.899      859.257
04/18/2014  06:38:00     -101.121      139.101      -22.480       58.197       64.268       40.477     3386.918     4130.314     1638.418        1.962        0.458      171.972       41.806        0.059      337.145        8.922      859.279
04/18/2014  06:39:00     -170.050      155.527      -38.403      105.894      119.954       53.115    11213.636    14389.075     2821.193        4.150        1.421      230.446       71.920        0.097      337.173        8.966      859.301
04/18/2014  06:40:00     -168.002      170.753      -32.340       74.771       77.859       49.265     5590.733     6062.029     2427.078        3.625        0.704      239.544       49.166        0.042      337.138        8.907      859.322
04/18/2014  06:41:00     -210.232      262.791      -58.735       75.550       86.245       52.913     5707.748     7438.198     2799.802        6.632        0.797      336.536       42.910        0.016      337.147        8.921      859.343
04/18/2014  06:42:00     -169.106      180.206      -24.662       84.857       88.204       57.466     7200.681     7780.003     3302.305        3.998        0.914      247.126       45.699        0.034      337.166        8.953      859.366
04/18/2014  06:43:00     -112.841       83.006      -12.019       93.466       77.976       37.328     8735.943     6080.215     1393.350        1.799        0.810      140.083       40.438        0.083      337.210        9.030      859.384
04/18/2014  06:44:00     -186.134      212.356      -33.441       99.178      118.569       52.706     9836.258    14058.530     2777.912        5.376        1.334      282.384       53.093        0.035      337.196        9.003      859.407
04/18/2014  06:45:00     -159.589      190.142      -30.787       85.730      112.318       54.785     7349.706    12615.437     3001.405        4.276        1.148      248.239       49.605        0.040      337.223        9.050      859.423
04/18/2014  06:46:00     -184.600      274.532      -50.483       83.021       94.512       51.410     6892.508     8932.477     2643.027        6.523        0.923      330.825       51.593        0.024      337.184        8.984      859.435
04/18/2014  06:47:00     -137.515      227.215      -30.552      112.077      116.553       56.280    12561.197    13584.516     3167.435        5.039        1.466      265.588       62.177        0.055      337.197        9.006      859.457
04/18/2014  06:48:00      -86.316       88.401      -13.113       61.723       65.406       46.781     3809.755     4277.977     2188.478        1.285        0.514      123.552       37.524        0.092      337.310        9.199      859.475
04/18/2014  06:49:00     -118.665      123.231      -33.888       69.192       77.468       44.832     4787.574     6001.330     2009.871        2.160        0.640      171.077       45.281        0.070      337.260        9.113      859.500
04/18/2014  06:50:00     -153.238      208.001      -38.240       87.135       67.938       47.766     7592.489     4615.576     2281.627        4.135        0.724      258.353       38.173        0.022      337.224        9.052      859.522
04/18/2014  06:51:00      -83.908      159.353      -19.047       57.292       90.099       35.809     3282.356     8117.872     1282.286        2.274        0.634      180.094       33.106        0.034      337.306        9.191      859.537
04/18/2014  06:52:00      -85.252      132.507      -16.747       51.964       72.282       37.450     2700.278     5224.714     1402.501        1.722        0.466      157.562       33.850        0.046      337.310        9.197      859.554
04/18/2014  06:53:00     -122.900      123.997      -20.380       53.707       65.524       36.879     2884.444     4293.455     1360.047        1.971        0.427      174.584       36.223        0.043      337.266        9.123      859.583
04/18/2014  06:54:00      -94.970      116.391      -12.031       65.088       75.099       38.147     4236.414     5639.856     1455.229        1.702        0.567      150.220       41.262        0.075      337.312        9.201      859.606
04/18/2014  06:55:00     -135.712      147.479      -19.848       66.682       77.700       41.704     4446.553     6037.348     1739.182        2.639        0.611      200.419       31.619        0.025      337.245        9.087      859.629
04/18/2014  06:56:00     -168.966      218.236      -45.414       72.607       72.816       45.548     5271.775     5302.185     2074.661        4.544        0.632      276.001       44.646        0.026      337.212        9.031      859.636
04/18/2014  06:57:00     -167.933      129.364      -20.069       88.223       83.395       45.515     7783.268     6954.803     2071.624        3.107        0.840      211.983       45.812        0.047      337.227        9.056      859.638
04/18/2014  06:58:00     -135.639      158.159      -30.364       75.897       66.939       47.249     5760.304     4480.774     2232.422        2.840        0.624      208.356       47.412        0.052      337.262        9.115      859.637
04/18/2014  06:59:00     -159.468      275.637      -48.322       74.115      117.309       54.189     5493.057    13761.346     2936.435        6.296        1.110      318.443       47.082        0.022      337.237        9.074      859.637
04/18/2014  07:00:00     -178.569      128.233      -35.466       71.821       76.025       51.603     5158.211     5779.840     2662.903        3.159        0.680      219.842       53.047        0.058      337.250        9.095      859.634
04/18/2014  07:01:00     -185.176      162.806      -26.001       98.924       83.135       50.475     9785.883     6911.444     2547.705        4.035        0.962      246.569       48.166        0.038      337.257        9.106      859.632
04/18/2014  07:02:00     -146.915      192.611      -34.325       57.915       66.085       41.181     3354.153     4367.293     1695.881        3.464        0.471      242.246       31.997        0.017      337.283        9.148      859.639
04/18/2014  07:03:00     -127.976      162.894      -23.605       71.223       76.989       39.505     5072.669     5927.377     1560.642        2.801        0.628      207.153       35.650        0.030      337.330        9.228      859.650
04/18/2014  07:04:00     -159.082      154.210      -29.142       74.286       66.217       46.960     5518.404     4384.638     2205.199        3.102        0.605      221.558       39.230        0.031      337.320        9.212      859.660
04/18/2014  07:05:00     -152.368      145.094      -29.670       81.379       74.056       46.927     6622.530     5484.320     2202.182        2.973        0.715      210.400       52.501        0.062      337.333        9.233      859.696
04/18/2014  07:06:00     -130.613      213.570      -26.780       63.344       73.864       41.907     4012.403     5455.961     1756.178        3.730        0.561      250.344       37.695        0.023      337.309        9.193      859.720
04/18/2014  07:07:00     -112.922      157.453      -19.362       62.386       67.104       45.463     3892.010     4502.896     2066.853        2.419        0.523      193.759       45.746        0.056      337.388        9.327      859.734
04/18/2014  07:08:00     -123.230      103.316      -19.892       69.787       59.420       36.588     4870.286     3530.697     1338.704        1.800        0.487      160.810       25.787        0.026      337.393        9.334      859.738
04/18/2014  07:09:00     -182.359      157.634      -29.904       91.907       85.302       51.819     8446.978     7276.496     2685.239        3.870        0.920      241.046       47.842        0.039      337.349        9.259      859.740
04/18/2014  07:10:00     -119.530      169.635      -29.053       73.305       66.488       48.255     5373.572     4420.671     2328.534        2.801        0.606      207.518       39.892        0.037      337.358        9.275      859.724
04/18/2014  07:11:00     -145.964      131.781      -15.280       78.455       77.556       48.933     6155.112     6014.936     2394.464        2.673        0.728      196.651       43.631        0.049      337.360        9.278      859.714
04/18/2014  07:12:00     -160.638      184.767      -25.226       82.265       91.386       44.272     6767.499     8351.428     1959.998        3.883        0.854      244.833       40.816        0.028      337.364        9.284      859.710
04/18/2014  07:13:00     -134.073      184.837      -29.919       69.468       66.660       51.227     4825.784     4443.491     2624.254        3.246        0.595      228.342       48.445        0.045      337.376        9.304      859.703
04/18/2014  07:14:00     -136.235      120.678      -22.608       57.711       67.940       38.232     3330.562     4615.860     1461.696        2.152        0.470      181.997       29.066        0.026      337.367        9.291      859.693
04/18/2014  07:15:00     -126.422      118.394      -23.055       53.650       85.863       39.165     2878.282     7372.478     1533.897        2.116        0.589      173.204       39.381        0.052      337.416        9.373      859.688
04/18/2014  07:16:00     -114.911       75.350      -23.208       58.635       75.400       39.806     3438.058     5685.165     1584.511        1.506        0.535      137.413       35.697        0.067      337.514        9.540      859.663
04/18/2014  07:17:00     -120.901       39.196      -22.170       89.304       93.602       38.795     7975.156     8761.241     1505.048        1.744        0.912      127.096       38.301        0.091      337.456        9.440      859.661
04/18/2014  07:18:00     -119.412      -18.435       -9.904       74.100      110.601       40.562     5490.865    12232.638     1645.244        1.703        0.968      120.827       31.553        0.068      337.449        9.428      859.667
04/18/2014  07:19:00     -145.809       43.793      -12.877      109.154       78.621       51.099    11914.595     6181.281     2611.144        2.202        1.035      152.244       56.599        0.138      337.443        9.419      859.665
04/18/2014  07:20:00     -105.732       39.361      -10.634       79.916       69.033       53.576     6386.613     4765.556     2870.427        1.343        0.701      112.821       46.995        0.174      337.466        9.458      859.669
04/18/2014  07:21:00     -172.843       46.076      -21.143       95.364       76.783       48.422     9094.257     5895.624     2344.665        2.489        0.867      178.879       50.683        0.080      337.450        9.429      859.680
04/18/2014  07:22:00     -127.727      101.070      -26.135       73.392       67.475       39.588     5386.361     4552.933     1567.174        1.936        0.575      162.879       45.254        0.077      337.444        9.420      859.695
04/18/2014  07:23:00      -58.810       42.275        1.094       66.855      102.674       39.868     4469.531    10541.940     1589.436        1.092        0.830       72.428       36.572        0.255      337.580        9.649      859.698
04/18/2014  07:24:00     -190.465       74.345      -33.600      125.027       69.455       47.980    15631.682     4824.031     2302.103        3.284        1.138      204.460       61.806        0.091      337.517        9.543      859.717
04/18/2014  07:25:00     -104.760       71.458      -17.094       61.053       66.914       42.444     3727.471     4477.418     1801.460        1.319        0.500      126.811       35.543        0.079      337.565        9.625      859.712
04/18/2014  07:26:00      -80.257       34.552        3.969       58.677       48.454       29.072     3443.046     2347.837      845.183        0.714        0.332       87.379       19.580        0.050      337.587        9.663      859.698
04/18/2014  07:27:00     -178.607       37.679      -18.765       86.504       65.695       35.052     7482.928     4315.893     1228.624        2.335        0.651      182.538       27.072        0.022      337.551        9.600      859.697
04/18/2014  07:28:00     -154.306       19.244      -22.945       83.070       78.744       44.254     6900.593     6200.584     1958.437        1.988        0.753      155.502       40.948        0.069      337.547        9.594      859.695
04/18/2014  07:29:00      -71.014       84.166       -9.956       51.437       65.419       35.175     2645.748     4279.592     1237.290        1.019        0.408      110.122       32.059        0.085      337.637        9.745      859.691
04/18/2014  07:30:00      -77.816       77.442       -6.539       52.719       50.178       33.734     2779.288     2517.786     1137.983        0.926        0.322      109.784       31.587        0.083      337.695        9.843      859.681
04/18/2014  07:31:00     -194.869       38.282      -32.849       75.833       53.974       32.280     5750.715     2913.158     1042.026        2.511        0.485      198.594       37.711        0.036      337.546        9.589      859.688
04/18/2014  07:32:00     -116.373       18.479      -22.958       68.074       56.601       31.288     4634.034     3203.703      978.912        1.161        0.441      117.831       35.005        0.088      337.614        9.705      859.679
04/18/2014  07:33:00     -210.139       24.964      -30.617       71.695       77.716       46.342     5140.205     6039.782     2147.554        2.952        0.666      211.616       31.892        0.023      337.618        9.712      859.674
04/18/2014  07:34:00     -225.621      -70.906       -6.212       79.266       68.568       35.748     6283.151     4701.525     1277.920        3.411        0.613      236.501       37.444        0.025      337.624        9.721      859.688
04/18/2014  07:35:00      -86.930      -34.324        7.213       85.247       47.106       44.646     7266.978     2218.946     1993.271        1.013        0.574       93.461       32.618        0.122      337.709        9.866      859.702
04/18/2014  07:36:00     -135.382      -38.776      -30.314       61.964       45.251       31.424     3839.570     2047.637      987.471        1.381        0.344      140.826       24.093        0.029      337.682        9.822      859.723
04/18/2014  07:37:00     -182.723       18.354      -26.204       74.286       70.584       39.327     5518.406     4982.162     1546.638        2.323        0.602      183.643       32.360        0.031      337.691        9.834      859.751
04/18/2014  07:38:00     -226.466       43.331      -18.274       49.576       40.656       20.265     2457.764     1652.880      410.650        2.901        0.226      230.574       21.410        0.009      337.597        9.675      859.775
04/18/2014  07:39:00     -142.874       22.534      -20.229       41.246       22.797       19.861     1701.240      519.707      394.472        1.197        0.131      144.640       15.687        0.012      337.728        9.898      859.802
04/18/2014  07:40:00      -49.548       24.740        3.828       51.011       43.941       25.379     2602.166     1930.804      644.090        0.413        0.259       55.381       25.968        0.220      337.916       10.213      859.822
04/18/2014  07:41:00      -26.062       16.951        9.283       52.051       36.001       25.189     2709.282     1296.066      634.477        0.285        0.232       31.090       21.094        0.460      337.992       10.342      859.839
04/18/2014  07:42:00      -75.884        6.269      -11.355       58.739       24.784       25.260     3450.231      614.263      638.075        0.531        0.235       76.143       21.136        0.077      337.903       10.191      859.856
04/18/2014  07:43:00     -120.676       15.184      -13.586       55.762       33.481       40.035     3109.360     1120.983     1602.805        1.040        0.292      121.628       37.063        0.093      337.880       10.152      859.853
04/18/2014  07:44:00     -138.569      -42.189      -13.467       59.754       48.960       31.194     3570.595     2397.036      973.090        1.405        0.347      144.850       31.795        0.048      337.817       10.046      859.858
04/18/2014  07:45:00     -142.210       33.785      -16.743       92.979       73.136       41.215     8645.145     5348.856     1698.658        1.867        0.785      146.168       56.246        0.148      337.805       10.027      859.867
04/18/2014  07:46:00     -129.222       87.207      -16.467       76.854       84.081       44.297     5906.512     7069.589     1962.263        1.975        0.747      155.895       42.464        0.074      337.845       10.093      859.876
04/18/2014  07:47:00     -146.524       89.701      -20.620       70.224       47.686       40.106     4931.378     2273.961     1608.484        1.938        0.441      171.801       45.375        0.070      337.791       10.003      859.891
04/18/2014  07:48:00     -140.773      115.101      -28.897       60.307       77.384       37.152     3636.994     5988.209     1380.292        2.245        0.550      181.838       49.313        0.074      337.792       10.002      859.895
04/18/2014  07:49:00     -120.491       56.215      -23.297       53.432       45.908       25.394     2855.009     2107.582      644.867        1.191        0.280      132.959       29.747        0.050      337.765        9.960      859.907
04/18/2014  07:50:00      -30.339       61.180        5.447       32.885       50.462       28.143     1081.438     2546.409      792.014        0.456        0.221       68.290       21.048        0.095      338.011       10.373      859.910
04/18/2014  07:51:00      -23.562       28.629        5.801       37.251       50.633       26.030     1387.654     2563.671      677.551        0.302        0.231       37.078       26.943        0.528      337.982       10.325      859.923
04/18/2014  07:52:00      -30.238      -35.024        2.955       33.710       47.255       21.127     1136.389     2232.997      446.346        0.298        0.191       46.271       19.668        0.181      337.951       10.272      859.921
04/18/2014  07:53:00     -105.383       12.011       -8.218       53.903       42.453       29.126     2905.565     1802.274      848.351        0.844        0.278      106.065       27.153        0.066      337.886       10.162      859.930
04/18/2014  07:54:00      -83.191      -41.031      -17.681       48.261       56.884       28.216     2329.111     3235.816      796.170        0.764        0.318       92.759       24.303        0.069      337.910       10.204      859.930
04/18/2014  07:55:00      -39.042      -10.386       14.212       29.664       23.671       22.554      879.945      560.336      508.661        0.189        0.097       40.400       19.399        0.231      338.141       10.590      859.929
04/18/2014  07:56:00       13.056       45.719        8.908       22.569       40.260       21.299      509.379     1620.858      453.655        0.246        0.129       47.547       17.912        0.142      338.341       10.926      859.924
04/18/2014  07:57:00       34.963       40.119        8.882       32.097       25.342       26.042     1030.199      642.211      678.197        0.263        0.118       53.216       18.826        0.125      338.189       10.671      859.923
04/18/2014  07:58:00       12.812       44.272        6.510       36.145       26.564       26.053     1306.454      705.626      678.760        0.243        0.135       46.088       16.263        0.125      338.255       10.782      859.930
04/18/2014  07:59:00      -52.011      -14.914        8.776       25.685       33.396       22.643      659.726     1115.267      512.710        0.265        0.114       54.107       13.836        0.065      338.209       10.704      859.951
04/18/2014  08:00:00       10.894       51.465       11.362       33.056       73.082       26.187     1092.718     5341.041      685.734        0.501        0.356       52.605       33.067        0.395      338.434       11.082      859.960
04/18/2014  08:01:00        2.397       95.377      -10.634       42.624       43.850       30.683     1816.765     1922.812      941.468        0.695        0.234       95.407       23.983        0.063      338.351       10.942      859.971
04/18/2014  08:02:00       15.522       41.772        8.287       21.543       50.788       24.002      464.118     2579.383      576.110        0.284        0.181       44.562       19.972        0.201      338.363       10.964      859.977
04/18/2014  08:03:00       20.570       29.788        6.571       14.489       12.352       14.316      209.933      152.569      204.934        0.096        0.028       36.200        6.519        0.032      338.148       10.603      859.977
04/18/2014  08:04:00       41.608       41.316       12.559       32.681       31.145       24.546     1068.052      969.992      602.505        0.312        0.132       58.636       18.346        0.098      338.286       10.834      859.989
04/18/2014  08:05:00       40.685       47.653       18.210       31.493       30.776       25.829      991.834      947.154      667.131        0.343        0.130       62.659       19.972        0.102      338.416       11.053      859.987
04/18/2014  08:06:00       15.538       82.402      -14.477       35.923       26.047       15.720     1290.435      678.447      247.119        0.473        0.111       83.854       14.613        0.030      338.262       10.796      860.003
04/18/2014  08:07:00      -14.698       48.667       -5.570       16.500       27.894       18.474      272.246      778.095      341.283        0.200        0.070       50.838        8.621        0.029      338.313       10.880      860.007
04/18/2014  08:08:00       -0.857       22.660       10.877       26.324       24.744       14.668      692.952      612.282      215.158        0.108        0.076       22.676       13.498        0.354      338.531       11.247      860.008
04/18/2014  08:09:00       56.570       45.681       -1.945       30.905       26.797       22.237      955.138      718.077      494.480        0.373        0.108       72.711       11.589        0.025      338.419       11.059      860.002
04/18/2014  08:10:00       42.987       62.424       12.128       44.400       32.241       27.672     1971.370     1039.458      765.757        0.483        0.189       75.794       13.908        0.034      338.652       11.447      859.993
04/18/2014  08:11:00       22.939       92.273      -11.318       60.404       49.870       25.194     3648.586     2487.034      634.743        0.797        0.339       95.082       32.121        0.114      338.347       10.937      860.004
04/18/2014  08:12:00      -50.817       44.838       11.813       57.253       52.223       36.075     3277.895     2727.232     1301.410        0.602        0.365       67.770       41.702        0.379      338.679       11.494      860.006
04/18/2014  08:13:00     -108.586       61.292      -15.025       37.180       38.585       26.687     1382.366     1488.800      712.197        0.968        0.179      124.690       23.642        0.036      338.213       10.710      860.012
04/18/2014  08:14:00      -52.409       -6.523       -3.747       36.263       33.136       20.094     1314.981     1097.973      403.750        0.281        0.141       52.813       18.226        0.119      338.222       10.728      860.016
04/18/2014  08:15:00      -48.805       32.442        3.800       29.767       44.257       30.103      886.058     1958.646      906.206        0.360        0.188       58.604       20.718        0.125      338.586       11.338      860.031
04/18/2014  08:16:00       22.738       58.240        3.295       36.830       59.528       34.647     1356.467     3543.596     1200.385        0.501        0.305       62.521       34.011        0.296      338.539       11.259      860.041
04/18/2014  08:17:00       11.426       94.749       -5.932       27.049       62.498       32.176      731.625     3905.985     1035.318        0.741        0.284       95.436       36.437        0.146      338.494       11.184      860.037
04/18/2014  08:18:00       12.230      113.569        1.766       30.084       76.369       36.482      905.072     5832.206     1330.909        1.056        0.403      114.225       38.331        0.113      338.657       11.458      860.043
04/18/2014  08:19:00       10.847      153.201       -8.634       43.815       53.053       31.981     1919.724     2814.585     1022.794        1.471        0.288      153.585       22.717        0.022      338.434       11.083      860.047
04/18/2014  08:20:00       77.682      100.544       20.923       77.702       71.602       65.167     6037.563     5126.813     4246.688        1.599        0.771      127.057       59.560        0.220      338.544       11.267      860.058
04/18/2014  08:21:00       46.567      108.749       -4.651       46.489       54.756       33.302     2161.217     2998.170     1109.028        1.014        0.313      118.300       32.263        0.074      338.421       11.061      860.096
04/18/2014  08:22:00      -28.941       71.510        4.343       28.308       50.305       32.641      801.367     2530.609     1065.451        0.518        0.220       77.145       25.863        0.112      338.673       11.484      860.109
04/18/2014  08:23:00      -74.115       55.809      -19.569       20.247       30.526       20.632      409.938      931.845      425.678        0.538        0.088       92.778       13.882        0.022      338.181       10.659      860.122
04/18/2014  08:24:00      -62.828       48.828       -0.050       60.857       66.879       32.344     3703.618     4472.847     1046.156        0.778        0.461       79.570       39.043        0.241      338.484       11.167      860.128
04/18/2014  08:25:00      -96.644       86.019       -5.115       67.888       53.610       42.815     4608.756     2874.075     1833.163        1.304        0.466      129.381       44.287        0.117      338.560       11.294      860.132
04/18/2014  08:26:00      -50.182      128.648       -4.658       54.417       71.137       38.470     2961.210     5060.457     1479.945        1.429        0.475      138.089       34.080        0.061      338.862       11.802      860.140
04/18/2014  08:27:00      -27.929      145.531      -21.927       21.112       73.911       22.901      445.699     5462.886      524.462        1.444        0.322      148.187       26.911        0.033      338.306       10.869      860.155
04/18/2014  08:28:00       -1.948       27.401       17.669       22.008       40.199       24.778      484.344     1615.953      613.972        0.189        0.136       27.470       26.852        0.956      339.195       12.364      860.143
04/18/2014  08:29:00       36.674       35.766       15.700       28.183       31.437       28.464      794.294      988.288      810.204        0.273        0.130       51.227       23.560        0.212      338.816       11.724      860.140
04/18/2014  08:30:00       60.920       69.724        2.767       45.373       53.775       26.454     2058.698     2891.787      699.804        0.711        0.283       92.588       23.397        0.064      338.580       11.327      860.135
04/18/2014  08:31:00      -57.409       87.936      -19.531       83.204       53.102       30.054     6922.888     2819.819      903.272        1.103        0.532      105.017       44.933        0.183      338.433       11.081      860.129
04/18/2014  08:32:00      -54.562       90.719       -6.515       48.215       39.362       30.372     2324.713     1549.403      922.462        0.802        0.240      105.863       26.707        0.064      338.526       11.238      860.132
04/18/2014  08:33:00       42.330       41.200       11.931       29.059       25.702       26.377      844.427      660.611      695.730        0.292        0.110       59.070       14.000        0.056      338.646       11.440      860.122
04/18/2014  08:34:00       32.093       84.968        6.307       56.279       43.437       30.966     3167.341     1886.809      958.911        0.715        0.301       90.827       29.084        0.103      338.628       11.408      860.126
04/18/2014  08:35:00       52.103       45.759       17.553       25.767       37.666       29.025      663.943     1418.710      842.466        0.402        0.146       69.344       24.726        0.127      338.466       11.135      860.125
04/18/2014  08:36:00      -43.548       38.663      -13.148       53.603       51.000       17.232     2873.301     2600.988      296.942        0.467        0.289       58.234       17.298        0.088      338.309       10.873      860.151
04/18/2014  08:37:00      -41.187      -15.523       -5.566       35.495       34.219       21.322     1259.907     1170.950      454.612        0.243        0.144       44.015       17.243        0.153      338.520       11.227      860.146
04/18/2014  08:38:00      -28.464       29.087        3.614       32.812       64.258       32.174     1076.612     4129.130     1035.162        0.395        0.312       40.697       22.306        0.300      338.765       11.638      860.151
04/18/2014  08:39:00      -98.117       20.699      -15.058       49.688       36.564       32.817     2468.927     1336.945     1076.982        0.758        0.244      100.277       33.882        0.114      338.642       11.433      860.144
04/18/2014  08:40:00      -28.778       -5.860        8.196       46.493       31.781       25.768     2161.607     1010.054      664.009        0.238        0.192       29.368       22.749        0.600      338.954       11.957      860.133
04/18/2014  08:41:00      -14.045       65.805       15.805       34.400       62.610       37.002     1183.340     3920.018     1369.179        0.562        0.324       67.288       35.427        0.277      339.124       12.242      860.131
04/18/2014  08:42:00      -72.443       51.180      -17.336       46.181       73.326       35.939     2132.719     5376.699     1291.593        0.848        0.440       88.699       32.127        0.131      338.522       11.230      860.147
04/18/2014  08:43:00     -110.471       -4.352      -11.816       46.707       47.079       23.375     2181.546     2216.435      546.389        0.865        0.247      110.557       24.246        0.048      338.467       11.139      860.142
04/18/2014  08:44:00      -52.563        5.011       -5.193       52.625       31.212       21.594     2769.439      974.191      466.299        0.351        0.210       52.802       23.990        0.206      338.897       11.861      860.147
04/18/2014  08:45:00     -116.047      -33.247       -1.783       30.004       36.040       23.437      900.222     1298.895      549.272        0.866        0.137      120.716       12.033        0.010      338.543       11.267      860.153
04/18/2014  08:46:00       -6.538        6.319       15.910       58.125       50.818       26.281     3378.554     2582.516      690.670        0.349        0.333        9.093       23.262        6.545      339.070       12.152      860.146
04/18/2014  08:47:00      115.851       74.753       18.853       45.976       39.757       37.598     2113.808     1580.631     1413.593        1.224        0.255      137.875       24.410        0.031      338.801       11.699      860.139
04/18/2014  08:48:00      187.106      116.265       24.075       71.211       61.804       44.650     5071.065     3819.770     1993.625        2.999        0.544      220.286       30.914        0.020      338.664       11.467      860.127
04/18/2014  08:49:00      114.974      100.681       14.552       52.885       35.869       45.894     2796.806     1286.562     2106.242        1.488        0.309      152.826       26.230        0.029      338.366       10.969      860.131
04/18/2014  08:50:00       69.779       53.635       37.868       50.366       48.585       57.313     2536.704     2360.541     3284.824        0.868        0.409       88.010       40.963        0.217      338.796       11.689      860.131
04/18/2014  08:51:00       92.039       78.996       43.907       51.694       51.865       38.925     2672.278     2690.018     1515.154        1.176        0.344      121.291       23.183        0.037      338.759       11.629      860.141
04/18/2014  08:52:00       58.505       64.534       24.680       40.206       42.169       36.679     1616.541     1778.184     1345.347        0.647        0.237       87.106       20.771        0.057      338.931       11.918      860.153
04/18/2014  08:53:00       75.904       94.502        3.021       71.601       54.947       48.266     5126.738     3019.161     2329.587        1.259        0.524      121.211       40.148        0.110      338.859       11.797      860.175
04/18/2014  08:54:00      120.808       58.770       16.669       58.428       40.042       45.208     3413.859     1603.354     2043.800        1.269        0.353      134.345       25.317        0.036      338.810       11.714      860.193
04/18/2014  08:55:00      121.931       83.415       31.320       39.882       36.467       35.955     1590.597     1329.852     1292.787        1.351        0.211      147.733       21.565        0.021      338.839       11.765      860.202
04/18/2014  08:56:00       45.645       67.909       69.682       54.209       47.019       37.354     2938.641     2210.815     1395.315        0.905        0.327       81.824       21.671        0.070      338.993       12.023      860.197
04/18/2014  08:57:00       15.979      -17.104       -4.812       48.435       61.181       27.624     2345.944     3743.158      763.072        0.371        0.343       23.406       19.426        0.689      338.867       11.810      860.184
04/18/2014  08:58:00       24.823      -17.609       25.772       40.413       83.883       47.830     1633.248     7036.404     2287.670        0.627        0.548       30.434       30.364        0.995      339.211       12.390      860.160
04/18/2014  08:59:00       36.785       71.385       88.431       70.663       57.126       55.125     4993.226     3263.402     3038.764        1.278        0.565       80.305       50.242        0.391      339.103       12.207      860.160
04/18/2014  09:00:00       -2.252       37.848       73.958       31.219       58.673       40.857      974.610     3442.552     1669.265        0.650        0.304       37.915       33.574        0.784      339.332       12.593      860.138
04/18/2014  09:01:00       -2.541       30.031       61.656       64.729       52.148       47.234     4189.885     2719.372     2231.045        0.692        0.457       30.139       42.990        2.035      339.270       12.488      860.126
04/18/2014  09:02:00       17.012        3.596       24.811       43.487       47.966       20.408     1891.105     2300.739      416.473        0.276        0.230       17.388       16.089        0.856      339.275       12.497      860.122
04/18/2014  09:03:00        7.510      -88.354      -28.650       37.697       36.228       25.040     1421.071     1312.440      626.998        0.602        0.168       88.673       21.200        0.057      339.165       12.311      860.115
04/18/2014  09:04:00        1.224      -76.982        4.908       27.797       54.793       36.575      772.659     3002.258     1337.760        0.553        0.256       76.992       31.565        0.168      339.405       12.716      860.114
04/18/2014  09:05:00      -14.798       -2.687       47.427       20.197       32.877       20.788      407.915     1080.865      432.134        0.220        0.096       15.040       13.661        0.825      339.947       13.631      860.129
04/18/2014  09:06:00      -24.888       20.086       13.008       25.662       17.580       31.911      658.551      309.071     1018.284        0.159        0.099       31.982       20.688        0.418      339.647       13.125      860.141
04/18/2014  09:07:00      -34.076      -11.576        4.043       20.911       30.125       17.516      437.275      907.505      306.796        0.148        0.083       35.989        4.337        0.015      338.908       11.879      860.157
04/18/2014  09:08:00      -79.497       51.282      -26.649       26.349       47.801       23.520      694.248     2284.977      553.181        0.660        0.177       94.603       12.748        0.018      338.678       11.492      860.164
04/18/2014  09:09:00      -56.624      -30.248       -4.520       32.824       49.683       25.706     1077.433     2468.445      660.793        0.417        0.210       64.196       25.093        0.153      338.887       11.845      860.166
04/18/2014  09:10:00       23.029       41.806       23.887       47.276       52.624       34.478     2234.999     2769.335     1188.711        0.452        0.310       47.729       34.424        0.520      339.670       13.163      860.175
04/18/2014  09:11:00       38.494       36.922       59.700       58.406       63.138       38.733     3411.267     3986.377     1500.230        0.765        0.445       53.338       25.340        0.226      339.573       13.000      860.184
04/18/2014  09:12:00       41.845      -33.187       27.389       43.120       73.144       46.505     1859.375     5350.072     2162.715        0.649        0.469       53.407       38.199        0.512      339.092       12.189      860.191
04/18/2014  09:13:00       78.177       95.629       11.623       49.053       27.990       44.671     2406.222      783.464     1995.528        1.029        0.259      123.518       29.724        0.058      338.704       11.537      860.204
04/18/2014  09:14:00      -17.988       20.510        3.836       76.094       39.309       40.773     5790.228     1545.209     1662.413        0.488        0.450       27.281       39.208        2.066      339.014       12.059      860.197
04/18/2014  09:15:00       70.403     -108.030       -0.999       67.636       68.376       42.743     4574.651     4675.302     1826.948        1.385        0.554      128.946       43.201        0.112      339.094       12.192      860.215
04/18/2014  09:16:00       92.613      -93.589       -2.427       53.450       62.701       38.154     2856.927     3931.462     1455.705        1.279        0.412      131.666       31.675        0.058      338.781       11.664      860.237
04/18/2014  09:17:00        1.264      -14.203       20.073       22.579       46.439       39.390      509.827     2156.570     1551.578        0.241        0.211       14.259       21.674        2.311      339.152       12.289      860.226
04/18/2014  09:18:00       76.470       73.679       34.610       76.383       53.310       49.843     5834.333     2841.949     2484.359        1.182        0.558      106.190       41.603        0.153      338.950       11.951      860.211
04/18/2014  09:19:00      153.252      109.273       26.524       36.447       34.174       46.871     1328.383     1167.884     2196.847        2.041        0.235      188.220       19.896        0.011      338.803       11.701      860.200
04/18/2014  09:20:00       97.390       57.077        2.976       47.754       40.453       31.134     2280.439     1636.451      969.305        0.882        0.244      112.883       22.309        0.039      338.992       12.021      860.190
04/18/2014  09:21:00       -7.945      111.527       -1.247       47.909       63.717       44.548     2295.269     4059.894     1984.537        1.042        0.417      111.810       37.585        0.113      339.323       12.579      860.174
04/18/2014  09:22:00       11.765        9.819       43.000       29.147       21.685       29.920      849.542      470.260      895.187        0.215        0.111       15.324       13.665        0.795      339.931       13.604      860.155
04/18/2014  09:23:00       60.284        8.730       13.911       58.734       85.207       34.244     3449.686     7260.208     1172.676        0.789        0.594       60.913       12.233        0.040      339.449       12.789      860.154
04/18/2014  09:24:00       60.747      -83.368       23.758       87.514       99.524       65.103     7658.671     9904.934     4238.353        1.650        1.090      103.152       62.226        0.364      339.631       13.097      860.139
04/18/2014  09:25:00      131.296     -152.584       -2.609       64.478       87.784       36.817     4157.407     7706.006     1355.458        2.687        0.661      201.297       34.537        0.029      338.798       11.692      860.170
04/18/2014  09:26:00      -30.777      -40.238      -12.793       60.344       41.468       26.524     3641.432     1719.579      703.520        0.440        0.303       50.659       22.746        0.202      339.055       12.127      860.187
04/18/2014  09:27:00      -35.390      -37.539       12.467       41.983       33.922       35.055     1762.581     1150.702     1228.823        0.348        0.207       51.591       30.513        0.350      339.518       12.907      860.192
04/18/2014  09:28:00      -37.572       -2.807       13.454       29.217       37.869       24.415      853.660     1434.078      596.089        0.224        0.144       37.677       26.253        0.486      339.468       12.824      860.212
04/18/2014  09:29:00      -29.876      -10.402       12.046       23.227       41.742       30.316      539.492     1742.383      919.056        0.217        0.160       31.635       20.103        0.404      339.707       13.224      860.218
04/18/2014  09:30:00       43.607      -18.849       30.172       47.270       64.728       45.127     2234.458     4189.663     2036.455        0.581        0.423       47.507       44.264        0.868      339.735       13.274      860.231
04/18/2014  09:31:00       31.326      -19.240       19.115       38.513       74.767       43.339     1483.288     5590.043     1878.245        0.533        0.448       36.763       45.653        1.542      339.614       13.069      860.236
04/18/2014  09:32:00       94.646      -84.802       35.494       69.032       84.643       55.471     4765.427     7164.399     3077.017        1.620        0.750      127.080       51.682        0.165      339.184       12.342      860.219
04/18/2014  09:33:00       59.978       82.931       33.039       41.007       47.600       44.155     1681.584     2265.785     1949.672        0.873        0.295      102.347       22.588        0.049      339.361       12.642      860.217
04/18/2014  09:34:00       59.766       17.896       52.937       67.655      101.394       64.955     4577.258    10280.659     4219.128        1.288        0.954       62.387       59.157        0.899      339.616       13.072      860.224
04/18/2014  09:35:00       99.274        2.417       44.520       72.177       79.530       54.487     5209.456     6325.075     2968.833        1.317        0.725       99.303       48.441        0.238      339.397       12.702      860.230
04/18/2014  09:36:00       81.485     -102.170       16.399       67.332       63.333       48.299     4533.632     4011.058     2332.747        1.411        0.544      130.685       48.710        0.139      339.353       12.627      860.223
04/18/2014  09:37:00       70.323      -24.663       33.320       70.247       85.872       62.118     4934.699     7373.918     3858.627        1.141        0.808       74.523       64.675        0.753      339.637       13.108      860.210
04/18/2014  09:38:00       73.179       42.938       85.962       86.024       71.113       59.242     7400.105     5057.126     3509.612        1.527        0.798       84.846       48.618        0.328      339.695       13.206      860.198
04/18/2014  09:39:00       75.888       44.162       79.826       77.656       92.694       55.635     6030.386     8592.247     3095.273        1.590        0.886       87.803       49.254        0.315      339.716       13.239      860.184
04/18/2014  09:40:00      109.748      123.481      102.759       76.863       52.094       55.875     5907.848     2713.770     3121.987        2.480        0.587      165.204       46.181        0.078      339.123       12.240      860.192
04/18/2014  09:41:00      109.149       65.584       38.157       59.004       67.603       45.794     3481.433     4570.157     2097.083        1.391        0.507      127.338       29.027        0.052      339.293       12.526      860.192
04/18/2014  09:42:00       52.776       42.761       79.875       73.444       54.068       40.204     5394.090     2923.334     1616.343        1.046        0.497       67.925       39.749        0.342      339.720       13.247      860.182
04/18/2014  09:43:00      123.519      -71.640       12.158       79.153       77.745       60.547     6265.188     6044.284     3665.926        1.825        0.799      142.791       57.121        0.160      339.319       12.570      860.208
04/18/2014  09:44:00       94.968      -31.294       26.731       64.423       44.773       45.152     4150.330     2004.610     2038.665        0.945        0.410       99.991       32.240        0.104      339.122       12.240      860.239
04/18/2014  09:45:00       36.162     -112.282        3.982       35.775       36.433       35.537     1279.860     1327.330     1262.857        0.890        0.194      117.962       23.546        0.040      339.318       12.569      860.239
04/18/2014  09:46:00       18.902      -47.860        8.778       36.136       57.314       30.222     1305.802     3284.889      913.393        0.411        0.275       51.457       20.412        0.157      339.495       12.868      860.240
04/18/2014  09:47:00      -23.196        6.452       -2.791       23.459       20.535       24.332      550.326      421.676      592.054        0.108        0.078       24.077       14.580        0.367      339.304       12.546      860.250
04/18/2014  09:48:00      -13.953       14.921       33.538       31.127       23.254       17.521      968.898      540.769      306.983        0.168        0.091       20.429       10.974        0.289      340.130       13.939      860.238
04/18/2014  09:49:00      -23.722      -36.105       -5.578       33.347       41.213       18.345     1112.007     1698.522      336.522        0.252        0.157       43.201       10.777        0.062      339.229       12.418      860.246
04/18/2014  09:50:00      -23.129      -21.827       -6.362       35.969       32.617       23.028     1293.792     1063.858      530.287        0.197        0.144       31.802       16.345        0.264      339.514       12.900      860.237
04/18/2014  09:51:00       53.435       52.772       51.728       37.464       32.309       31.894     1403.540     1043.881     1017.252        0.589        0.173       75.101       17.151        0.052      339.415       12.734      860.227
04/18/2014  09:52:00       62.275       47.404        7.768       42.619       40.259       35.851     1816.350     1620.773     1285.316        0.545        0.236       78.265       20.680        0.070      339.252       12.458      860.226
04/18/2014  09:53:00       -0.911       32.535       22.113       29.493       28.949       27.234      869.824      838.033      741.714        0.200        0.122       32.548       18.325        0.317      339.930       13.602      860.213
04/18/2014  09:54:00      -50.316       18.649       10.492       39.980       22.229       26.693     1598.402      494.122      712.498        0.290        0.140       53.661       25.199        0.221      339.476       12.834      860.214
04/18/2014  09:55:00      -25.294        2.335        9.430       30.229       14.449       18.488      913.814      208.766      341.805        0.110        0.073       25.402       14.461        0.324      339.860       13.484      860.206
04/18/2014  09:56:00        1.180       13.649        8.776       15.492       24.017       19.323      239.993      576.822      373.372        0.073        0.060       13.700       13.494        0.970      340.379       14.358      860.209
04/18/2014  09:57:00       17.200       36.924       25.215       18.353       18.646       25.332      336.847      347.692      641.721        0.181        0.066       40.734       14.479        0.126      339.914       13.575      860.202
04/18/2014  09:58:00       20.281       48.552       19.696       40.602       27.352       29.270     1648.491      748.145      856.737        0.320        0.163       52.618       22.450        0.182      340.185       14.032      860.199
04/18/2014  09:59:00       27.569       29.530        6.956       28.643       32.769       33.162      820.431     1073.788     1099.698        0.234        0.150       40.399       20.330        0.253      340.069       13.835      860.205
04/18/2014  10:00:00       66.320       37.354       17.194       55.395       42.232       33.805     3068.590     1783.535     1142.796        0.604        0.300       76.116        4.088        0.003      339.967       13.663      860.201
04/18/2014  10:01:00       60.546       60.906       50.055       86.704       53.364       48.379     7517.555     2847.688     2340.566        1.129        0.635       85.880       21.016        0.060      339.763       13.319      860.190
04/18/2014  10:02:00      153.591      110.998       13.548       67.645       44.338       37.305     4575.829     1965.860     1391.672        2.201        0.397      189.501       13.348        0.005      339.427       12.750      860.186
04/18/2014  10:03:00      132.160       48.198       18.086       89.740      103.094       39.800     8053.245    10628.315     1584.012        2.019        1.013      140.675       54.650        0.151      339.242       12.439      860.179
04/18/2014  10:04:00       58.736      -10.626       26.960       76.059      107.351       47.449     5784.972    11524.176     2251.449        1.192        0.978       59.689       29.025        0.236      339.840       13.449      860.151
04/18/2014  10:05:00      130.451      105.464       21.481       46.245       36.022       40.980     2138.588     1297.557     1679.395        1.686        0.256      167.750       29.724        0.031      339.397       12.702      860.157
04/18/2014  10:06:00       84.331       81.952      -10.425       50.533       39.354       29.965     2553.572     1548.743      897.901        0.947        0.250      117.592       26.134        0.049      339.464       12.815      860.143
04/18/2014  10:07:00       19.316      107.377        0.918       47.643       60.488       36.859     2269.833     3658.771     1358.563        0.959        0.364      109.100       38.033        0.122      339.823       13.420      860.139
04/18/2014  10:08:00        3.977      107.992        0.539       40.784       74.430       38.151     1663.336     5539.833     1455.514        1.017        0.433      108.065       42.578        0.155      339.720       13.248      860.142
04/18/2014  10:09:00        5.385       10.879       27.193       33.703       26.098       25.921     1135.917      681.095      671.893        0.169        0.124       12.139       20.343        2.809      340.261       14.161      860.136
04/18/2014  10:10:00       57.132       48.679       21.421       39.682       40.371       24.669     1574.622     1629.780      608.558        0.495        0.191       75.058       18.687        0.062      340.328       14.273      860.140
04/18/2014  10:11:00       77.514       80.144       -3.373       48.270       33.914       46.079     2330.030     1150.136     2123.293        0.902        0.280      111.496       23.364        0.044      339.991       13.704      860.141
04/18/2014  10:12:00      126.521       92.946       18.503       69.442       71.239       43.730     4822.250     5074.954     1912.276        1.840        0.590      156.992       24.618        0.025      340.110       13.904      860.134
04/18/2014  10:13:00       69.062       94.242       69.024       61.012       48.108       42.940     3722.471     2314.378     1843.880        1.315        0.394      116.838       18.546        0.025      339.993       13.705      860.143
04/18/2014  10:14:00       27.690       46.023       46.219       54.337       57.330       38.273     2952.516     3286.685     1464.809        0.636        0.385       53.711       10.420        0.038      340.299       14.224      860.135
04/18/2014  10:15:00      164.185       94.576       -2.763       73.590       55.182       39.907     5415.438     3045.034     1592.565        2.298        0.503      189.476       29.839        0.025      339.817       13.409      860.123
04/18/2014  10:16:00       46.867       48.451        7.372       67.335       35.987       35.241     4534.038     1295.079     1241.898        0.583        0.354       67.409       19.150        0.081      340.102       13.891      860.118
04/18/2014  10:17:00       57.743       58.192       11.617       49.784       30.585       31.740     2478.466      935.429     1007.417        0.564        0.221       81.980        9.819        0.014      340.078       13.852      860.097
04/18/2014  10:18:00       57.459       73.188       10.739       60.714       89.008       38.029     3686.233     7922.430     1446.214        1.091        0.653       93.048       30.494        0.107      340.173       14.010      860.080
04/18/2014  10:19:00       51.572      127.819       -7.805       46.914       72.858       38.517     2200.947     5308.249     1483.533        1.402        0.450      137.831       41.547        0.091      339.951       13.635      860.075
04/18/2014  10:20:00       90.500       97.752        6.502       72.818       62.283       49.115     5302.411     3879.209     2412.256        1.469        0.580      133.213       28.132        0.045      339.875       13.508      860.077
04/18/2014  10:21:00       56.291       98.116       -9.033       47.852       77.171       50.706     2289.806     5955.365     2571.066        1.184        0.541      113.117       49.191        0.189      339.894       13.541      860.081
04/18/2014  10:22:00       86.569      101.524       -9.776       42.171       45.301       41.159     1778.369     2052.218     1694.068        1.171        0.276      133.421       27.108        0.041      339.742       13.284      860.091
04/18/2014  10:23:00      103.357       85.123       -5.714       52.563       45.212       36.707     2762.865     2044.142     1347.394        1.206        0.308      133.898       22.305        0.028      339.636       13.105      860.109
04/18/2014  10:24:00      -84.614      -15.867      -16.926       62.920       31.986       35.061     3958.947     1023.094     1229.273        0.695        0.311       86.089       22.583        0.069      339.573       12.999      860.097
04/18/2014  10:25:00      -43.656       74.021        4.399       46.033       60.454       35.670     2119.009     3654.730     1272.341        0.722        0.352       85.935       31.832        0.137      340.126       13.931      860.099
04/18/2014  10:26:00       45.151      196.166      -25.021       59.802       64.987       41.925     3576.299     4223.304     1757.742        2.535        0.478      201.295       32.704        0.026      339.894       13.538      860.109
04/18/2014  10:27:00       62.247       68.866       -7.451       62.387       35.386       35.382     3892.114     1252.135     1251.898        0.753        0.320       92.829       20.245        0.048      339.975       13.676      860.125
04/18/2014  10:28:00       34.727       35.024       11.851       38.568       44.201       33.280     1487.487     1953.761     1107.568        0.356        0.227       49.322       25.800        0.274      340.535       14.623      860.127
04/18/2014  10:29:00       72.345       89.503       77.981       75.643       59.440       61.063     5721.907     3533.130     3728.742        1.615        0.649      115.085       41.233        0.128      340.456       14.490      860.117
04/18/2014  10:30:00      159.326      102.988       -0.382       49.403       36.614       42.863     2440.610     1340.580     1837.197        2.080        0.281      189.714       16.306        0.007      339.861       13.482      860.130
04/18/2014  10:31:00       65.737       58.335       -2.099       39.199       41.143       29.819     1536.561     1692.726      889.150        0.592        0.206       87.888       13.370        0.023      340.165       13.999      860.123
04/18/2014  10:32:00       64.861       46.854        6.421       39.847       30.327       32.699     1587.769      919.746     1069.231        0.501        0.179       80.014       23.644        0.087      340.019       13.752      860.108
04/18/2014  10:33:00       20.652      -23.639       25.670       42.313       57.846       31.196     1790.422     3346.201      973.220        0.388        0.305       31.389       21.377        0.464      340.472       14.516      860.103
04/18/2014  10:34:00       38.009      -76.082       22.838       91.554       78.008       49.265     8382.156     6085.241     2427.030        1.232        0.845       85.048       51.850        0.372      340.577       14.692      860.092
04/18/2014  10:35:00       66.571       -3.350       66.334       68.716       69.218       68.284     4721.845     4791.066     4662.715        1.151        0.709       66.655       49.541        0.552      340.814       15.095      860.090
04/18/2014  10:36:00       58.902      -55.105       34.883       68.944       88.818       64.490     4753.318     7888.692     4159.015        1.226        0.840       80.659       57.209        0.503      340.625       14.775      860.107
04/18/2014  10:37:00       51.360      -88.382       16.533       48.546       87.218       53.239     2356.727     7606.954     2834.381        1.176        0.640      102.222       55.919        0.299      340.483       14.535      860.124
04/18/2014  10:38:00       62.534      -13.087       26.816       45.030       40.729       29.336     2027.729     1658.834      860.590        0.467        0.227       63.889       24.168        0.143      340.256       14.152      860.114
04/18/2014  10:39:00       41.147      -51.767        9.538       52.667       65.697       46.295     2773.762     4316.035     2143.265        0.685        0.462       66.128       20.212        0.093      340.633       14.790      860.105
04/18/2014  10:40:00        4.697      -75.224       31.571       47.584       77.308       44.304     2264.284     5976.471     1962.841        0.844        0.510       75.370       47.608        0.399      340.794       15.060      860.087
04/18/2014  10:41:00       17.465     -145.132       -0.799       51.635       58.106       39.225     2666.168     3376.329     1538.639        1.447        0.379      146.179       32.250        0.049      340.388       14.375      860.092
04/18/2014  10:42:00       51.223      -12.065       48.588       52.741       58.537       45.602     2781.620     3426.589     2079.509        0.671        0.414       52.625       42.872        0.664      340.344       14.300      860.077
04/18/2014  10:43:00       31.015       48.740       17.234       26.206       32.581       25.553      686.777     1061.525      652.937        0.302        0.120       57.771        9.905        0.029      340.230       14.108      860.070
04/18/2014  10:44:00       21.345       33.819       15.622       23.887       42.889       31.778      570.593     1839.440     1009.839        0.263        0.171       39.992       26.051        0.424      340.464       14.503      860.043
04/18/2014  10:45:00      -19.502       32.528        7.089       46.675       41.137       29.936     2178.544     1692.287      896.143        0.313        0.238       37.927       33.206        0.767      340.428       14.442      860.040
04/18/2014  10:46:00       -9.758       27.976      -20.434       47.232       37.807       23.619     2230.852     1429.364      557.850        0.276        0.211       29.629       12.957        0.191      340.295       14.217      860.019
04/18/2014  10:47:00       23.926       70.801       22.984       59.422       39.676       45.088     3530.995     1574.197     2032.953        0.662        0.357       74.734       34.301        0.211      340.893       15.229      860.032
04/18/2014  10:48:00       39.235       32.896       33.799       36.788       43.076       27.699     1353.366     1855.533      767.255        0.387        0.199       51.201       15.322        0.090      340.956       15.335      860.026
04/18/2014  10:49:00       -0.512       54.189       13.961       25.710       42.580       29.929      660.996     1813.031      895.767        0.325        0.168       54.191       22.116        0.167      341.123       15.619      860.035
04/18/2014  10:50:00      136.713       70.647       25.629      120.403       64.095       38.573    14496.984     4108.232     1487.852        2.221        1.005      153.888       29.283        0.036      340.927       15.287      860.030
04/18/2014  10:51:00      203.333      122.611       25.242      103.989       77.116       64.159    10813.801     5946.815     4116.345        3.894        1.044      237.441       41.180        0.030      340.700       14.898      860.025
04/18/2014  10:52:00       32.084       71.043      114.934       61.896       86.615       59.583     3831.083     7502.229     3550.150        1.708        0.744       77.952       57.206        0.539      340.944       15.313      860.017
04/18/2014  10:53:00      172.542      109.106       46.990      100.011       89.602       64.402    10002.155     8028.605     4147.652        3.303        1.109      204.144       53.233        0.068      340.426       14.436      860.024
04/18/2014  10:54:00      213.890      166.080       35.342       68.595       61.529       45.152     4705.300     3785.786     2038.746        4.255        0.526      270.798       30.015        0.012      340.261       14.155      860.024
04/18/2014  10:55:00       66.070       13.056       11.832       76.204       60.932       41.188     5807.036     3712.691     1696.420        0.794        0.561       67.348       28.278        0.176      340.707       14.914      860.025
04/18/2014  10:56:00       82.084      -48.702       34.787       70.053      117.751       67.399     4907.360    13865.355     4542.644        1.681        1.166       95.445       57.586        0.364      340.845       15.147      859.999
04/18/2014  10:57:00      177.016      108.495       50.134      106.653       63.467       69.410    11374.804     4028.116     4817.769        3.292        1.011      207.619       52.815        0.065      340.704       14.906      859.992
04/18/2014  10:58:00       35.077       37.979       91.527       67.236       76.304       50.206     4520.616     5822.255     2520.623        1.195        0.643       51.699       41.759        0.652      341.053       15.499      859.989
04/18/2014  10:59:00       80.057       43.566       54.057       71.712       94.120       44.406     5142.610     8858.634     1971.909        1.360        0.799       91.143       55.427        0.370      340.160       13.987      859.992
04/18/2014  11:00:00       19.996       49.238       13.438       41.206       58.451       34.740     1697.897     3416.561     1206.881        0.466        0.316       53.143       18.384        0.120      340.524       14.604      859.992
04/18/2014  11:01:00       96.006       83.789       -3.483       87.367       57.664       37.686     7632.910     3325.157     1420.266        1.431        0.619      127.427       14.064        0.012      340.717       14.929      859.970
04/18/2014  11:02:00       48.133       58.952       71.972       66.184       54.169       56.383     4380.276     2934.249     3179.047        1.073        0.525       76.106       36.754        0.233      341.056       15.505      859.964
04/18/2014  11:03:00      -19.450      -14.732       35.401       43.180       34.605       22.960     1864.502     1197.474      527.171        0.272        0.179       24.400       13.089        0.288      340.829       15.119      859.941
04/18/2014  11:04:00       82.953       59.306       24.032       38.430       26.740       30.471     1476.883      715.049      928.456        0.705        0.156      101.973       18.760        0.034      340.610       14.749      859.926
04/18/2014  11:05:00      123.193       98.038       23.661       78.795       59.941       46.269     6208.611     3592.905     2140.845        1.864        0.597      157.442       17.338        0.012      340.704       14.906      859.900
04/18/2014  11:06:00       42.423       40.991        4.374       55.949       48.442       32.295     3130.275     2346.655     1042.939        0.501        0.326       58.991       18.108        0.094      341.299       15.916      859.883
04/18/2014  11:07:00      129.246       86.716        7.216       68.031       65.400       48.001     4628.187     4277.118     2304.137        1.774        0.560      155.641       33.101        0.045      340.825       15.113      859.879
04/18/2014  11:08:00       91.896      222.273      -37.168       55.076       69.735       44.492     3033.405     4862.992     1979.549        3.455        0.494      240.521       38.970        0.026      340.279       14.184      859.859
04/18/2014  11:09:00       -3.170       85.148      -26.322       41.731       40.201       15.071     1741.504     1616.081      227.137        0.577        0.179       85.207       14.794        0.030      340.148       13.969      859.839
04/18/2014  11:10:00        7.815       45.204       11.512       48.586       38.071       32.547     2360.615     1449.409     1059.315        0.355        0.243       45.874       30.379        0.439      340.780       15.038      859.805
04/18/2014  11:11:00       96.417       54.868       11.854       53.693       45.756       37.945     2882.952     2093.581     1439.802        0.943        0.321      110.936       32.990        0.088      340.977       15.371      859.777
04/18/2014  11:12:00       56.109       97.155        2.891       58.040       70.933       49.156     3368.651     5031.423     2416.282        1.170        0.541      112.193       48.895        0.190      340.757       14.998      859.760
04/18/2014  11:13:00       70.524       99.136       -5.282       82.713       57.334       43.609     6841.418     3287.234     1901.731        1.343        0.602      121.662       30.152        0.061      340.751       14.987      859.727
04/18/2014  11:14:00       40.276        0.820        9.701       82.547       84.462       60.921     6814.070     7133.807     3711.315        0.968        0.883       40.285       49.714        1.523      340.973       15.364      859.683
04/18/2014  11:15:00       26.520       35.548       42.261       96.502       79.182       49.516     9312.580     6269.849     2451.828        1.089        0.902       44.351       38.019        0.735      341.114       15.601      859.678
04/18/2014  11:16:00      180.611      142.912       30.629      118.066       78.070       71.904    13939.676     6094.915     5170.212        3.959        1.260      230.313       36.713        0.025      340.862       15.173      859.669
04/18/2014  11:17:00       84.974      149.067        2.996       86.204       59.425       61.879     7431.201     3531.320     3829.040        2.212        0.740      171.585       40.459        0.056      340.448       14.474      859.673
04/18/2014  11:18:00      105.626      109.269       28.704       53.089       48.303       41.819     2818.406     2333.167     1748.852        1.541        0.345      151.976       28.892        0.036      340.734       14.959      859.663
04/18/2014  11:19:00       77.450      115.134      110.065       91.715      103.943       64.262     8411.642    10804.126     4129.608        2.735        1.167      138.760       49.977        0.130      341.097       15.572      859.653
04/18/2014  11:20:00       25.981       -4.052       67.788       56.893       92.958       50.761     3236.812     8641.223     2576.630        0.987        0.723       26.295       51.311        3.808      341.167       15.692      859.661
04/18/2014  11:21:00      132.949      103.027       22.551       84.830       78.631       59.640     7196.048     6182.787     3556.969        2.286        0.847      168.196       47.274        0.079      340.818       15.098      859.654
04/18/2014  11:22:00      159.059      108.242       22.385       90.350       92.350       56.380     8163.135     8528.485     3178.739        2.869        0.994      192.396       21.896        0.013      340.936       15.298      859.666
04/18/2014  11:23:00       20.834      122.530       -7.975       53.651       82.543       43.631     2878.474     6813.293     1903.695        1.355        0.580      124.289       28.517        0.053      341.058       15.506      859.645
04/18/2014  11:24:00       43.892       44.294       17.961       59.211       46.752       37.932     3505.946     2185.786     1438.801        0.567        0.357       62.357       27.551        0.195      341.456       16.182      859.630
04/18/2014  11:25:00      126.496       84.612       12.108       62.779       40.528       38.650     3941.145     1642.491     1493.813        1.519        0.354      152.185       28.777        0.036      340.739       14.967      859.620
04/18/2014  11:26:00      120.100       86.584       14.891       53.515       40.660       40.900     2863.896     1653.257     1672.827        1.417        0.309      148.057       18.357        0.015      340.774       15.025      859.596
04/18/2014  11:27:00      129.573      115.540       43.601       74.041       33.551       45.904     5482.022     1125.650     2107.207        2.038        0.436      173.605       40.630        0.055      340.824       15.111      859.577
04/18/2014  11:28:00       -1.706      -34.740       45.147       43.832       72.293       46.292     1921.211     5226.320     2142.982        0.627        0.465       34.782       44.183        1.614      341.712       16.616      859.558
04/18/2014  11:29:00       -0.838      -29.931       28.815       68.297       65.686       48.433     4664.421     4314.674     2345.750        0.652        0.566       29.943       44.081        2.167      341.671       16.547      859.562
04/18/2014  11:30:00       35.577      -38.605       17.003       66.952      118.230       57.892     4482.521    13978.280     3351.473        1.242        1.091       52.498       42.200        0.646      341.584       16.398      859.554
04/18/2014  11:31:00       35.770      -41.772        9.161       73.042      104.261       74.885     5335.176    10870.263     5607.731        1.246        1.091       54.994       45.578        0.687      341.568       16.371      859.537
04/18/2014  11:32:00       26.008     -141.015       10.741       60.173      130.654       50.461     3620.732    17070.560     2546.323        2.195        1.162      143.393       52.028        0.132      341.177       15.708      859.543
04/18/2014  11:33:00      -31.666       47.679      -32.660       54.357       39.547       30.992     2954.662     1563.981      960.500        0.491        0.274       57.237       21.529        0.141      340.713       14.923      859.535
04/18/2014  11:34:00      -61.572       54.345       -9.901       50.027       69.202       32.114     2502.691     4788.970     1031.312        0.758        0.416       82.125       28.478        0.120      341.037       15.472      859.513
04/18/2014  11:35:00       54.711      102.405        4.336       74.496       45.871       35.353     5549.704     2104.141     1249.865        1.120        0.445      116.104       20.361        0.031      341.568       16.371      859.498
04/18/2014  11:36:00      -21.225      -13.898        7.382       33.301       37.227       31.394     1108.961     1385.861      985.577        0.209        0.174       25.371       22.959        0.819      341.867       16.878      859.486
04/18/2014  11:37:00      -40.998      -24.065        3.921       52.830       34.442       30.738     2791.036     1186.226      944.812        0.360        0.246       47.539       29.089        0.374      341.403       16.093      859.474
04/18/2014  11:38:00      -35.626       27.116       29.020       71.087       45.826       35.019     5053.426     2100.061     1226.305        0.561        0.419       44.772       26.361        0.347      341.594       16.415      859.458
04/18/2014  11:39:00       -3.435       33.522       23.154       64.262       53.513       47.276     4129.565     2863.682     2234.996        0.545        0.461       33.698       28.388        0.710      341.957       17.031      859.425
04/18/2014  11:40:00      -15.407      -28.967       12.211       81.362       82.403       52.388     6619.776     6790.320     2744.519        0.869        0.808       32.810       42.915        1.711      342.125       17.318      859.389
04/18/2014  11:41:00       91.877      -58.963      -11.241       73.354      159.862       36.543     5380.879    25555.821     1335.367        2.215        1.614      109.170       48.095        0.194      341.767       16.706      859.400
04/18/2014  11:42:00       78.495      -86.468       22.653       61.591       94.081       45.463     3793.424     8851.173     2066.925        1.443        0.736      116.783       46.273        0.157      341.526       16.299      859.393
04/18/2014  11:43:00       92.539      -81.184       20.209       69.366       86.975       53.241     4811.625     7564.665     2834.640        1.538        0.761      123.103       55.975        0.207      341.826       16.808      859.387
04/18/2014  11:44:00       23.343       -9.410       69.757       40.721       54.624       36.155     1658.218     2983.826     1307.189        0.572        0.297       25.169       14.681        0.340      342.110       17.291      859.380
04/18/2014  11:45:00       45.050       83.642       23.719       76.111       53.096       40.447     5792.950     2819.187     1635.956        0.992        0.512       95.002       36.111        0.144      341.627       16.471      859.365
04/18/2014  11:46:00       82.155       90.859       23.983       90.205       47.745       41.624     8136.983     2279.543     1732.522        1.386        0.607      122.494       33.853        0.076      341.696       16.588      859.366
04/18/2014  11:47:00       84.344      107.625       15.377       94.506       80.679       54.487     8931.464     6509.145     2968.879        1.867        0.920      136.737       53.660        0.154      341.501       16.255      859.352
04/18/2014  11:48:00       83.731       67.548        9.324       48.792       43.230       42.453     2380.626     1868.806     1802.281        0.885        0.303      107.581       24.428        0.052      341.271       15.869      859.332
04/18/2014  11:49:00       65.742       81.902       -1.869       64.864       67.709       46.244     4207.350     4584.552     2138.541        1.098        0.547      105.023       30.675        0.085      341.556       16.350      859.318
04/18/2014  11:50:00      176.272      117.300       15.652       94.161       57.790       46.548     8866.209     3339.717     2166.717        2.972        0.719      211.734       24.223        0.013      341.289       15.897      859.301
04/18/2014  11:51:00      129.671      120.997       12.885       70.852       58.020       54.712     5019.990     3366.280     2993.364        2.150        0.569      177.355       26.272        0.022      341.128       15.625      859.275
04/18/2014  11:52:00      110.723      -15.869       39.867       70.907      120.772       58.405     5027.799    14585.937     3411.173        1.856        1.151      111.854       64.159        0.329      341.460       16.187      859.261
04/18/2014  11:53:00       91.857      117.810      123.128      109.155       76.881       75.084    11914.871     5910.648     5637.635        3.047        1.173      149.389       73.874        0.245      341.770       16.712      859.217
04/18/2014  11:54:00       81.339       79.455       37.284       70.266       51.278       41.854     4937.320     2629.467     1751.738        1.182        0.466      113.706       29.331        0.067      341.703       16.601      859.227
04/18/2014  11:55:00      180.027      104.590       41.500       80.212       57.668       57.340     6433.986     3325.557     3287.868        2.906        0.652      208.204       34.781        0.028      341.487       16.232      859.212
04/18/2014  11:56:00       90.496      -36.953       26.054      111.132      163.097       74.081    12350.244    26600.739     5487.997        2.733        2.222       97.749       95.530        0.955      341.794       16.752      859.194
04/18/2014  11:57:00      118.646     -127.991       -5.399      103.355       82.192       49.483    10682.292     6755.606     2448.615        2.518        0.994      174.524       36.007        0.043      341.133       15.631      859.213
04/18/2014  11:58:00       74.492      -68.503       36.905       56.985       90.148       46.484     3247.247     8126.697     2160.724        1.257        0.677      101.202       54.487        0.290      341.294       15.905      859.214
04/18/2014  11:59:00       19.824      -38.996        7.461       45.477       64.881       45.873     2068.198     4209.495     2104.354        0.517        0.419       43.745       26.139        0.357      341.594       16.415      859.170
04/18/2014  12:00:00        1.403      -20.766       21.461       54.040       39.194       32.196     2920.352     1536.197     1036.585        0.319        0.275       20.814       32.590        2.452      341.767       16.710      859.147
04/18/2014  12:01:00       32.400        0.799       13.521       51.853       66.702       45.837     2688.695     4449.169     2100.991        0.523        0.462       32.410       23.744        0.537      341.525       16.298      859.140
04/18/2014  12:02:00      -60.096       -4.163      -26.547       54.907       39.023       23.997     3014.746     1522.788      575.875        0.472        0.256       60.240       23.599        0.153      341.159       15.679      859.120
04/18/2014  12:03:00      -27.004       21.998       32.629       81.005       52.856       54.112     6561.730     2793.792     2928.075        0.728        0.614       34.831       54.384        2.438      341.747       16.675      859.120
04/18/2014  12:04:00       68.442       90.545       83.004       82.253       87.192       44.176     6765.618     7602.526     1951.515        1.804        0.816      113.501       28.149        0.062      341.669       16.543      859.108
04/18/2014  12:05:00       84.151       72.527       54.574       57.960       49.365       40.326     3359.408     2436.871     1626.189        1.137        0.371      111.093       30.693        0.076      341.708       16.609      859.088
04/18/2014  12:06:00       30.772      -25.500       41.509      122.824      130.114       66.449    15085.663    16929.673     4415.423        1.987        1.822       39.964       59.329        2.204      342.028       17.149      859.088
04/18/2014  12:07:00      105.965      -49.671       23.077       67.736       68.004       40.700     4588.151     4624.549     1656.472        1.255        0.543      117.029       41.391        0.125      341.646       16.502      859.113
04/18/2014  12:08:00       41.163     -130.155       -7.873       66.575      113.037       46.966     4432.172    12777.371     2205.848        1.905        0.971      136.509       32.106        0.055      341.489       16.235      859.084
04/18/2014  12:09:00      110.142       -8.956       40.645       65.048      144.295       69.396     4231.196    20820.936     4815.846        2.186        1.493      110.506       84.477        0.584      341.748       16.676      859.066
04/18/2014  12:10:00       59.555       54.902       43.032       59.754       44.313       41.345     3570.497     1963.620     1709.439        0.783        0.362       81.000       28.881        0.127      341.657       16.522      859.053
04/18/2014  12:11:00      -12.196      -43.129       26.418       51.312       57.533       43.712     2632.960     3310.010     1910.779        0.528        0.393       44.820       35.230        0.618      342.061       17.208      859.028
04/18/2014  12:12:00       54.597      -70.929        4.283       80.626       73.807       61.143     6500.554     5447.419     3738.465        1.186        0.784       89.508       49.553        0.306      342.023       17.142      859.016
04/18/2014  12:13:00       -1.408     -123.940        0.945       87.425       58.540       57.059     7643.160     3426.960     3255.755        1.484        0.716      123.948       29.854        0.058      341.884       16.907      859.001
04/18/2014  12:14:00      -78.794     -129.725       -2.229       60.745       65.460       38.479     3690.013     4284.989     1480.664        1.625        0.473      151.779       31.558        0.043      341.688       16.574      858.980
04/18/2014  12:15:00      -87.969        1.586       -4.565       52.966       40.214       29.139     2805.376     1617.158      849.095        0.652        0.264       87.983       28.706        0.106      341.875       16.892      858.965
04/18/2014  12:16:00      -79.698       12.938       -3.466       46.364       42.029       27.907     2149.642     1766.470      778.803        0.561        0.235       80.741       21.028        0.068      341.869       16.881      858.967
04/18/2014  12:17:00     -128.550       17.579       -8.017       48.007       35.964       27.166     2304.670     1293.404      737.981        1.062        0.217      129.747       20.830        0.026      341.310       15.934      858.954
04/18/2014  12:18:00      -59.651       14.867       -0.679       24.026       21.750       27.794      577.234      473.080      772.528        0.280        0.091       61.476       14.073        0.052      341.432       16.140      858.958
04/18/2014  12:19:00      -12.723       -2.494       20.229       25.103       18.083       17.214      630.143      326.988      296.314        0.092        0.063       12.965       11.804        0.829      342.518       17.984      858.959
04/18/2014  12:20:00       -9.100       -0.972        8.314       21.219       17.699       22.268      450.246      313.267      495.855        0.071        0.063        9.152       15.724        2.952      342.562       18.058      858.954
04/18/2014  12:21:00       79.258       56.754       20.721       63.484       53.807       49.952     4030.258     2895.146     2495.236        0.967        0.471       97.483       34.356        0.124      342.229       17.492      858.949
04/18/2014  12:22:00       44.347      -81.252       -1.373       50.284       91.666       42.072     2528.465     8402.630     1770.036        1.063        0.635       92.567       15.445        0.028      341.854       16.855      858.958
04/18/2014  12:23:00      113.892       96.921       51.006       94.498       60.666       53.879     8929.807     3680.391     2902.979        2.024        0.776      149.550       45.280        0.092      341.961       17.036      858.940
04/18/2014  12:24:00      195.791      122.637       20.407       67.998       50.869       54.955     4623.764     2587.623     3020.031        3.201        0.512      231.028       30.256        0.017      341.494       16.243      858.940
04/18/2014  12:25:00      148.533       79.561       20.217       55.251       49.566       36.230     3052.644     2456.796     1312.615        1.781        0.341      168.499       23.007        0.019      342.013       17.125      858.923
04/18/2014  12:26:00       -8.395       84.823        5.651       56.004       66.245       39.569     3136.435     4388.415     1565.670        0.819        0.455       85.237       27.627        0.105      342.761       18.398      858.902
04/18/2014  12:27:00       38.444       23.530       43.086       47.957       97.813       51.537     2299.889     9567.476     2656.046        0.920        0.726       45.074       59.489        1.742      342.692       18.281      858.873
04/18/2014  12:28:00      218.854      106.151       34.487      118.925       85.004       70.299    14143.127     7225.651     4942.006        4.333        1.316      243.239       53.446        0.048      342.289       17.592      858.855
04/18/2014  12:29:00      245.648      186.313       21.437      114.724       81.171       74.277    13161.510     6588.789     5517.135        6.039        1.263      308.311       34.818        0.013      341.609       16.436      858.837
04/18/2014  12:30:00      249.084      167.787       33.399      117.707       84.627       71.879    13855.022     7161.675     5166.560        5.874        1.309      300.325       45.590        0.023      341.924       16.972      858.826
04/18/2014  12:31:00      109.729      113.070       99.948      111.837       88.320       87.008    12507.429     7800.380     7570.369        3.134        1.394      157.560       81.294        0.266      342.713       18.314      858.815
04/18/2014  12:32:00       16.745      -58.654       29.501       55.669      111.950       71.560     3099.057    12532.742     5120.799        1.267        1.038       60.997       79.864        1.714      342.282       17.581      858.829
04/18/2014  12:33:00      -12.497       19.803       12.912       38.926      108.176       31.863     1515.230    11702.070     1015.271        0.747        0.712       23.417       30.730        1.722      342.103       17.277      858.815
04/18/2014  12:34:00       84.645       65.812        6.342       68.173       58.958       43.078     4647.538     3476.001     1855.746        1.076        0.499      107.219       31.335        0.085      342.401       17.783      858.787
04/18/2014  12:35:00      -11.207      169.070      -12.045       35.483       55.151       30.301     1259.029     3041.637      918.171        1.704        0.261      169.441       21.619        0.016      341.768       16.709      858.785
04/18/2014  12:36:00       -0.931       69.245       14.091       36.306       45.142       36.396     1318.142     2037.845     1324.647        0.484        0.234       69.251       30.952        0.200      342.670       18.244      858.771
04/18/2014  12:37:00       27.660       -1.150       24.797       51.218       47.494       38.875     2623.323     2255.642     1511.291        0.388        0.320       27.683       19.159        0.479      342.721       18.330      858.759
04/18/2014  12:38:00       39.286       61.500       77.602       49.594       63.789       42.990     2459.546     4068.997     1848.105        0.986        0.419       72.977       27.713        0.144      342.499       17.953      858.747
04/18/2014  12:39:00       45.034      -73.122       32.975       81.414       70.232       51.443     6628.174     4932.495     2646.332        1.133        0.710       85.877       40.445        0.222      342.700       18.292      858.736
04/18/2014  12:40:00       27.333       14.682       39.168       56.344       60.839       40.977     3174.682     3701.438     1679.141        0.552        0.428       31.026       42.902        1.912      342.753       18.384      858.741
04/18/2014  12:41:00       82.783       -1.395        7.557       57.218       78.818       48.637     3273.927     6212.271     2365.568        0.938        0.593       82.795       32.918        0.158      341.888       16.913      858.743
04/18/2014  12:42:00      -18.069      -18.326       19.399       53.295       63.876       38.829     2840.327     4080.160     1507.686        0.473        0.421       25.736        9.480        0.136      342.162       17.379      858.699
04/18/2014  12:43:00       38.369       61.794      100.493       93.374       84.553       66.393     8718.751     7149.275     4408.031        1.783        1.014       72.737       49.338        0.460      342.545       18.029      858.685
04/18/2014  12:44:00       62.806       26.414       61.227       91.121       73.899       56.232     8303.121     5461.032     3162.026        1.266        0.846       68.135       56.774        0.694      342.582       18.092      858.708
04/18/2014  12:45:00        3.985       32.688        8.717       23.569       35.773       35.804      555.495     1279.709     1281.918        0.214        0.156       32.930       17.825        0.293      342.098       17.272      858.710
04/18/2014  12:46:00       36.126       15.273        2.684       30.008       40.570       24.047      900.495     1645.940      578.269        0.233        0.156       39.222       18.646        0.226      342.349       17.696      858.687
04/18/2014  12:47:00       39.245       79.832        6.609       43.820       58.272       36.789     1920.172     3395.570     1353.429        0.731        0.333       88.957       35.702        0.161      342.461       17.888      858.664
04/18/2014  12:48:00       33.774       74.424       -3.326       35.652       46.782       34.544     1271.072     2188.540     1193.311        0.567        0.233       81.729       34.594        0.179      342.197       17.438      858.642
04/18/2014  12:49:00        2.085      105.650       -1.940       31.844       66.589       36.563     1014.031     4434.156     1336.864        0.898        0.339      105.671       31.976        0.092      342.353       17.704      858.628
04/18/2014  12:50:00       34.734       45.066       15.721       50.723       43.249       37.861     2572.822     1870.433     1433.461        0.468        0.294       56.898       22.641        0.158      342.630       18.175      858.609
04/18/2014  12:51:00       52.551       54.757       -6.072       48.433       48.159       35.782     2345.772     2319.326     1280.333        0.587        0.297       75.894       23.867        0.099      342.259       17.544      858.584
04/18/2014  12:52:00       39.895       21.830       18.949       18.277       18.129       24.655      334.064      328.657      607.882        0.185        0.064       45.477       15.473        0.116      342.190       17.427      858.567
04/18/2014  12:53:00       24.456       21.529        7.458       36.766       20.136       36.112     1351.715      405.468     1304.087        0.209        0.153       32.582       22.322        0.469      342.558       18.052      858.548
04/18/2014  12:54:00       -7.801       47.202       19.983       44.991       49.129       29.668     2024.183     2413.622      880.167        0.400        0.266       47.842       13.980        0.085      342.849       18.547      858.534
04/18/2014  12:55:00      -53.233       -8.777       10.034       35.308       33.190       23.870     1246.685     1101.602      569.774        0.296        0.146       53.952        9.544        0.031      343.050       18.890      858.516
04/18/2014  12:56:00      -57.534      -47.722       17.976      107.221       43.233       43.057    11496.364     1869.114     1853.928        1.056        0.761       74.750       52.184        0.487      342.844       18.539      858.487
04/18/2014  12:57:00     -182.700      -71.192      -29.077       37.320       42.952       24.254     1392.777     1844.898      588.234        2.156        0.191      196.081       17.145        0.008      341.719       16.626      858.475
04/18/2014  12:58:00     -150.157      -17.712      -12.111       50.967       44.503       34.894     2597.673     1980.522     1217.580        1.440        0.290      151.198       31.683        0.044      342.088       17.255      858.439
04/18/2014  12:59:00      -84.654     -123.363       -4.838       67.860       72.758       33.463     4604.977     5293.715     1119.803        1.671        0.551      149.615       35.262        0.056      342.261       17.545      858.425
04/18/2014  13:00:00      -12.372     -109.890       10.022       37.353       56.621       27.207     1395.278     3205.931      740.214        0.883        0.267      110.585       18.448        0.028      342.198       17.441      858.398
04/18/2014  13:01:00      -23.529      -14.061       21.241       51.062       36.662       30.313     2607.340     1344.101      918.873        0.304        0.244       27.410       29.788        1.181      343.179       19.109      858.371
04/18/2014  13:02:00       -8.124      -96.335      -11.154       51.759       47.135       26.718     2678.980     2221.732      713.850        0.754        0.281       96.677        8.902        0.008      342.395       17.774      858.364
04/18/2014  13:03:00      -20.785      -35.113       17.164       36.265       45.111       32.779     1315.183     2035.014     1074.439        0.319        0.221       40.803       26.246        0.414      342.825       18.506      858.366
04/18/2014  13:04:00     -100.499      -67.829      -18.043       59.096       44.399       22.540     3492.290     1971.236      508.048        1.050        0.299      121.246       16.258        0.018      342.825       18.506      858.344
04/18/2014  13:05:00      -49.463       -1.354        9.148       43.750       38.738       27.816     1914.032     1500.651      773.706        0.336        0.209       49.481       18.159        0.135      343.014       18.829      858.347
04/18/2014  13:06:00       23.898       -9.418        5.855       60.424       80.692       45.664     3651.013     6511.217     2085.244        0.647        0.612       25.687       34.938        1.850      342.801       18.465      858.339
04/18/2014  13:07:00       15.529      -14.674       47.501       53.155       89.434       43.344     2825.453     7998.384     1878.659        0.771        0.635       21.366       45.558        4.547      343.218       19.176      858.324
04/18/2014  13:08:00       95.913      -11.780       30.670       94.547      125.964       54.705     8939.132    15867.046     2992.676        1.903        1.390       96.634       33.429        0.120      342.983       18.774      858.305
04/18/2014  13:09:00      230.527      124.668       58.284      122.853       85.402       82.466    15092.767     7293.457     6800.606        5.063        1.459      262.078       56.210        0.046      342.468       17.897      858.275
04/18/2014  13:10:00      184.329      107.245       12.580      111.921       68.612       52.747    12526.253     4707.539     2782.298        3.282        1.001      213.258       41.161        0.037      342.802       18.464      858.265
04/18/2014  13:11:00      172.002       98.678       27.647      142.245       89.556       62.402    20233.507     8020.276     3893.968        3.611        1.607      198.298       34.423        0.030      343.037       18.865      858.254
04/18/2014  13:12:00      177.471       91.536       14.891      148.607       82.141       72.098    22084.012     6747.174     5198.066        3.706        1.701      199.686       50.663        0.064      342.517       17.980      858.242
04/18/2014  13:13:00      170.964      153.403       12.236      150.583       95.558       74.978    22675.097     9131.341     5621.757        4.516        1.871      229.698       48.347        0.044      342.696       18.283      858.218
04/18/2014  13:14:00      210.464      140.520       92.839      128.384       76.897      107.438    16482.407     5913.153    11542.959        5.329        1.697      253.063       41.550        0.027      342.688       18.270      858.218
04/18/2014  13:15:00      261.779      171.888       31.216      124.250       70.918       88.810    15437.988     5029.356     7887.269        6.370        1.418      313.168       56.316        0.032      342.562       18.057      858.210
04/18/2014  13:16:00      242.754      132.440       13.043      100.781       93.986       69.804    10156.870     8833.282     4872.580        5.025        1.193      276.532       53.295        0.037      342.440       17.847      858.221
04/18/2014  13:17:00      152.527      107.343       25.738       76.882       64.577       50.667     5910.881     4170.233     2567.193        2.405        0.632      186.513       39.794        0.046      342.665       18.232      858.213
04/18/2014  13:18:00      101.625       88.006       19.134       68.590       48.723       42.610     4704.593     2373.955     1815.646        1.366        0.445      134.435       27.762        0.043      342.309       17.628      858.209
04/18/2014  13:19:00       33.866       82.111        3.744       42.187       43.303       30.119     1779.783     1875.126      907.147        0.623        0.228       88.821       27.040        0.093      342.499       17.951      858.194
04/18/2014  13:20:00       49.634       95.659       -6.234       51.091       62.612       42.519     2610.328     3920.215     1807.843        0.999        0.417      107.769       30.325        0.079      342.560       18.055      858.165
04/18/2014  13:21:00        4.987       44.393        5.170       35.822       35.859       24.811     1283.243     1285.850      615.577        0.260        0.159       44.673       20.869        0.218      342.796       18.456      858.155
04/18/2014  13:22:00       91.545       57.933       30.356       60.735       49.703       56.508     3688.710     2470.390     3193.190        1.100        0.468      108.337       24.927        0.053      342.957       18.731      858.137
04/18/2014  13:23:00      138.129      118.164       81.662      107.702       74.742       80.395    11599.736     5586.354     6463.289        3.168        1.182      181.776       62.037        0.116      342.688       18.270      858.102
04/18/2014  13:24:00      116.327      -15.081       48.930       89.458      108.423       62.695     8002.703    11755.469     3930.682        1.992        1.184      117.301       58.126        0.246      342.912       18.653      858.079
04/18/2014  13:25:00      182.871       59.689       61.417      126.936       70.096       65.560    16112.869     4913.465     4298.171        3.305        1.266      192.366       48.414        0.063      343.214       19.164      858.077
04/18/2014  13:26:00      132.266      145.418      120.359      125.111       85.559       88.454    15652.738     7320.346     7824.154        4.196        1.540      196.572       86.297        0.193      342.585       18.094      858.076
04/18/2014  13:27:00       65.966      145.169      120.964      109.437       80.652       87.387    11976.518     6504.697     7636.562        3.308        1.306      159.454       80.388        0.254      342.631       18.174      858.067
04/18/2014  13:28:00      167.207       99.956       63.050       85.081       83.822       70.819     7238.758     7026.197     5015.282        3.060        0.964      194.806       59.126        0.092      342.629       18.169      858.077
04/18/2014  13:29:00       39.547       27.014       -3.477       61.212       34.312       29.928     3746.889     1177.298      895.662        0.406        0.291       47.893       21.760        0.206      342.637       18.185      858.082
04/18/2014  13:30:00       41.761       99.886        7.143       38.585       62.139       39.276     1488.831     3861.274     1542.626        0.933        0.345      108.264       33.559        0.096      342.801       18.467      858.047
04/18/2014  13:31:00       48.998       19.594       16.967       34.657       20.964       32.597     1201.131      439.508     1062.533        0.289        0.135       52.770        9.569        0.033      342.666       18.236      858.011
04/18/2014  13:32:00       42.315       21.153        9.021       25.665       28.922       30.632      658.695      836.467      938.348        0.238        0.122       47.307       23.202        0.241      342.885       18.608      858.008
04/18/2014  13:33:00       42.739       18.997      -14.829       61.963       40.162       34.237     3839.379     1613.004     1172.151        0.451        0.331       46.771       17.652        0.142      342.722       18.330      857.985
04/18/2014  13:34:00       50.025     -114.870       -3.022       87.429       71.730       48.898     7643.892     5145.152     2391.013        1.544        0.759      125.290       31.780        0.064      343.118       19.003      857.985
04/18/2014  13:35:00      112.049      -50.850       50.863      108.066      119.319       79.306    11678.275    14237.098     6289.363        2.496        1.610      123.047       77.088        0.392      343.230       19.195      857.952
04/18/2014  13:36:00       29.486       -9.824       69.633       62.428      139.013       78.374     3897.268    19324.574     6142.429        1.758        1.468       31.079       91.179        8.607      343.379       19.447      857.933
04/18/2014  13:37:00      116.221      101.798       73.571       85.705       66.672       68.849     7345.346     4445.119     4740.184        2.290        0.827      154.500       55.787        0.130      343.219       19.175      857.928
04/18/2014  13:38:00       34.186      -22.557       43.110       51.016       48.584       42.605     2602.678     2360.408     1815.226        0.516        0.339       40.957       19.492        0.226      343.290       19.297      857.912
04/18/2014  13:39:00       73.887        3.929       29.999       64.684       51.109       44.657     4183.970     2612.179     1994.291        0.758        0.440       73.992       34.297        0.215      343.289       19.298      857.884
04/18/2014  13:40:00      108.650       94.193       55.054       75.295       69.387       58.342     5669.347     4814.596     3403.737        1.880        0.694      143.795       47.890        0.111      343.155       19.066      857.861
04/18/2014  13:41:00       74.022       95.772      -20.133       68.960       44.850       31.184     4755.515     2011.555      972.423        1.140        0.387      121.044       30.365        0.063      342.632       18.178      857.850
04/18/2014  13:42:00       15.225       29.098       15.778       45.565       35.203       27.401     2076.134     1239.274      750.795        0.270        0.203       32.840       19.747        0.362      343.209       19.160      857.830
04/18/2014  13:43:00       22.684       53.315        0.085       26.060       50.388       28.145      679.128     2538.999      792.140        0.368        0.201       57.940       27.752        0.229      343.260       19.247      857.804
04/18/2014  13:44:00        2.417       54.879        1.604       39.003       50.295       31.278     1521.211     2529.580      978.334        0.402        0.251       54.932       19.011        0.120      343.699       19.995      857.781
04/18/2014  13:45:00       91.616       35.542       33.062       65.361       39.015       46.338     4272.117     1522.173     2147.215        0.934        0.397       98.269       28.488        0.084      343.109       18.989      857.787
04/18/2014  13:46:00      137.119      108.504       58.517       83.953       43.672       40.437     7048.083     1907.254     1635.112        2.229        0.530      174.857       28.990        0.027      342.790       18.444      857.771
04/18/2014  13:47:00       96.908       69.452        2.642       64.251       64.355       44.271     4128.232     4141.626     1959.931        1.222        0.511      119.226       21.004        0.031      342.932       18.688      857.753
04/18/2014  13:48:00      147.799      106.660       13.201       67.979       70.050       45.592     4621.189     4906.950     2078.655        2.250        0.580      182.266       19.423        0.011      342.873       18.585      857.727
04/18/2014  13:49:00      120.642       94.852       20.436       57.839       53.001       48.490     3345.350     2809.108     2351.270        1.624        0.425      153.465       22.443        0.021      342.755       18.386      857.736
04/18/2014  13:50:00       76.882       80.490       -5.747       47.999       51.171       28.692     2303.858     2618.433      823.242        0.908        0.287      111.308       15.658        0.020      342.673       18.247      857.735
04/18/2014  13:51:00      -12.018       43.603        7.373       34.583       50.442       32.600     1195.955     2544.348     1062.747        0.345        0.240       45.229       25.080        0.307      343.040       18.872      857.710
04/18/2014  13:52:00      -15.890       29.795       18.178       40.133       32.130       26.647     1610.620     1032.367      710.089        0.241        0.168       33.767        9.914        0.086      343.587       19.803      857.691
04/18/2014  13:53:00       68.586       73.014       21.705       67.704       63.247       39.218     4583.829     4000.152     1538.065        1.031        0.506      100.175       36.397        0.132      343.560       19.757      857.690
04/18/2014  13:54:00       36.454       78.117       16.633       70.420       78.894       43.115     4958.927     6224.297     1858.944        1.037        0.652       86.204       46.487        0.291      343.296       19.308      857.678
04/18/2014  13:55:00      -97.578      131.866      -21.023       42.274       74.591       34.776     1787.119     5563.810     1209.364        1.795        0.428      164.043       25.442        0.024      343.098       18.970      857.653
04/18/2014  13:56:00      -26.276      209.176      -25.965       37.813       73.126       32.911     1429.859     5347.358     1083.152        2.649        0.393      210.820       38.482        0.033      342.940       18.699      857.649
04/18/2014  13:57:00      -48.033      153.766      -18.359       46.914       56.655       33.855     2200.916     3209.748     1146.187        1.642        0.328      161.093       19.032        0.014      343.058       18.902      857.633
04/18/2014  13:58:00       25.946       69.689       15.610       71.261       42.777       32.144     5078.076     1829.860     1033.261        0.686        0.397       74.362       29.666        0.159      343.345       19.392      857.630
04/18/2014  13:59:00       79.856       53.152       13.573       70.396       51.297       39.127     4955.634     2631.351     1530.947        0.925        0.456       95.928       28.934        0.091      342.829       18.513      857.627
04/18/2014  14:00:00       58.048      102.623        5.161       72.142       71.328       41.773     5204.513     5087.658     1744.985        1.298        0.602      117.903       36.417        0.095      343.202       19.147      857.592
04/18/2014  14:01:00      136.668       89.635       22.637       57.213       46.029       46.348     3273.305     2118.651     2148.135        1.738        0.377      163.440       32.266        0.039      343.863       20.274      857.575
04/18/2014  14:02:00      110.034       47.915       63.572      131.327       69.432       58.112    17246.897     4820.808     3376.979        2.194        1.272      120.013       55.254        0.212      343.635       19.886      857.532
04/18/2014  14:03:00       14.576        3.883       14.813       59.874       41.668       30.213     3584.915     1736.190      912.799        0.334        0.312       15.085       22.700        2.265      343.692       19.982      857.501
04/18/2014  14:04:00      175.305       81.064       24.053       86.324       73.064       61.004     7451.781     5338.392     3721.428        2.719        0.826      193.141       22.029        0.013      343.403       19.488      857.481
04/18/2014  14:05:00      201.695      109.167       52.770      112.117       87.806       75.038    12570.282     7709.934     5630.691        4.064        1.296      229.343       57.980        0.064      343.370       19.431      857.467
04/18/2014  14:06:00       42.879       28.726       24.345       57.343       78.425       44.620     3288.237     6150.424     1990.952        0.734        0.571       51.612       27.302        0.280      343.157       19.072      857.474
04/18/2014  14:07:00       27.161       29.175       42.164       42.951       69.578       45.918     1844.773     4841.139     2108.432        0.608        0.440       39.861       29.821        0.560      343.567       19.768      857.452
04/18/2014  14:08:00       16.042       -6.087       21.803       54.743       61.921       38.740     2996.741     3834.187     1500.767        0.455        0.417       17.158       36.330        4.483      343.716       20.025      857.441
04/18/2014  14:09:00      218.869      149.873       51.106      133.486       87.042       66.444    17818.586     7576.333     4414.816        5.139        1.490      265.265       36.352        0.019      343.535       19.711      857.417
04/18/2014  14:10:00      179.341      127.467       56.490      108.592       87.845       79.739    11792.133     7716.734     6358.268        3.873        1.293      220.025       60.881        0.077      343.670       19.943      857.427
04/18/2014  14:11:00       40.529       71.185       92.855       68.408      110.154       73.821     4679.634    12133.903     5449.591        1.879        1.113       81.914       74.984        0.838      343.307       19.327      857.443
04/18/2014  14:12:00      191.403      122.402       28.055      108.500       65.485       53.119    11772.217     4288.223     2821.665        3.564        0.944      227.194       33.160        0.021      343.013       18.822      857.453
04/18/2014  14:13:00       40.482       74.861       -0.410       63.736       76.991       60.671     4062.223     5927.627     3680.932        1.045        0.684       85.105       54.276        0.407      343.227       19.190      857.440
04/18/2014  14:14:00      113.173      120.619       -2.038      113.238      103.102       77.264    12822.851    10630.063     5969.793        2.839        1.471      165.399       51.674        0.098      343.338       19.377      857.413
04/18/2014  14:15:00      212.889       82.777        6.755       80.586      124.389       45.970     6494.098    15472.503     2113.278        3.814        1.204      228.415       40.372        0.031      342.644       18.198      857.422
04/18/2014  14:16:00       49.468       -3.094       43.977       64.251       73.108       35.295     4128.208     5344.747     1245.731        0.755        0.536       49.565       30.289        0.373      343.266       19.256      857.381
04/18/2014  14:17:00      -15.079      178.715      -15.624       79.977       73.886       50.285     6396.263     5459.119     2528.559        2.339        0.719      179.350       51.764        0.083      343.152       19.059      857.383
04/18/2014  14:18:00      -54.294      173.833      -42.593       59.787       89.348       36.282     3574.451     7983.074     1316.391        2.392        0.644      182.114       20.934        0.013      343.133       19.028      857.352
04/18/2014  14:19:00       15.762       52.443        2.382       43.850       49.242       32.194     1922.788     2424.743     1036.446        0.419        0.269       54.760       28.313        0.267      343.793       20.156      857.328
04/18/2014  14:20:00       87.473       78.418       30.831       63.482       42.698       42.250     4029.926     1823.095     1785.043        1.119        0.382      117.477       29.140        0.062      343.680       19.963      857.309
04/18/2014  14:21:00       28.772      152.894      -11.820       63.312       98.400       51.179     4008.377     9682.626     2619.329        2.032        0.816      155.578       60.149        0.149      343.926       20.381      857.312
04/18/2014  14:22:00      -35.980      176.411      -30.001       48.938       62.742       34.684     2394.951     3936.558     1202.987        2.042        0.377      180.043       34.863        0.037      343.406       19.494      857.308
04/18/2014  14:23:00       46.398      102.743        0.368       40.764       53.480       31.224     1661.711     2860.124      974.956        0.910        0.275      112.734       26.082        0.054      343.479       19.618      857.298
04/18/2014  14:24:00       29.619      119.390        8.953       76.839       86.408       40.123     5904.233     7466.329     1609.852        1.509        0.749      123.009       51.344        0.174      343.371       19.435      857.296
04/18/2014  14:25:00       77.295       70.407       51.772       81.931       57.709       65.527     6712.705     3330.331     4293.789        1.397        0.717      104.554       52.827        0.255      343.460       19.586      857.286
04/18/2014  14:26:00      158.663      162.795      158.433      126.249      131.434      100.332    15938.863    17274.781    10066.452        6.002        2.164      227.324       88.601        0.152      343.260       19.244      857.241
04/18/2014  14:27:00       79.851       88.740       76.727       87.548       67.138       65.248     7664.612     4507.569     4257.332        1.828        0.821      119.377       43.973        0.136      343.658       19.925      857.250
04/18/2014  14:28:00        4.964      -42.540       45.475       67.481       61.483       44.538     4553.673     3780.140     1983.626        0.711        0.516       42.828       30.611        0.511      344.011       20.527      857.230
04/18/2014  14:29:00       40.589      -35.726       24.182       61.501       64.840       44.515     3782.424     4204.207     1981.577        0.674        0.498       54.073       44.765        0.685      343.878       20.300      857.218
04/18/2014  14:30:00      130.967       21.229       19.837      121.831       91.088       60.433    14842.672     8297.049     3652.130        2.239        1.340      132.677       44.521        0.113      343.715       20.021      857.184
04/18/2014  14:31:00      147.501       32.163       67.588      111.055       81.890       60.170    12333.318     6705.910     3620.388        2.500        1.133      150.967       52.906        0.123      343.285       19.287      857.160
04/18/2014  14:32:00      191.497      113.751       33.813       90.982       67.122       66.630     8277.687     4505.338     4439.600        3.398        0.861      222.735       33.812        0.023      343.313       19.334      857.144
04/18/2014  14:33:00      144.871      112.442       22.857       85.408       87.277       61.873     7294.482     7617.229     3828.221        2.644        0.937      183.388       45.651        0.062      343.492       19.639      857.134
04/18/2014  14:34:00      109.265       88.474        0.975       55.374       63.043       46.004     3066.257     3974.387     2116.335        1.446        0.458      140.593       29.215        0.043      343.300       19.313      857.142
04/18/2014  14:35:00       75.431       43.002        0.536       55.172       52.912       37.314     3043.978     2799.649     1392.363        0.739        0.362       86.828       17.927        0.043      343.576       19.785      857.113
04/18/2014  14:36:00        1.097       35.790       32.386       52.322       49.475       37.790     2737.633     2447.765     1428.050        0.447        0.331       35.806       37.660        1.106      344.028       20.556      857.081
04/18/2014  14:37:00       81.209       43.711       21.825       52.146       33.981       42.351     2719.185     1154.707     1793.572        0.732        0.283       92.225       31.353        0.116      343.589       19.807      857.092
04/18/2014  14:38:00       24.855       16.598       -0.049       58.458       26.412       26.015     3417.357      697.586      676.783        0.284        0.240       29.887       22.448        0.564      343.895       20.330      857.085
04/18/2014  14:39:00       24.794       65.659       -7.713       59.333       61.358       39.467     3520.353     3764.812     1557.644        0.691        0.442       70.184       26.595        0.144      343.766       20.109      857.069
04/18/2014  14:40:00       57.498       34.541        4.951       91.733       58.639       46.777     8414.898     3438.581     2188.132        0.928        0.702       67.075       29.655        0.195      343.988       20.489      857.039
04/18/2014  14:41:00      110.303       59.392       -3.053       72.565       75.572       50.943     5265.607     5711.186     2595.227        1.464        0.679      125.277       33.569        0.072      343.608       19.839      857.039
04/18/2014  14:42:00        9.963        9.365       -7.006       44.594       43.997       24.441     1988.662     1935.710      597.340        0.238        0.226       13.673       20.136        2.169      343.633       19.883      857.047
04/18/2014  14:43:00      -25.688       53.549       -7.593       43.634       54.922       38.106     1903.947     3016.373     1452.043        0.498        0.319       59.392       27.299        0.211      344.087       20.657      857.043
04/18/2014  14:44:00       13.833      -48.384       37.118       43.615       88.054       44.502     1902.291     7753.538     1980.412        0.777        0.582       50.323       55.449        1.214      344.537       21.427      857.040
04/18/2014  14:45:00       48.149      -59.319       28.300       65.223      127.362       58.778     4253.992    16221.141     3454.884        1.528        1.197       76.401       71.477        0.875      343.995       20.498      857.029
04/18/2014  14:46:00      139.487     -114.813       13.436      129.531      124.318       63.539    16778.287    15455.064     4037.166        3.454        1.814      180.662       76.285        0.178      343.779       20.130      857.032
04/18/2014  14:47:00      252.575     -281.875      -42.440      141.840      167.454       97.453    20118.560    28040.696     9497.128       10.134        2.883      378.481      108.340        0.082      343.331       19.364      856.975
04/18/2014  14:48:00       80.054     -132.456        0.595       98.505      118.826       87.800     9703.182    14119.630     7708.789        2.774        1.577      154.768       80.352        0.270      343.822       20.203      856.965
04/18/2014  14:49:00        7.411     -121.542        6.409       73.246       95.896       51.252     5364.952     9196.117     2626.796        1.602        0.859      121.768       41.986        0.119      344.271       20.968      856.976
04/18/2014  14:50:00      174.878     -276.922      -30.677      115.933       89.431       66.699    13440.561     7997.964     4448.770        6.704        1.294      327.518       58.992        0.032      343.691       19.978      856.963
04/18/2014  14:51:00      -82.551     -228.006       14.633      119.996      152.901       59.398    14398.976    23378.855     3528.106        5.015        2.065      242.490       58.695        0.059      343.861       20.267      856.958
04/18/2014  14:52:00     -135.732     -150.353        6.549      107.670       89.511       56.223    11592.810     8012.175     3161.004        3.191        1.138      202.557       45.768        0.051      343.900       20.337      856.947
04/18/2014  14:53:00     -109.900      -93.854        7.313       81.247       91.865       45.841     6601.075     8439.160     2101.383        1.904        0.857      144.522       49.127        0.116      343.699       19.993      856.951
04/18/2014  14:54:00     -131.090      -79.125       -1.563       85.398       65.265       39.223     7292.882     4259.483     1538.416        1.827        0.655      153.118       36.294        0.056      343.670       19.944      856.920
04/18/2014  14:55:00       -3.354      -48.138       -5.296       65.962       64.935       42.316     4350.990     4216.607     1790.619        0.636        0.518       48.255       43.885        0.827      343.874       20.294      856.880
04/18/2014  14:56:00      -34.002       -5.798        1.745       30.198       22.847       19.741      911.936      522.004      389.718        0.151        0.091       34.493       11.359        0.108      344.215       20.877      856.849
04/18/2014  14:57:00       -2.839      -18.537        2.610       22.887       34.780       24.058      523.826     1209.637      578.766        0.133        0.116       18.753       15.360        0.671      344.418       21.222      856.827
04/18/2014  14:58:00       47.703      -55.475       33.979       47.780      113.119       64.563     2282.965    12796.017     4168.368        1.287        0.962       73.165       70.385        0.925      343.796       20.160      856.811
04/18/2014  14:59:00       23.910      -66.275      -16.953       49.478       52.393       28.044     2448.037     2745.017      786.459        0.561        0.299       70.457       26.757        0.144      343.640       19.895      856.792
04/18/2014  15:00:00       54.679       54.347       37.897       47.955       37.062       32.329     2299.696     1373.611     1045.185        0.605        0.236       77.093       10.710        0.019      343.870       20.287      856.774
04/18/2014  15:01:00      117.971       60.253       25.573       95.275       77.840       53.815     9077.387     6059.123     2896.054        1.811        0.902      132.467       46.437        0.123      343.570       19.774      856.767
04/18/2014  15:02:00       31.547       73.592       76.699       67.661       64.077       50.867     4578.075     4105.825     2587.419        1.178        0.564       80.069       12.555        0.025      344.027       20.555      856.724
04/18/2014  15:03:00       77.778      104.428        7.251       75.571       69.175       47.405     5710.983     4785.176     2247.279        1.487        0.637      130.210       39.636        0.093      343.666       19.937      856.713
04/18/2014  15:04:00       -9.659       48.039       -2.510       20.289       53.293       22.968      411.643     2840.147      527.541        0.309        0.189       49.000       25.753        0.276      343.730       20.048      856.700
04/18/2014  15:05:00       12.828      179.829      -36.893       47.766       81.740       23.871     2281.544     6681.360      569.807        2.170        0.477      180.286       25.713        0.020      343.461       19.588      856.677
04/18/2014  15:06:00       33.126       37.818        0.842       37.520       40.173       26.874     1407.731     1613.884      722.214        0.314        0.187       50.275       18.440        0.135      343.586       19.803      856.668
04/18/2014  15:07:00       82.632       76.334       32.001       57.302       40.263       44.922     3283.570     1621.120     2017.998        1.030        0.346      112.494       40.730        0.131      343.603       19.830      856.639
04/18/2014  15:08:00      -23.964       36.639      -11.479       51.739       39.415       26.619     2676.884     1553.564      708.556        0.349        0.247       43.780       24.291        0.308      343.712       20.016      856.627
04/18/2014  15:09:00      -40.156       19.822       -6.617       26.531       66.961       33.919      703.906     4483.789     1150.510        0.419        0.317       44.782       26.653        0.354      343.765       20.107      856.632
04/18/2014  15:10:00      -61.130       53.252       -7.022       34.818       59.632       33.308     1212.269     3555.986     1109.423        0.625        0.294       81.072       24.923        0.095      344.015       20.536      856.608
04/18/2014  15:11:00      -50.314       70.431       -8.567       37.032       53.653       25.218     1371.375     2878.631      635.948        0.622        0.244       86.557       18.460        0.045      343.780       20.133      856.592
04/18/2014  15:12:00      -50.847       77.872       -1.403       46.156       50.342       28.346     2130.368     2534.299      803.495        0.706        0.273       93.003       23.420        0.063      343.757       20.095      856.580
04/18/2014  15:13:00      -66.906      -21.978        0.476       52.937       35.359       28.797     2802.295     1250.269      829.294        0.492        0.244       70.424       30.241        0.184      343.764       20.106      856.573
04/18/2014  15:14:00      -40.736       88.909      -19.670       36.244      102.449       31.146     1313.596    10495.696      970.087        1.136        0.639       97.797       47.965        0.241      343.762       20.101      856.568
04/18/2014  15:15:00      -31.661      180.037      -13.155       65.215       64.262       39.594     4253.022     4129.602     1567.707        2.177        0.498      182.800       31.033        0.029      344.265       20.957      856.541
04/18/2014  15:16:00       54.990       44.745        8.829       47.636       45.790       32.317     2269.144     2096.745     1044.375        0.526        0.271       70.894       17.963        0.064      344.525       21.406      856.505
04/18/2014  15:17:00       -3.306      139.266      -11.668       80.462       48.978       36.674     6474.145     2398.860     1344.949        1.488        0.511      139.305       28.293        0.041      344.058       20.609      856.491
04/18/2014  15:18:00      -32.120       87.591        2.172       58.187       65.600       39.864     3385.778     4303.320     1589.129        0.899        0.464       93.295       38.661        0.172      344.319       21.053      856.473
04/18/2014  15:19:00     -117.809      245.827      -38.412       81.382       80.211       49.891     6623.056     6433.738     2489.127        4.566        0.777      272.599       46.696        0.029      343.769       20.111      856.459
04/18/2014  15:20:00     -124.199      165.322      -29.801       53.440       87.713       42.857     2855.799     7693.546     1836.687        2.801        0.619      206.777       42.751        0.043      343.756       20.089      856.454
04/18/2014  15:21:00     -114.603      163.721      -31.378       64.415       87.657       46.494     4149.337     7683.784     2161.662        2.746        0.700      199.845       35.264        0.031      344.035       20.564      856.439
04/18/2014  15:22:00     -139.373      117.733      -37.826       59.888       53.452       36.269     3586.544     2857.108     1315.466        2.124        0.388      182.444       28.212        0.024      343.818       20.195      856.437
04/18/2014  15:23:00      -28.953       80.646      -26.600      102.812       39.599       35.500    10570.363     1568.071     1260.238        1.072        0.670       85.685       52.926        0.382      343.476       19.616      856.430
04/18/2014  15:24:00       28.117      -20.516       13.977       84.810       81.242       37.271     7192.749     6600.236     1389.091        0.829        0.759       34.806       29.890        0.737      343.802       20.168      856.394
04/18/2014  15:25:00     -166.954      -98.253        8.213       99.895       56.495       36.550     9978.973     3191.670     1335.879        2.605        0.725      193.719       33.923        0.031      343.933       20.391      856.374
04/18/2014  15:26:00     -129.002     -100.316       -0.556       91.694       55.517       42.055     8407.751     3082.123     1768.632        1.998        0.663      163.416       49.794        0.093      343.883       20.307      856.366
04/18/2014  15:27:00     -108.902     -109.090        9.411      102.313       80.687       58.019    10468.018     6510.345     3366.218        2.209        1.017      154.144       60.740        0.155      343.944       20.411      856.341
04/18/2014  15:28:00     -146.835     -111.360       16.798      142.118      105.638       61.388    20197.602    11159.402     3768.494        3.468        1.756      184.286       64.718        0.123      344.112       20.697      856.331
04/18/2014  15:29:00      -92.176     -102.596        7.365      105.326       54.773       40.458    11093.613     3000.119     1636.858        1.740        0.787      137.922       33.893        0.060      344.374       21.148      856.350
04/18/2014  15:30:00      -94.819     -151.794       -4.150      103.948       78.560       49.799    10805.255     6171.667     2479.903        2.575        0.973      178.975       43.832        0.060      344.349       21.104      856.362
04/18/2014  15:31:00     -178.362     -118.508        3.332      106.609       68.669       52.369    11365.496     4715.463     2742.509        3.234        0.941      214.142       57.104        0.071      343.953       20.425      856.366
04/18/2014  15:32:00     -228.371      -13.778      -10.476       86.079       71.309       38.234     7409.510     5084.915     1461.854        3.320        0.698      228.786       32.697        0.020      343.804       20.171      856.338
04/18/2014  15:33:00     -149.066       63.778      -20.717       59.491       45.698       28.481     3539.221     2088.346      811.178        1.658        0.322      162.136       23.023        0.020      344.062       20.613      856.306
04/18/2014  15:34:00     -118.152      110.969       -3.908       57.331       80.958       38.306     3286.876     6554.181     1467.322        1.880        0.565      162.092       28.559        0.031      344.109       20.693      856.290
04/18/2014  15:35:00      -54.338      119.853       -9.517       56.263       65.861       34.422     3165.537     4337.624     1184.847        1.305        0.434      131.595       30.915        0.055      344.182       20.819      856.281
04/18/2014  15:36:00       29.002       69.401       17.677       99.171       41.349       46.376     9834.913     1709.709     2150.735        0.983        0.685       75.217       36.692        0.238      344.309       21.036      856.264
04/18/2014  15:37:00      -18.158       53.752      -20.056       55.692       58.136       26.243     3101.654     3379.795      688.703        0.539        0.359       56.736       23.634        0.174      343.810       20.183      856.256
04/18/2014  15:38:00       -0.880      101.985       -9.779       42.378       49.195       33.062     1795.896     2420.160     1093.067        0.790        0.265      101.989       21.389        0.044      344.078       20.642      856.229
04/18/2014  15:39:00       65.040       36.612       28.488       76.984       63.452       51.851     5926.555     4026.173     2688.535        0.951        0.632       74.637       37.394        0.251      344.391       21.176      856.215
04/18/2014  15:40:00      177.094      108.652       61.523       97.308       70.675       67.579     9468.862     4994.906     4566.882        3.299        0.952      207.768       43.640        0.044      344.247       20.927      856.196
04/18/2014  15:41:00      163.280      119.643        5.462       59.081       47.901       52.347     3490.533     2294.502     2740.252        2.476        0.426      202.422       36.220        0.032      344.059       20.608      856.197
04/18/2014  15:42:00      152.502       71.677        8.521       65.162       53.911       45.982     4246.028     2906.375     2114.309        1.887        0.463      168.506       27.497        0.027      344.192       20.835      856.202
04/18/2014  15:43:00       68.937       68.121       30.413       70.216       53.828       34.774     4930.342     2897.404     1209.255        0.968        0.452       96.917       30.758        0.101      344.130       20.731      856.207
04/18/2014  15:44:00      -17.441      166.222      -19.073       25.708       53.165       21.692      660.903     2826.507      470.553        1.613        0.198      167.134       23.010        0.019      343.887       20.314      856.198
04/18/2014  15:45:00      -15.609       99.898       -2.766       27.743       54.188       31.278      769.699     2936.291      978.311        0.746        0.234      101.110       30.564        0.091      344.080       20.643      856.195
04/18/2014  15:46:00       43.425       59.694       13.466       28.852       29.728       47.765      832.410      883.752     2281.465        0.481        0.200       73.818       20.351        0.076      344.326       21.065      856.187
04/18/2014  15:47:00      111.145      113.409       84.670       95.618       81.596       64.146     9142.786     6657.835     4114.678        2.615        0.996      158.791       61.874        0.152      344.709       21.717      856.164
04/18/2014  15:48:00       53.877      -41.135       39.544       66.316      150.556       63.543     4397.853    22667.090     4037.675        1.862        1.555       67.785       80.077        1.396      344.661       21.637      856.166
04/18/2014  15:49:00       61.539      -27.336       16.581       61.558       68.420       47.803     3789.405     4681.354     2285.094        0.778        0.538       67.337       51.029        0.574      344.697       21.699      856.168
04/18/2014  15:50:00       76.772       19.564       22.611       57.668       68.474       44.135     3325.638     4688.675     1947.897        0.837        0.498       79.226       28.441        0.129      344.679       21.668      856.168
04/18/2014  15:51:00       34.709       -3.057       10.261       53.538       58.760       41.095     2866.331     3452.731     1688.775        0.466        0.400       34.843       23.020        0.436      344.639       21.601      856.169
04/18/2014  15:52:00       55.867       48.681       17.705       74.264       65.126       41.443     5515.103     4241.413     1717.537        0.864        0.574       74.101       49.551        0.447      344.288       21.000      856.179
04/18/2014  15:53:00       72.978       58.026       42.692       64.559       64.607       53.030     4167.881     4174.104     2812.132        1.083        0.558       93.235       43.799        0.221      344.391       21.178      856.168
04/18/2014  15:54:00       43.350       50.749       -6.434      108.284       47.046       38.150    11725.325     2213.351     1455.440        0.994        0.770       66.743       39.726        0.354      344.249       20.933      856.157
04/18/2014  15:55:00       96.607       95.638       -1.824      114.591       70.932       40.080    13131.152     5031.346     1606.388        1.912        0.988      135.940       32.797        0.058      344.248       20.932      856.162
04/18/2014  15:56:00       19.709       64.695      -12.575       45.697       50.524       29.781     2088.190     2552.684      886.883        0.513        0.276       67.631       23.551        0.121      344.098       20.677      856.148
04/18/2014  15:57:00      -35.326      133.137      -26.249       41.302       55.127       23.624     1705.831     3038.964      558.106        1.248        0.265      137.744       14.185        0.011      343.989       20.489      856.116
04/18/2014  15:58:00      -53.194      136.632      -19.804       33.760       57.786       31.177     1139.725     3339.191      971.977        1.367        0.273      146.622       32.985        0.051      344.223       20.889      856.102
04/18/2014  15:59:00       -0.759      161.405      -17.247       58.082      111.688       44.774     3373.465    12474.264     2004.737        2.210        0.893      161.407       59.425        0.136      344.439       21.258      856.078
04/18/2014  16:00:00       27.272      191.193      -25.690       47.369       87.521       42.271     2243.793     7659.943     1786.837        2.482        0.585      193.128       51.662        0.072      344.080       20.643      856.070
04/18/2014  16:01:00       75.140      120.664        8.212       64.201       49.555       39.321     4121.826     2455.703     1546.139        1.420        0.406      142.147       34.674        0.060      344.072       20.630      856.063
04/18/2014  16:02:00       57.998       95.265        6.951       69.618       62.160       41.307     4846.728     3863.819     1706.231        1.145        0.521      111.531       38.031        0.116      344.132       20.733      856.057
04/18/2014  16:03:00       91.974       35.144       22.399      104.830       72.624       45.905    10989.258     5274.302     2107.276        1.428        0.919       98.459       20.179        0.042      344.535       21.421      856.033
04/18/2014  16:04:00      -60.939       22.388       17.205      115.812       56.913       47.275    13412.372     3239.047     2234.969        1.169        0.944       64.922       35.277        0.295      344.598       21.530      856.033
04/18/2014  16:05:00      -99.976       -2.454       -5.691       52.594       45.537       26.778     2766.114     2073.603      717.044        0.779        0.278      100.006       24.770        0.061      344.403       21.196      856.033
04/18/2014  16:06:00      -27.189       51.299       -8.892       33.797       46.099       31.139     1142.207     2125.116      969.647        0.384        0.212       58.059       21.738        0.140      344.631       21.588      856.033
04/18/2014  16:07:00      -41.632       92.388        1.572       54.439       82.195       40.382     2963.581     6756.009     1630.727        1.081        0.568      101.335       30.992        0.094      344.731       21.759      856.029
04/18/2014  16:08:00      132.968      146.035        9.990       96.274       77.086       46.229     9268.741     5942.205     2137.112        2.822        0.867      197.501       43.293        0.048      344.286       20.995      856.020
04/18/2014  16:09:00       88.740      100.328       21.570      103.969       70.616       47.853    10809.639     4986.578     2289.870        1.824        0.904      133.942       39.982        0.089      344.502       21.365      856.014
04/18/2014  16:10:00       38.656      136.553       -7.560       72.811       73.138       52.221     5301.440     5349.130     2727.053        1.679        0.669      141.919       49.675        0.123      344.651       21.620      856.021
04/18/2014  16:11:00       76.647      138.195       -8.403       52.223       77.861       48.271     2727.191     6062.285     2330.103        1.808        0.556      158.027       39.367        0.062      344.063       20.614      856.025
04/18/2014  16:12:00       31.936      276.385      -49.491       57.050      105.150       40.273     3254.737    11056.538     1621.902        4.789        0.797      278.224       49.053        0.031      343.917       20.363      856.003
04/18/2014  16:13:00      -16.598      225.555      -24.183       55.224       93.966       39.070     3049.702     8829.517     1526.443        3.257        0.670      226.164       45.350        0.040      344.268       20.964      855.985
04/18/2014  16:14:00      -13.260      198.658      -43.270       50.308       97.105       30.753     2530.898     9429.337      945.737        2.721        0.645      199.100       45.448        0.052      344.268       20.962      856.005
04/18/2014  16:15:00      -47.070      201.404      -19.873       55.465      111.409       45.479     3076.367    12412.042     2068.376        3.036        0.878      206.831       57.400        0.077      344.320       21.054      856.010
04/18/2014  16:16:00     -117.519      259.668      -34.828       70.048       92.053       54.564     4906.670     8473.676     2977.229        4.940        0.818      285.023       50.568        0.031      344.013       20.527      856.008
04/18/2014  16:17:00     -116.152      196.663      -29.353       78.318       81.697       48.874     6133.762     6674.481     2388.641        3.411        0.760      228.403       51.091        0.050      344.087       20.654      855.991
04/18/2014  16:18:00       31.418      137.876      -15.903       63.960       74.427       40.761     4090.902     5539.427     1661.450        1.577        0.565      141.411       29.064        0.042      344.205       20.858      855.984
04/18/2014  16:19:00       14.012       75.293       -8.292       53.969       53.906       37.980     2912.664     2905.864     1442.453        0.660        0.363       76.586       30.173        0.155      344.321       21.057      855.973
04/18/2014  16:20:00      -53.727      137.611      -18.098       43.748       91.882       37.886     1913.889     8442.284     1435.312        1.697        0.590      147.727       36.961        0.063      344.430       21.241      855.976
04/18/2014  16:21:00      -25.420      225.667      -15.659       64.985       76.430       47.076     4223.114     5841.612     2216.109        3.205        0.614      227.094       37.169        0.027      344.063       20.614      855.973
04/18/2014  16:22:00      -22.895        7.901       -5.715       63.205       75.250       38.810     3994.842     5662.588     1506.200        0.589        0.558       24.220       20.637        0.726      344.571       21.483      855.961
04/18/2014  16:23:00       40.927      156.123       -9.076       57.120      129.037       63.848     3262.674    16650.434     4076.615        2.506        1.199      161.398       75.570        0.219      344.303       21.023      855.961
04/18/2014  16:24:00       52.650      238.304      -27.082       68.616      136.424       63.092     4708.126    18611.451     3980.616        4.379        1.365      244.051       78.308        0.103      343.896       20.328      855.956
04/18/2014  16:25:00       49.351      148.082        5.800       67.327       89.277       59.427     4532.906     7970.356     3531.572        2.021        0.802      156.089       56.950        0.133      344.059       20.608      855.924
04/18/2014  16:26:00      -23.933       87.717        2.827      100.312       63.315       55.654    10062.464     4008.768     3097.423        1.272        0.858       90.923       35.346        0.151      344.231       20.903      855.936
04/18/2014  16:27:00      -44.389      168.853       -1.728       73.189      126.826       59.240     5356.574    16084.804     3509.321        2.771        1.248      174.590       68.527        0.154      344.199       20.846      855.943
04/18/2014  16:28:00      -28.138      300.371      -30.380       54.756       93.169       45.104     2998.171     8680.373     2034.397        5.282        0.686      301.686       35.100        0.014      343.897       20.328      855.950
04/18/2014  16:29:00     -104.815      178.082      -25.765       79.168       86.947       32.947     6267.555     7559.754     1085.488        2.913        0.746      206.638       34.904        0.029      344.065       20.617      855.950
04/18/2014  16:30:00      -40.491      192.976      -23.317       64.199       84.698       34.087     4121.548     7173.772     1161.911        2.594        0.623      197.178       34.415        0.030      344.231       20.900      855.944
04/18/2014  16:31:00      -78.367      179.877      -20.026       66.443       84.930       39.966     4414.659     7213.035     1597.310        2.606        0.661      196.207       37.584        0.037      344.235       20.907      855.950
04/18/2014  16:32:00      -77.007      177.782       -9.867       70.012       88.285       42.317     4901.684     7794.255     1790.732        2.606        0.724      193.744       41.453        0.046      344.261       20.953      855.940
04/18/2014  16:33:00     -138.434      142.314      -28.093       77.683      101.348       42.031     6034.656    10271.345     1766.582        2.914        0.904      198.537       38.890        0.038      344.146       20.754      855.931
04/18/2014  16:34:00     -198.996      162.421      -36.605       79.037      101.955       46.981     6246.826    10394.757     2207.208        4.308        0.942      256.866       40.429        0.025      343.976       20.464      855.953
04/18/2014  16:35:00     -102.823      143.170      -15.162       80.515       98.472       48.526     6482.632     9696.647     2354.753        2.491        0.927      176.267       43.656        0.061      344.135       20.737      855.959
04/18/2014  16:36:00     -133.016       72.796      -25.651       71.437       68.148       33.108     5103.273     4644.114     1096.144        1.724        0.542      151.633       24.660        0.026      344.230       20.901      855.948
04/18/2014  16:37:00     -129.231       23.355       -6.318       57.910       69.994       39.831     3353.599     4899.223     1586.498        1.356        0.492      131.324       16.864        0.016      344.481       21.328      855.932
04/18/2014  16:38:00      -29.047       45.676       25.558       62.682       46.662       39.644     3929.080     2177.298     1571.670        0.563        0.384       54.130       25.858        0.228      344.587       21.511      855.924
04/18/2014  16:39:00      -32.134      117.184      -14.341       39.319       54.683       30.789     1545.963     2990.234      947.953        1.023        0.274      121.510       29.850        0.060      344.409       21.208      855.915
04/18/2014  16:40:00       18.115      307.190      -34.010       69.509      105.237       56.618     4831.520    11074.792     3205.573        5.748        0.956      307.723       54.796        0.032      344.153       20.766      855.895
04/18/2014  16:41:00       49.383      259.829      -41.381       69.040      108.994       45.870     4766.495    11879.672     2104.082        4.520        0.938      264.480       44.446        0.028      344.268       20.964      855.902
04/18/2014  16:42:00      -52.206      272.685      -32.330       58.844       92.186       40.278     3462.632     8498.224     1622.308        4.585        0.679      277.638       45.334        0.027      343.925       20.376      855.926
04/18/2014  16:43:00       25.294      180.101      -20.684       50.996      109.841       38.949     2600.568    12065.096     1517.059        2.484        0.809      181.868       56.366        0.096      343.926       20.378      855.886
04/18/2014  16:44:00       -3.578      126.000       -6.952       47.632       90.205       41.648     2268.828     8136.968     1734.536        1.404        0.607      126.051       46.556        0.136      344.087       20.658      855.888
04/18/2014  16:45:00      -64.234       75.717      -10.242       54.216      115.074       36.254     2939.393    13242.087     1314.362        1.373        0.875       99.293       29.900        0.091      344.547       21.442      855.904
04/18/2014  16:46:00     -129.069      296.067      -28.482       79.873      137.883       63.165     6379.761    19011.709     3989.877        6.725        1.469      322.977       73.131        0.051      344.007       20.519      855.928
04/18/2014  16:47:00     -147.246      286.384      -36.949       71.723       74.028       44.296     5144.249     5480.120     1962.091        5.882        0.629      322.020       40.593        0.016      343.930       20.385      855.947
04/18/2014  16:48:00      -89.063      200.093      -19.120       63.432      122.198       41.871     4023.676    14932.358     1753.173        3.452        1.035      219.019       41.367        0.036      344.233       20.904      855.948
04/18/2014  16:49:00     -180.723      123.683      -41.975       73.614       83.731       42.745     5419.077     7010.940     1827.176        3.199        0.713      218.994       44.353        0.041      344.095       20.668      855.971
04/18/2014  16:50:00      -66.097       96.248        1.350       62.982       82.027       36.385     3966.681     6728.414     1323.865        1.282        0.601      116.758       33.531        0.082      344.354       21.111      855.962
04/18/2014  16:51:00      -49.656      215.633      -29.644       51.015      101.765       32.501     2602.508    10356.035     1056.288        3.193        0.701      221.276       33.883        0.023      344.055       20.599      855.965
04/18/2014  16:52:00      -81.168      188.717      -16.269       71.371       86.559       54.845     5093.883     7492.385     3007.965        2.903        0.780      205.432       44.347        0.047      344.222       20.886      855.955
04/18/2014  16:53:00     -196.743       85.675      -26.098       85.355       80.865       44.055     7285.433     6539.119     1940.844        3.124        0.788      214.588       39.773        0.034      344.171       20.798      855.953
04/18/2014  16:54:00      -75.639      120.029       -5.979       62.793       91.962       33.124     3942.910     8456.950     1097.186        1.683        0.675      141.874       36.633        0.067      344.123       20.716      855.957
04/18/2014  16:55:00      -68.683      237.921      -22.665       67.163       43.118       29.292     4510.883     1859.189      858.037        3.453        0.361      247.637       22.876        0.009      343.885       20.307      855.939
04/18/2014  16:56:00      -57.254      156.364       -8.966       71.432       62.540       34.056     5102.588     3911.218     1159.778        1.899        0.509      166.516       26.213        0.025      344.130       20.729      855.917
04/18/2014  16:57:00      -38.383       41.312      -11.235       55.402       38.083       23.810     3069.411     1450.287      566.894        0.420        0.254       56.391       24.124        0.183      344.177       20.811      855.912
04/18/2014  16:58:00       -5.056        2.745       20.509       38.139       20.635       19.165     1454.611      425.811      367.310        0.135        0.112        5.753       18.999       10.906      344.522       21.402      855.897
04/18/2014  16:59:00      -57.422       -5.370       -1.741       56.498       56.832       24.042     3192.042     3229.873      578.026        0.516        0.350       57.673       18.512        0.103      344.307       21.033      855.880
04/18/2014  17:00:00       -1.647      106.748       -8.354       28.204       68.662       31.214      795.458     4714.436      974.318        0.897        0.324      106.761       37.835        0.126      344.093       20.667      855.877
04/18/2014  17:01:00       80.284       55.354        0.483       64.952       40.695       32.937     4218.735     1656.089     1084.862        0.823        0.348       97.517       24.804        0.065      344.169       20.797      855.870
04/18/2014  17:02:00       14.554       81.479       -5.734       39.464       76.475       32.578     1557.399     5848.446     1061.351        0.767        0.423       82.769       38.143        0.212      344.126       20.723      855.871
04/18/2014  17:03:00      -47.357      178.244      -25.966       41.827       41.577       23.333     1749.497     1728.612      544.446        1.935        0.201      184.428        9.598        0.003      343.998       20.503      855.873
04/18/2014  17:04:00     -106.185       73.593      -20.663       78.797       45.121       29.550     6208.934     2035.889      873.175        1.312        0.456      129.194       26.707        0.043      344.289       21.002      855.889
04/18/2014  17:05:00      -59.637       25.430       -1.163       68.076       21.822       21.957     4634.377      476.202      482.112        0.490        0.280       64.832       24.867        0.147      344.067       20.622      855.890
04/18/2014  17:06:00      -91.733       90.527       -8.212       69.273       70.092       35.528     4798.784     4912.930     1262.261        1.382        0.549      128.881       40.288        0.098      344.294       21.008      855.887
04/18/2014  17:07:00      -30.341      191.186      -15.970       57.124       42.733       30.729     3263.206     1826.111      944.287        2.188        0.302      193.579       23.383        0.015      343.905       20.343      855.897
04/18/2014  17:08:00       40.090      146.158      -17.242       34.354       62.158       39.356     1180.216     3863.611     1548.895        1.493        0.330      151.557       34.484        0.052      343.902       20.341      855.887
04/18/2014  17:09:00       22.111       83.528      -13.622       38.506       47.230       27.146     1482.719     2230.655      736.906        0.605        0.223       86.405       21.319        0.061      343.956       20.432      855.886
04/18/2014  17:10:00       24.485       44.423       -0.427       37.701       31.667       24.275     1421.385     1002.795      589.300        0.279        0.151       50.724       19.555        0.149      343.948       20.419      855.880
04/18/2014  17:11:00       40.721       29.920       19.993       38.686       25.450       22.924     1496.610      647.690      525.512        0.281        0.133       50.531       11.579        0.053      343.962       20.444      855.884
04/18/2014  17:12:00      -10.495       59.780       -8.628       54.386       40.793       27.417     2957.806     1664.083      751.669        0.456        0.269       60.695       26.082        0.185      344.067       20.622      855.896
04/18/2014  17:13:00      -12.306      138.013      -20.879       32.092       36.532       20.700     1029.880     1334.603      428.500        1.121        0.140      138.561       18.722        0.018      344.105       20.689      855.895
04/18/2014  17:14:00     -136.460       94.451      -19.976       62.151       77.431       40.981     3862.688     5995.537     1679.478        1.974        0.577      165.959       44.700        0.073      344.195       20.840      855.905
04/18/2014  17:15:00     -134.148       20.476      -11.431      102.119      133.841       52.002    10428.230    17913.339     2704.253        2.479        1.552      135.701       46.244        0.116      344.228       20.896      855.902
04/18/2014  17:16:00      -87.302      -16.467       12.815      102.868       99.306       58.980    10581.862     9861.697     3478.587        1.598        1.196       88.842       65.660        0.546      344.248       20.930      855.904
04/18/2014  17:17:00     -211.498       32.131      -31.644       88.177       90.967       37.952     7775.266     8275.053     1440.351        3.212        0.875      213.925       40.146        0.035      344.028       20.553      855.903
04/18/2014  17:18:00     -206.115      -12.004      -26.948       68.695       75.873       43.564     4718.984     5756.668     1897.822        2.786        0.619      206.465       37.405        0.033      343.987       20.483      855.903
04/18/2014  17:19:00      -65.445       -5.454       12.060      117.609       60.989       39.358    13831.860     3719.637     1549.073        1.178        0.955       65.671       47.715        0.528      344.099       20.674      855.900
04/18/2014  17:20:00      -94.217       83.039      -15.228       72.244       61.109       34.046     5219.234     3734.286     1159.142        1.306        0.506      125.588       39.093        0.097      344.067       20.622      855.905
04/18/2014  17:21:00     -109.180      148.691      -23.354       53.960       73.890       33.935     2911.689     5459.704     1151.555        2.205        0.476      184.470       35.044        0.036      343.943       20.407      855.914
04/18/2014  17:22:00     -175.945       70.250      -35.193       45.808       68.756       28.011     2098.328     4727.361      784.618        2.237        0.381      189.451       26.352        0.019      343.981       20.473      855.916
04/18/2014  17:23:00     -141.893       22.857      -14.446       64.654       84.689       25.213     4180.094     7172.211      635.715        1.642        0.599      143.722       20.874        0.021      344.086       20.654      855.901
04/18/2014  17:24:00     -119.033       87.527      -23.879       42.783       43.892       31.334     1830.414     1926.513      981.838        1.357        0.237      147.749       30.644        0.043      343.919       20.369      855.918
04/18/2014  17:25:00     -124.977       58.577      -18.155       37.287       25.847       24.514     1390.306      668.071      600.960        1.102        0.133      138.023       18.080        0.017      343.908       20.352      855.924
04/18/2014  17:26:00      -98.548       75.874      -22.033       29.923       35.309       23.442      895.381     1246.739      549.511        0.932        0.135      124.373       13.245        0.011      343.877       20.299      855.912
04/18/2014  17:27:00      -90.110       47.322       -9.451       33.723       27.914       17.382     1137.265      779.167      302.138        0.633        0.111      101.781       12.491        0.015      343.926       20.382      855.899
04/18/2014  17:28:00      -50.822       74.492       -9.580       40.218       55.408       26.558     1617.508     3070.063      705.307        0.681        0.270       90.177       29.961        0.110      343.946       20.416      855.896
04/18/2014  17:29:00     -187.764      129.816      -38.905      100.953       61.937       48.251    10191.606     3836.231     2328.124        3.499        0.818      228.270       50.839        0.050      344.047       20.585      855.899
04/18/2014  17:30:00     -149.628      141.922      -33.959       79.968       98.378       39.881     6394.839     9678.276     1590.481        3.067        0.883      206.229       38.988        0.036      344.000       20.504      855.899
04/18/2014  17:31:00       -8.436      150.868      -15.403       66.000       95.417       31.469     4355.937     9104.388      990.283        1.876        0.723      151.103       43.121        0.081      343.984       20.479      855.890
04/18/2014  17:32:00      -80.642       24.990        3.945       85.498      104.426       38.952     7309.925    10904.824     1517.244        1.343        0.987       84.426       16.680        0.039      344.194       20.839      855.870
04/18/2014  17:33:00     -192.555      -52.293       -0.520      101.911      110.705       52.204    10385.862    12255.638     2725.240        3.258        1.268      199.529       52.701        0.070      344.140       20.746      855.857
04/18/2014  17:34:00     -122.858        1.363      -22.092      103.179       67.808       42.729    10645.934     4597.875     1825.755        1.632        0.853      122.866       47.023        0.146      344.115       20.702      855.871
04/18/2014  17:35:00      -56.896      -30.666       -1.320       53.292       55.589       33.437     2840.030     3090.183     1118.063        0.561        0.352       64.634       20.257        0.098      344.107       20.691      855.859
04/18/2014  17:36:00      -88.477      -43.441       -1.433       63.958       50.053       30.649     4090.619     2505.293      939.361        0.862        0.377       98.566       29.948        0.092      344.094       20.669      855.846
04/18/2014  17:37:00      -99.957      120.883      -21.619       73.834       82.122       44.555     5451.419     6744.008     1985.110        1.962        0.709      156.857       49.276        0.099      344.140       20.745      855.864
04/18/2014  17:38:00     -107.267       62.795      -19.107       61.580       55.594       38.305     3792.043     3090.680     1467.252        1.208        0.417      124.296       31.381        0.064      344.221       20.884      855.847
04/18/2014  17:39:00     -170.938      -38.002       -6.146      103.110      107.984       52.359    10631.707    11660.479     2741.418        2.786        1.252      175.111       34.726        0.039      344.298       21.015      855.833
04/18/2014  17:40:00      -70.110      120.077      -10.209       77.746      106.710       60.049     6044.422    11386.948     3605.924        2.023        1.052      139.046       47.772        0.118      344.267       20.962      855.861
04/18/2014  17:41:00     -179.852       71.513      -43.405       88.249       92.654       48.236     7787.968     8584.850     2326.730        2.902        0.935      193.548       54.819        0.080      344.134       20.734      855.856
04/18/2014  17:42:00     -119.511      169.796      -36.452       72.763      118.161       46.024     5294.503    13961.927     2118.251        3.290        1.069      207.637       39.357        0.036      344.134       20.734      855.838
04/18/2014  17:43:00      -98.898      159.583      -13.421       79.515      101.160       45.894     6322.686    10233.309     2106.218        2.704        0.933      187.744       45.243        0.058      344.107       20.688      855.834
04/18/2014  17:44:00     -130.183      194.219      -25.564       83.736       89.532       49.126     7011.706     8015.921     2413.316        3.638        0.872      233.813       53.485        0.052      344.042       20.577      855.830
04/18/2014  17:45:00     -195.890       54.144      -24.677      128.432      119.533       56.826    16494.849    14288.181     3229.231        3.796        1.701      203.235       49.253        0.059      344.101       20.677      855.852
04/18/2014  17:46:00     -145.320       88.030      -18.122      101.621      110.753       55.697    10326.761    12266.160     3102.153        2.744        1.285      169.904       59.981        0.125      344.050       20.590      855.866
04/18/2014  17:47:00      -99.590       70.231      -12.934       65.125      122.683       38.573     4241.271    15051.030     1487.851        1.789        1.039      121.864       36.532        0.090      344.051       20.595      855.867
04/18/2014  17:48:00     -232.590       85.259      -26.750      104.432       57.289       41.075    10906.122     3282.029     1687.176        3.898        0.794      247.724       38.172        0.024      344.019       20.537      855.883
04/18/2014  17:49:00     -135.963      115.017      -17.939       80.960      125.892       52.083     6554.495    15848.855     2712.663        2.857        1.256      178.086       48.316        0.074      343.979       20.470      855.864
04/18/2014  17:50:00     -224.778      162.359      -34.064      161.532      110.294       64.025    26092.496    12164.793     4099.196        6.019        2.118      277.282       85.003        0.094      344.016       20.534      855.854
04/18/2014  17:51:00     -223.290      -28.279      -14.503       59.690       77.205       47.782     3562.938     5960.590     2283.095        3.134        0.590      225.074       33.634        0.022      344.139       20.744      855.851
04/18/2014  17:52:00     -193.733       58.692      -21.493       98.636       76.805       51.551     9728.982     5898.956     2657.488        2.986        0.914      202.428       56.313        0.077      344.102       20.680      855.840
04/18/2014  17:53:00     -122.576       53.244       -5.631       88.861       75.713       58.076     7896.300     5732.533     3372.844        1.744        0.850      133.640       53.865        0.162      344.107       20.690      855.844
04/18/2014  17:54:00     -153.607       48.744      -25.144       76.532       69.564       48.624     5857.113     4839.136     2364.314        1.983        0.653      161.156       48.659        0.091      344.051       20.594      855.842
04/18/2014  17:55:00     -138.089        5.200      -16.603       70.706       68.443       36.647     4999.305     4684.409     1343.025        1.520        0.551      138.187       28.993        0.044      344.118       20.710      855.842
04/18/2014  17:56:00     -235.054      115.803      -39.287      107.776      110.978       50.330    11615.581    12316.222     2533.101        4.833        1.323      262.032       48.106        0.034      344.017       20.535      855.825
04/18/2014  17:57:00     -200.466      -65.567       -0.259      103.372       96.652       57.290    10685.699     9341.584     3282.102        3.389        1.165      210.916       58.358        0.077      344.144       20.750      855.785
04/18/2014  17:58:00      -51.898        4.144       13.722      110.820       55.418       43.416    12280.974     3071.144     1884.943        1.006        0.862       52.063       47.311        0.826      344.212       20.869      855.791
04/18/2014  17:59:00     -170.606       -9.413       -9.657      102.717       85.045       37.349    10550.717     7232.644     1394.932        2.423        0.959      170.866       34.928        0.042      344.110       20.696      855.800
04/18/2014  18:00:00     -297.125       -4.134      -26.405       82.704       87.102       56.007     6839.934     7586.791     3136.761        5.328        0.878      297.154       44.971        0.023      344.090       20.660      855.803
04/18/2014  18:01:00     -133.812      121.620      -19.200       76.941      117.605       51.574     5919.891    13830.932     2659.846        2.773        1.121      180.823       53.532        0.088      344.186       20.823      855.825
04/18/2014  18:02:00     -166.126      171.193      -25.645      100.185       94.917       48.650    10037.043     9009.325     2366.797        3.948        1.071      238.547       48.784        0.042      344.177       20.807      855.870
04/18/2014  18:03:00     -135.538      191.103      -32.482       63.868       55.634       37.336     4079.059     3095.161     1393.985        3.226        0.428      234.288       30.519        0.017      344.126       20.720      855.885
04/18/2014  18:04:00      -35.982      204.070      -25.921       54.320       78.610       35.194     2950.686     6179.529     1238.621        2.699        0.518      207.218       35.770        0.030      344.103       20.683      855.894
04/18/2014  18:05:00      -73.301      132.495       -8.853       57.317       76.749       33.043     3285.209     5890.397     1091.830        1.663        0.513      151.420       22.949        0.023      344.197       20.843      855.901
04/18/2014  18:06:00     -105.642      136.093      -19.167       61.011      109.713       40.413     3722.387    12037.049     1633.236        2.372        0.870      172.283       36.689        0.045      344.097       20.672      855.918
04/18/2014  18:07:00      -28.002      161.762      -22.158       41.288       65.784       27.796     1704.677     4327.493      772.609        1.712        0.340      164.168       28.747        0.031      344.088       20.658      855.941
04/18/2014  18:08:00      -60.891       25.989       20.640      105.428       96.501       61.770    11115.139     9312.450     3815.474        1.452        1.212       66.206       52.239        0.623      344.181       20.816      855.943
04/18/2014  18:09:00     -135.190       -5.277      -11.969       56.278       69.515       37.539     3167.257     4832.283     1409.149        1.393        0.470      135.293       31.414        0.054      344.011       20.526      855.989
04/18/2014  18:10:00     -143.455      -52.093       -4.475       72.429       61.579       33.943     5246.020     3791.986     1152.155        1.675        0.510      152.621       21.514        0.020      344.079       20.642      856.013
04/18/2014  18:11:00     -155.004      -46.313      -18.385       72.359       34.307       17.577     5235.870     1176.967      308.945        1.661        0.336      161.775       19.588        0.015      343.951       20.423      856.052
04/18/2014  18:12:00     -124.847      -23.940      -15.867       46.892       34.624       22.455     2198.847     1198.851      504.228        1.016        0.195      127.122       20.846        0.027      343.999       20.507      856.103
04/18/2014  18:13:00     -136.862      -72.896       -4.731       56.129       51.648       32.299     3150.498     2667.505     1043.204        1.546        0.343      155.064       27.277        0.031      344.014       20.532      856.168
04/18/2014  18:14:00     -118.735     -140.807       16.094       84.800       67.724       41.318     7190.970     4586.572     1707.165        2.383        0.674      184.186       41.086        0.050      344.059       20.606      856.230
04/18/2014  18:15:00     -206.801     -220.470       -7.257      227.345      134.241       78.491    51685.727    18020.778     6160.793        8.363        3.793      302.281       74.712        0.061      343.786       20.140      856.166
04/18/2014  18:16:00     -446.202     -155.460      -14.752      328.674      223.469      116.188   108026.292    49938.507    13499.538       19.744        8.573      472.508      133.965        0.080      343.533       19.710      856.178
04/18/2014  18:17:00     -350.709     -106.028       -3.168      265.316      195.929       83.664    70392.813    38388.301     6999.632       12.499        5.789      366.386      107.729        0.086      343.497       19.648      856.189
04/18/2014  18:18:00     -402.920     -273.354        0.864      256.396      209.009      127.908    65738.768    43684.834    16360.511       18.140        6.289      486.895      129.490        0.071      343.367       19.426      856.172
04/18/2014  18:19:00     -395.309     -211.711       -4.656      217.984      191.837      100.741    47517.163    36801.256    10148.804       14.777        4.723      448.431       93.019        0.043      343.412       19.501      856.228
04/18/2014  18:20:00     -215.334       -5.076      -19.280      165.904      114.955       64.481    27524.046    13214.611     4157.751        4.582        2.245      215.394       68.547        0.101      343.520       19.685      856.319
04/18/2014  18:21:00     -318.073     -146.731       -3.386      232.973      166.455       96.377    54276.358    27707.115     9288.557       10.697        4.564      350.286       96.478        0.076      343.437       19.545      856.353
04/18/2014  18:22:00     -421.507     -114.042       -9.651      203.376      168.243       84.075    41361.997    28305.734     7068.573       13.374        3.837      436.662       93.625        0.046      343.324       19.351      856.381
04/18/2014  18:23:00     -439.478     -176.948      -15.256      211.053      189.987       89.078    44543.415    36095.220     7934.802       15.661        4.429      473.763      100.795        0.045      343.182       19.111      856.443
04/18/2014  18:24:00     -287.735     -104.263        5.894      198.147      158.229       95.330    39262.367    25036.447     9087.771        8.353        3.669      306.043       96.839        0.100      343.078       18.933      856.439
04/18/2014  18:25:00     -469.940      -96.999      -17.563      165.335      156.154       84.250    27335.816    24383.997     7098.110       14.468        2.941      479.847       85.374        0.032      343.012       18.821      856.448
04/18/2014  18:26:00     -458.108     -100.062       -7.994      202.918      138.837       77.494    41175.837    19275.606     6005.395       14.318        3.323      468.909       92.445        0.039      342.984       18.772      856.474
04/18/2014  18:27:00     -389.048     -112.232      -32.925      223.747      148.799       85.410    50062.603    22140.994     7294.950       12.225        3.975      404.912       98.492        0.059      343.035       18.859      856.501
04/18/2014  18:28:00     -549.601     -142.934      -44.560      234.211      200.165      103.424    54854.919    40066.044    10696.460       21.503        5.281      567.883      112.729        0.039      342.820       18.495      856.507
04/18/2014  18:29:00     -477.713      -68.146       -2.326      271.417      125.652       89.443    73667.204    15788.498     8000.112       16.514        4.873      482.549      107.524        0.050      342.786       18.436      856.563
04/18/2014  18:30:00     -357.611      -81.933       -1.653      173.559      143.007       74.231    30122.687    20451.016     5510.232        9.533        2.804      366.877       81.212        0.049      342.772       18.412      856.589
04/18/2014  18:31:00     -367.300      -70.367       -5.486      223.588      169.614       80.586    49991.433    28769.013     6494.082       11.256        4.263      373.980       82.842        0.049      342.702       18.293      856.623
04/18/2014  18:32:00     -214.852      -92.549       -9.248      135.885      138.009       66.592    18464.701    19046.498     4434.440        4.837        2.097      233.938       64.462        0.076      342.774       18.414      856.633
04/18/2014  18:33:00     -310.198     -145.090       -4.871      202.734      145.000       73.779    41100.874    21025.087     5443.324        9.242        3.378      342.453       87.963        0.066      342.684       18.264      856.630
04/18/2014  18:34:00     -436.252      -93.300      -17.291      196.207      197.905       96.694    38497.293    39166.521     9349.826       14.315        4.351      446.117       95.938        0.046      342.630       18.171      856.620
04/18/2014  18:35:00     -437.446     -172.021      -10.102      280.697      179.879       81.067    78790.539    32356.380     6571.838       16.936        5.886      470.053      111.670        0.056      342.630       18.172      856.635
04/18/2014  18:36:00     -162.132      -40.174       22.893      120.859      127.117       76.490    14606.957    16158.773     5850.764        3.251        1.831      167.036       64.789        0.150      342.757       18.387      856.650
04/18/2014  18:37:00     -248.327      -85.760       -3.615      111.514      122.434       59.586    12435.316    14990.118     3550.529        5.000        1.549      262.718       51.470        0.038      342.746       18.369      856.642
04/18/2014  18:38:00     -311.923      -88.006        2.001      170.849      131.350       70.455    29189.261    17252.752     4963.906        7.822        2.570      324.100       83.100        0.066      342.698       18.287      856.634
04/18/2014  18:39:00     -382.406     -141.152      -21.016      212.862      181.245       90.460    45310.030    32849.880     8183.025       12.645        4.317      407.625       98.807        0.059      342.733       18.346      856.691
04/18/2014  18:40:00     -417.547      -59.008      -29.889      175.088      142.822       61.022    30655.906    20398.030     3723.645       11.674        2.739      421.696       47.297        0.013      342.676       18.249      856.755
04/18/2014  18:41:00     -326.236     -114.496        1.084      146.821      144.715       68.343    21556.335    20942.341     4670.703        8.335        2.358      345.745       63.749        0.034      342.691       18.273      856.749
04/18/2014  18:42:00     -478.865      -32.867      -39.373      166.110      139.557       71.805    27592.445    19476.200     5155.890       14.207        2.611      479.992       83.449        0.030      342.611       18.140      856.768
04/18/2014  18:43:00     -309.913      -10.018       -8.314      174.744      111.810       74.976    30535.620    12501.446     5621.392        7.243        2.433      310.074       88.382        0.081      342.669       18.238      856.747
04/18/2014  18:44:00     -405.280      -27.352      -25.948      162.853      145.770       73.451    26521.129    21248.805     5395.039       10.941        2.658      406.202       73.304        0.033      342.533       18.006      856.730
04/18/2014  18:45:00     -419.555     -109.366       -1.511      207.982      146.482       92.880    43256.419    21456.940     8626.740       13.065        3.667      433.575      106.373        0.060      342.477       17.912      856.724
04/18/2014  18:46:00     -383.373     -134.935       -4.024      165.576      178.507       89.979    27415.333    31864.587     8096.211       11.627        3.369      406.426       92.682        0.052      342.481       17.917      856.721
04/18/2014  18:47:00     -590.386     -119.754      -20.422      229.991      188.506       87.511    52896.069    35534.647     7658.092       22.968        4.804      602.409      104.804        0.030      342.420       17.814      856.688
04/18/2014  18:48:00     -272.029      -93.682       19.538      236.389      155.130      101.208    55879.571    24065.235    10243.130        8.665        4.509      287.708      118.866        0.171      342.511       17.968      856.695
04/18/2014  18:49:00     -398.062      -36.001      -29.438      216.396      132.022       81.569    46827.369    17429.850     6653.465       11.575        3.546      399.687       96.378        0.058      342.478       17.914      856.702
04/18/2014  18:50:00     -415.503      -79.925      -13.338      186.869      146.704       94.519    34919.958    21522.030     8933.914       12.228        3.269      423.120       95.828        0.051      342.518       17.980      856.697
04/18/2014  18:51:00     -420.950     -147.324       -7.728      223.800      168.882       97.936    50086.603    28520.999     9591.406       14.356        4.410      445.986       88.767        0.040      342.516       17.977      856.714
04/18/2014  18:52:00     -390.998     -105.473      -19.725      214.732      159.519       85.136    46109.835    25446.422     7248.191       12.158        3.940      404.974       96.164        0.056      342.538       18.016      856.722
04/18/2014  18:53:00     -273.779     -155.175       11.814      190.768      165.634      107.827    36392.430    27434.621    11626.562        8.730        3.773      314.697      113.412        0.130      342.588       18.100      856.748
04/18/2014  18:54:00     -416.771     -180.411       -1.428      225.401      166.549       87.330    50805.512    27738.454     7626.457       14.619        4.309      454.143       93.294        0.042      342.529       17.999      856.789
04/18/2014  18:55:00     -236.654     -117.332       -4.358      149.998       97.520       78.774    22499.513     9510.058     6205.300        5.400        1.911      264.144       70.696        0.072      342.578       18.083      856.813
04/18/2014  18:56:00     -374.166     -136.294      -19.278      205.753      156.196       89.144    42334.134    24397.185     7946.659       11.680        3.734      398.216      100.624        0.064      342.549       18.032      856.818
04/18/2014  18:57:00     -328.018     -201.136       -8.792      198.432      140.450       74.289    39375.168    19726.111     5518.866       10.636        3.231      384.774       93.393        0.059      342.548       18.031      856.834
04/18/2014  18:58:00     -429.435     -220.459        8.244      286.494      208.295      121.390    82078.726    43386.770    14735.449       18.661        7.010      482.718      141.634        0.086      342.450       17.865      856.837
04/18/2014  18:59:00     -481.631     -210.695       -8.926      215.171      170.031       91.213    46298.578    28910.398     8319.842       17.997        4.176      525.700      108.485        0.043      342.445       17.855      856.864
04/18/2014  19:00:00     -310.493      -87.675        0.464      143.618      116.387       73.536    20626.172    13545.955     5407.517        7.183        1.979      322.634       72.676        0.051      342.478       17.910      856.879
04/18/2014  19:01:00     -301.222      -46.917       -4.831      126.242      108.943       58.729    15936.944    11868.534     3449.144        6.210        1.563      304.854       60.871        0.040      342.465       17.889      856.876
04/18/2014  19:02:00     -328.414     -110.131      -24.054      123.301      148.512       64.393    15203.015    22055.914     4146.428        8.098        2.070      346.388       54.818        0.025      342.455       17.874      856.870
04/18/2014  19:03:00     -380.203     -187.494       -9.034      219.833      174.376       86.379    48326.569    30406.893     7461.303       13.298        4.310      423.921      117.358        0.077      342.434       17.837      856.876
04/18/2014  19:04:00     -113.353      -95.900       10.791      164.021      123.675       83.827    26902.782    15295.587     7027.034        3.568        2.461      148.478       98.691        0.442      342.517       17.980      856.875
04/18/2014  19:05:00     -401.314     -108.499      -14.927      197.028      118.166       73.969    38820.073    13963.143     5471.437       11.564        2.913      415.722       78.597        0.036      342.440       17.848      856.876
04/18/2014  19:06:00     -267.337     -175.081       -6.101      137.476      182.756       74.915    18899.525    33399.594     5612.189        8.002        2.896      319.566       76.903        0.058      342.464       17.890      856.858
04/18/2014  19:07:00     -262.307     -156.666      -19.455      118.262      116.492       56.115    13985.964    13570.304     3148.887        6.221        1.535      305.531       49.256        0.026      342.501       17.952      856.873
04/18/2014  19:08:00     -128.499      -43.304        0.379       94.840       73.903       44.906     8994.589     5461.609     2016.562        1.743        0.824      135.599       41.175        0.092      342.576       18.081      856.891
04/18/2014  19:09:00     -191.554      -58.798      -14.281      135.996       93.011       59.933    18494.924     8651.050     3591.945        3.554        1.537      200.375       60.980        0.093      342.525       17.993      856.890
04/18/2014  19:10:00     -288.290     -236.141      -16.992      148.573      126.614       82.385    22074.033    16031.132     6787.232        9.202        2.245      372.658       89.390        0.058      342.487       17.927      856.910
04/18/2014  19:11:00     -227.098      -74.530       18.846      130.359      110.661       56.338    16993.570    12245.942     3174.026        4.494        1.621      239.015       62.082        0.067      342.481       17.917      856.952
04/18/2014  19:12:00     -317.542      -78.805        1.652      162.947      151.973       65.482    26551.689    23095.942     4287.853        8.048        2.697      327.174       58.018        0.031      342.356       17.704      856.951
04/18/2014  19:13:00     -304.478     -177.531      -11.517      154.917      130.700       78.143    23999.355    17082.588     6106.282        8.576        2.359      352.454       80.439        0.052      342.222       17.477      856.963
04/18/2014  19:14:00     -408.415     -141.944      -11.182      180.150      186.706       82.373    32454.186    34859.149     6785.323       13.057        3.705      432.378       90.704        0.044      342.122       17.307      856.965
04/18/2014  19:15:00     -525.820     -320.106      -13.064      202.099      215.148       95.243    40843.993    46288.467     9071.170       23.765        4.810      615.593      101.074        0.027      341.923       16.970      856.961
04/18/2014  19:16:00     -434.204     -297.580      -20.455      169.880      147.812       89.599    28859.301    21848.324     8028.055       16.811        2.937      526.391       93.397        0.031      341.954       17.021      856.975
04/18/2014  19:17:00     -435.629     -234.451      -24.899      206.853      180.683       90.140    42788.169    32646.378     8125.153       16.444        4.178      494.712       94.954        0.037      342.054       17.191      856.968
04/18/2014  19:18:00     -408.592     -157.775       -1.250      224.805      155.746       94.616    50537.079    24256.877     8952.129       13.778        4.187      437.996       99.062        0.051      342.048       17.181      856.985
04/18/2014  19:19:00     -340.958     -250.781        3.015      246.990      171.738      108.004    61003.980    29493.998    11664.945       14.064        5.108      423.253      119.676        0.080      342.026       17.143      856.997
04/18/2014  19:20:00     -329.639     -197.604       -2.691      247.060      160.806       94.043    61038.784    25858.609     8844.017       12.171        4.787      384.330      111.162        0.084      342.031       17.152      857.019
04/18/2014  19:21:00     -410.711     -168.121      -22.654      124.693      143.696       71.993    15548.267    20648.638     5183.028       11.941        2.069      443.788       62.596        0.020      341.949       17.014      857.047
04/18/2014  19:22:00     -270.405     -176.608       -6.837      153.728      125.967       78.257    23632.418    15867.668     6124.082        7.498        2.281      322.970       75.664        0.055      341.962       17.034      857.062
04/18/2014  19:23:00     -270.933     -236.865      -17.517      182.678      145.749       87.365    33371.341    21242.865     7632.610        9.602        3.112      359.874       95.492        0.070      341.907       16.943      857.053
04/18/2014  19:24:00     -243.440     -120.820       -2.205      137.761      157.130       76.177    18978.068    24689.693     5802.932        6.166        2.474      271.773       76.413        0.079      341.924       16.971      857.067
04/18/2014  19:25:00     -335.876     -107.514      -13.988      225.616      140.517       78.050    50902.554    19744.970     6091.746       10.064        3.837      352.664       93.135        0.070      341.973       17.055      857.070
04/18/2014  19:26:00     -398.727     -217.884      -11.885      131.499      124.842       79.069    17292.045    15585.470     6251.862       12.286        1.956      454.375       67.225        0.022      341.932       16.985      857.060
04/18/2014  19:27:00     -260.449     -133.409        0.686      158.500      119.460       79.585    25122.167    14270.673     6333.779        6.567        2.286      292.629       77.394        0.070      341.984       17.072      857.077
04/18/2014  19:28:00     -238.830      -66.593       -5.507      128.151      119.460       64.280    16422.654    14270.629     4131.977        4.816        1.741      247.940       65.911        0.071      342.039       17.167      857.088
04/18/2014  19:29:00     -346.275      -83.501       -9.176      204.837      143.353       64.283    41958.168    20549.956     4132.261        9.679        3.332      356.201       73.093        0.042      342.048       17.183      857.095
04/18/2014  19:30:00     -392.425      -94.329      -15.501      171.863      144.666       75.799    29536.834    20928.207     5745.517       10.966        2.811      403.603       70.064        0.030      341.968       17.046      857.093
04/18/2014  19:31:00     -324.954      -47.548      -11.449      122.871      138.375       65.651    15097.350    19147.520     4310.073        7.326        1.928      328.414       66.344        0.041      341.976       17.060      857.098
04/18/2014  19:32:00     -221.096     -130.347      -16.245      126.871      119.232       66.646    16096.184    14216.170     4441.740        5.044        1.738      256.659       66.498        0.067      341.973       17.054      857.095
04/18/2014  19:33:00     -222.773      -39.474        5.840      125.665       82.656       62.979    15791.671     6832.078     3966.310        3.890        1.330      226.244       70.181        0.096      342.001       17.103      857.081
04/18/2014  19:34:00     -214.494     -143.059        6.591      154.862      124.654       67.229    23982.297    15538.518     4519.795        5.527        2.202      257.825       78.397        0.092      342.029       17.149      857.086
04/18/2014  19:35:00     -237.443     -149.759       -1.303      162.819      115.063       75.605    26510.165    13239.538     5716.134        6.213        2.273      280.725       90.374        0.104      341.969       17.049      857.079
04/18/2014  19:36:00     -307.302      -81.464       -9.911      138.762      105.698       53.905    19254.962    11172.152     2905.771        6.724        1.667      317.916       59.885        0.035      341.966       17.042      857.093
04/18/2014  19:37:00     -330.864      -48.199        6.500      171.812      146.675       90.139    29519.341    21513.412     8124.980        8.549        2.958      334.356       97.591        0.085      341.898       16.927      857.100
04/18/2014  19:38:00     -224.260      -26.181       16.278      147.036      117.418       64.920    21619.478    13786.997     4214.639        4.542        1.981      225.783       72.283        0.102      341.940       16.999      857.105
04/18/2014  19:39:00     -271.276     -124.108       -0.568      174.309      115.693       67.826    30383.457    13384.755     4600.326        6.867        2.418      298.318       79.340        0.071      341.931       16.984      857.107
04/18/2014  19:40:00     -207.824      -76.838        0.598       90.880      108.311       49.612     8259.106    11731.209     2461.381        3.577        1.123      221.574       47.225        0.045      341.941       16.998      857.132
04/18/2014  19:41:00     -288.904      -37.302        2.397      137.805      102.789       64.818    18990.354    10565.545     4201.401        5.930        1.688      291.302       71.266        0.060      341.916       16.958      857.164
04/18/2014  19:42:00     -347.193       -4.985      -17.409      134.127       97.501       62.520    17990.162     9506.465     3908.729        7.613        1.570      347.229       68.916        0.039      341.913       16.953      857.199
04/18/2014  19:43:00     -262.606      -25.257      -14.528      130.612       85.988       40.955    17059.511     7394.003     1677.311        4.797        1.307      263.818       47.309        0.032      341.920       16.964      857.231
04/18/2014  19:44:00     -146.489      -83.707       16.196      101.916      111.709       58.205    10386.822    12478.923     3387.785        2.749        1.313      168.719       61.789        0.134      341.977       17.063      857.271
04/18/2014  19:45:00     -229.574      -52.738      -21.824      113.587      108.241       55.291    12902.034    11716.086     3057.051        4.181        1.384      235.553       39.965        0.029      342.003       17.105      857.288
04/18/2014  19:46:00     -173.998      -30.560        6.184      102.117       69.913       47.082    10427.943     4887.883     2216.681        2.439        0.877      176.661       49.867        0.080      341.970       17.050      857.320
04/18/2014  19:47:00     -306.205      -61.360      -12.083      112.710       99.453       59.534    12703.538     9890.974     3544.303        6.190        1.307      312.292       58.180        0.035      341.902       16.934      857.336
04/18/2014  19:48:00     -270.979      -82.514      -17.401       94.835      110.386       53.572     8993.769    12184.965     2869.913        5.229        1.202      283.263       51.098        0.033      341.875       16.888      857.351
04/18/2014  19:49:00     -164.488      -28.846        5.801      107.577       67.414       50.338    11572.885     4544.601     2533.884        2.328        0.933      166.998       51.551        0.095      341.830       16.813      857.367
04/18/2014  19:50:00     -221.931      -46.555       -8.239       85.560       80.290       40.410     7320.477     6446.492     1633.003        3.344        0.770      226.761       42.618        0.035      341.840       16.829      857.378
04/18/2014  19:51:00     -136.368      -43.590       -6.000       90.422       88.274       48.877     8176.133     7792.358     2388.976        1.944        0.918      143.165       51.697        0.130      341.851       16.849      857.373
04/18/2014  19:52:00     -222.696      -79.284      -17.190      143.466      108.807       64.303    20582.400    11838.898     4134.923        4.636        1.828      236.388       72.806        0.095      341.789       16.742      857.389
04/18/2014  19:53:00     -282.357      -44.087      -22.676       85.666       67.323       42.319     7338.624     4532.392     1790.859        4.792        0.683      285.778       44.249        0.024      341.800       16.758      857.400
04/18/2014  19:54:00     -166.770      -65.229        4.305       72.799       81.564       37.986     5299.656     6652.743     1442.920        2.274        0.670      179.072       36.982        0.043      341.794       16.754      857.423
04/18/2014  19:55:00     -163.579      -41.773       -4.879       82.224       77.474       36.133     6760.727     6002.169     1305.598        2.129        0.703      168.828       40.080        0.056      341.805       16.771      857.442
04/18/2014  19:56:00     -206.427      -52.972      -18.071       88.088       65.601       42.627     7759.580     4303.481     1817.021        2.981        0.694      213.115       38.765        0.033      341.762       16.698      857.446
04/18/2014  19:57:00      -83.892      -22.486        7.944       52.386       50.732       31.918     2744.264     2573.781     1018.750        0.697        0.317       86.853       28.228        0.106      341.795       16.757      857.447
04/18/2014  19:58:00      -97.828      -42.549        5.727       86.605       65.409       35.719     7500.446     4278.275     1275.850        1.223        0.653      106.681       37.897        0.126      341.819       16.794      857.444
04/18/2014  19:59:00      -77.324      -49.031       13.609       91.605       53.890       32.475     8391.396     2904.131     1054.645        1.046        0.618       91.559       45.275        0.245      341.816       16.793      857.457
04/18/2014  20:00:00     -192.631      -88.934       -2.917      122.859      106.107       56.406    15094.318    11258.623     3181.640        3.727        1.477      212.170       78.127        0.136      341.773       16.714      857.445
04/18/2014  20:01:00     -102.002      -78.779        8.041       83.645       86.562       43.068     6996.461     7493.025     1854.822        1.651        0.817      128.882       48.445        0.141      341.773       16.717      857.464
04/18/2014  20:02:00     -133.668      -63.477       -7.515       50.095       49.414       34.161     2509.548     2441.785     1166.999        1.403        0.306      147.975       28.680        0.038      341.814       16.788      857.463
04/18/2014  20:03:00     -249.341      -91.416      -21.149      124.073       88.113       54.248    15394.100     7763.930     2942.827        4.853        1.305      265.571       58.041        0.048      341.730       16.642      857.469
04/18/2014  20:04:00     -134.826      -83.455        4.816       88.940       64.317       42.740     7910.276     4136.694     1826.674        1.952        0.694      158.565       39.575        0.062      341.736       16.653      857.483
04/18/2014  20:05:00      -99.088      -84.699        5.890       77.873       55.642       44.838     6064.197     3096.086     2010.462        1.410        0.559      130.355       45.427        0.121      341.755       16.687      857.501
04/18/2014  20:06:00     -138.175      -72.306       -3.517       72.056       69.262       41.521     5192.107     4797.263     1723.983        1.802        0.586      155.950       36.668        0.055      341.681       16.562      857.511
04/18/2014  20:07:00     -178.014      -89.802       -9.842       73.043       72.721       40.610     5335.340     5288.310     1649.141        2.606        0.614      199.383       39.113        0.038      341.669       16.539      857.519
04/18/2014  20:08:00     -207.279       41.720      -10.387       67.528       56.043       30.569     4560.029     3140.846      934.465        2.672        0.432      211.436       23.967        0.013      341.707       16.603      857.538
04/18/2014  20:09:00     -133.267       -1.431       -5.397       74.547       55.691       41.693     5557.195     3101.505     1738.338        1.409        0.520      133.275       44.492        0.111      341.660       16.525      857.539
04/18/2014  20:10:00     -232.328      -51.357       -8.389      112.314       77.345       39.061    12614.403     5982.207     1525.731        3.840        1.006      237.936       44.054        0.034      341.689       16.575      857.543
04/18/2014  20:11:00     -214.281      -30.815      -10.434       99.417       86.312       48.923     9883.744     7449.792     2393.456        3.335        0.986      216.485       50.395        0.054      341.638       16.485      857.544
04/18/2014  20:12:00     -216.084      -79.796       -7.697       54.333       76.658       35.070     2952.078     5876.381     1229.937        3.159        0.503      230.347       31.815        0.019      341.653       16.512      857.538
04/18/2014  20:13:00     -184.302      -69.075        7.223       92.780       71.259       36.579     8608.164     5077.912     1338.043        2.690        0.751      196.821       42.738        0.047      341.696       16.585      857.553
04/18/2014  20:14:00     -182.826      -43.825      -14.174       84.947       71.260       36.388     7216.051     5077.996     1324.088        2.458        0.681      188.005       36.384        0.037      341.733       16.647      857.554
04/18/2014  20:15:00     -181.812      -62.949       -8.994      111.870       76.030       36.136    12514.798     5780.540     1305.834        2.835        0.980      192.401       36.980        0.037      341.765       16.703      857.553
04/18/2014  20:16:00     -144.166      -88.104       -1.017      123.484       64.276       46.777    15248.193     4131.430     2188.048        2.505        1.078      168.956       46.194        0.075      341.780       16.728      857.566
04/18/2014  20:17:00     -156.986      -11.251       11.101      109.336       81.843       40.431    11954.261     6698.198     1634.662        2.259        1.014      157.389       50.301        0.102      341.799       16.762      857.575
04/18/2014  20:18:00     -182.488      -17.641       -6.052       99.596       59.551       38.530     9919.341     3546.336     1484.532        2.430        0.748      183.338       47.999        0.069      341.881       16.899      857.572
04/18/2014  20:19:00     -135.862      -47.825        7.859       89.325       74.868       45.215     7979.039     5605.197     2044.382        1.821        0.781      144.033       42.680        0.088      341.839       16.828      857.577
04/18/2014  20:20:00     -197.067      -49.976       -6.070       81.273       59.174       37.052     6605.315     3501.557     1372.881        2.642        0.574      203.305       39.593        0.038      341.888       16.909      857.579
04/18/2014  20:21:00     -138.116      -38.764        2.877      108.919       65.966       40.886    11863.393     4351.449     1671.646        1.923        0.894      143.453       51.349        0.128      341.920       16.966      857.574
04/18/2014  20:22:00     -234.660       -0.265      -10.668       99.016       86.817       48.771     9804.253     7537.228     2378.624        3.745        0.986      234.660       50.470        0.046      341.978       17.062      857.577
04/18/2014  20:23:00     -248.894       -6.073       -9.434       85.658       91.036       50.826     7337.283     8287.511     2583.256        4.014        0.910      248.968       49.258        0.039      341.984       17.073      857.576
04/18/2014  20:24:00     -201.673      -20.945       -7.173       97.445       82.163       49.600     9495.477     6750.762     2460.147        2.993        0.935      202.758       48.857        0.058      341.972       17.053      857.582
04/18/2014  20:25:00     -195.034      -76.113      -13.045       75.083       72.437       40.646     5637.386     5247.162     1652.107        2.827        0.627      209.360       30.302        0.021      341.959       17.030      857.586
04/18/2014  20:26:00     -196.275      -25.099       -9.458      104.649       84.693       46.111    10951.381     7172.954     2126.266        2.974        1.013      197.873       61.832        0.098      341.986       17.078      857.589
04/18/2014  20:27:00     -227.284      -51.183      -13.916       64.933       58.062       39.019     4216.349     3371.180     1522.466        3.179        0.455      232.976       39.560        0.029      341.989       17.082      857.599
04/18/2014  20:28:00     -188.882      -42.659       -7.717       92.577       76.375       40.629     8570.532     5833.211     1650.707        2.680        0.803      193.639       45.320        0.055      341.999       17.098      857.607
04/18/2014  20:29:00     -205.024      -35.039       -9.095       90.163       65.386       37.311     8129.428     4275.265     1392.130        2.857        0.690      207.997       41.014        0.039      342.023       17.140      857.635
04/18/2014  20:30:00     -314.179      -23.650      -13.790      131.854      111.670       54.324    17385.435    12470.158     2951.070        6.613        1.640      315.068       60.167        0.036      342.028       17.148      857.656
04/18/2014  20:31:00     -212.764      -15.240       -3.232       97.736       81.394       47.336     9552.359     6624.957     2240.733        3.196        0.921      213.309       45.240        0.045      342.049       17.184      857.685
04/18/2014  20:32:00     -231.606      -13.093       -7.730       96.568       60.807       44.589     9325.359     3697.460     1988.196        3.444        0.751      231.976       46.362        0.040      342.073       17.224      857.693
04/18/2014  20:33:00     -231.575      -18.516      -11.369      106.644       71.792       44.191    11372.926     5154.141     1952.866        3.629        0.924      232.314       48.937        0.044      342.063       17.206      857.701
04/18/2014  20:34:00     -229.585      -32.979       -6.746      114.640       70.297       44.970    13142.393     4941.613     2022.260        3.697        1.005      231.942       45.553        0.039      342.055       17.195      857.692
04/18/2014  20:35:00     -205.544        3.335      -23.229       89.600       70.769       34.649     8028.142     5008.208     1200.581        2.852        0.712      205.571       33.417        0.026      342.127       17.316      857.698
04/18/2014  20:36:00     -238.778      -23.956      -14.866      103.752       99.570       51.359    10764.473     9914.275     2637.737        4.056        1.166      239.977       44.016        0.034      342.120       17.305      857.711
04/18/2014  20:37:00     -299.217      -41.015      -13.018      106.296       79.027       46.555    11298.814     6245.188     2167.386        5.554        0.986      302.015       48.027        0.025      342.070       17.218      857.719
04/18/2014  20:38:00     -184.996      -11.399       -8.097       67.842       62.534       37.352     4602.480     3910.490     1395.166        2.216        0.495      185.347       34.508        0.035      342.122       17.309      857.713
04/18/2014  20:39:00     -223.927      -84.821        5.347      136.820       97.723       48.614    18719.587     9549.819     2363.294        4.399        1.532      239.453       55.286        0.053      342.046       17.177      857.730
04/18/2014  20:40:00     -334.532     -116.808      -14.504      112.297       93.965       53.042    12610.722     8829.427     2813.503        7.500        1.213      354.338       54.442        0.024      342.100       17.272      857.751
04/18/2014  20:41:00     -338.197     -108.107      -18.832       94.850       82.849       53.066     8996.560     6863.997     2816.015        7.254        0.934      355.055       51.009        0.021      342.134       17.328      857.761
04/18/2014  20:42:00     -320.338     -101.183      -11.075      122.915       74.472       44.076    15108.197     5546.043     1942.670        6.778        1.130      335.938       51.096        0.023      342.140       17.338      857.773
04/18/2014  20:43:00     -238.532      -14.880       -0.943      142.784       80.998       56.101    20387.140     6560.649     3147.271        4.360        1.505      238.996       66.032        0.076      342.132       17.325      857.782
04/18/2014  20:44:00     -300.756      -76.049        9.291      132.800       96.528       66.830    17635.962     9317.688     4466.221        6.387        1.571      310.222       70.613        0.052      342.156       17.365      857.796
04/18/2014  20:45:00     -327.615      -53.985      -15.027      108.271      101.202       46.067    11722.663    10241.799     2122.134        6.727        1.204      332.033       48.570        0.021      342.186       17.417      857.799
04/18/2014  20:46:00     -375.358      -79.301      -23.623       98.087       81.793       49.618     9621.086     6690.131     2461.969        8.325        0.939      383.643       37.549        0.010      342.204       17.447      857.798
04/18/2014  20:47:00     -338.702      -29.664      -24.595      140.689      108.201       61.040    19793.414    11707.407     3725.844        7.571        1.761      339.999       69.810        0.042      342.238       17.505      857.804
04/18/2014  20:48:00     -333.549      -71.370       -4.261      114.078      104.322       65.794    13013.811    10883.116     4328.849        7.229        1.411      341.099       62.758        0.034      342.224       17.482      857.812
04/18/2014  20:49:00     -256.104      -37.520      -18.013       90.664       96.904       50.783     8219.871     9390.467     2578.930        4.375        1.009      258.837       50.624        0.038      342.259       17.541      857.835
04/18/2014  20:50:00     -291.183      -52.116      -22.149       93.452       92.160       47.963     8733.260     8493.551     2300.477        5.376        0.976      295.810       42.877        0.021      342.282       17.581      857.850
04/18/2014  20:51:00     -245.082      -61.762      -22.752      102.953       72.516       47.672    10599.267     5258.580     2272.652        4.126        0.907      252.745       43.958        0.030      342.293       17.599      857.853
04/18/2014  20:52:00     -288.332      -99.109      -27.388       86.340       70.013       49.168     7454.610     4901.856     2417.452        5.424        0.739      304.890       35.943        0.014      342.292       17.595      857.853
04/18/2014  20:53:00     -266.657     -131.176      -10.896      150.473       96.114       71.028    22642.191     9237.981     5044.987        6.267        1.846      297.175       71.510        0.058      342.265       17.550      857.836
04/18/2014  20:54:00     -290.722      -55.485      -11.393      148.574      104.477       63.363    22074.177    10915.391     4014.822        6.236        1.850      295.969       55.455        0.035      342.293       17.599      857.859
04/18/2014  20:55:00     -248.887      -22.727       -6.766      125.677       98.456       65.644    15794.740     9693.580     4309.105        4.615        1.490      249.923       68.060        0.074      342.268       17.557      857.866
04/18/2014  20:56:00     -180.059      -73.637       -7.527      103.189       79.690       43.923    10647.898     6350.536     1929.212        2.841        0.946      194.534       37.912        0.038      342.282       17.580      857.876
04/18/2014  20:57:00     -282.921      -35.468      -25.663      105.358       98.911       45.777    11100.361     9783.425     2095.569        5.247        1.149      285.136       43.097        0.023      342.296       17.603      857.882
04/18/2014  20:58:00     -150.215        1.646       -3.424       67.357       66.821       36.241     4536.960     4465.015     1313.403        1.645        0.516      150.224       37.039        0.061      342.340       17.679      857.875
04/18/2014  20:59:00     -210.449      -78.675      -20.782       74.046       53.610       36.410     5482.792     2874.005     1325.670        3.029        0.484      224.674       31.713        0.020      342.286       17.586      857.880
04/18/2014  21:00:00     -253.110      -58.306       -4.134      133.226       74.727       46.780    17749.180     5584.143     2188.336        4.650        1.276      259.739       59.869        0.053      342.215       17.465      857.892
04/18/2014  21:01:00     -249.476      -11.353      -11.479       89.675       89.136       57.001     8041.582     7945.143     3249.079        4.086        0.962      249.734       49.939        0.040      342.243       17.513      857.911
04/18/2014  21:02:00     -183.757      -85.195       -2.876      116.081       96.626       51.167    13474.705     9336.581     2618.081        3.323        1.271      202.546       58.421        0.083      342.226       17.485      857.934
04/18/2014  21:03:00      -98.643      -53.540       19.222       96.580      100.351       49.695     9327.744    10070.323     2469.545        1.741        1.093      112.236       50.841        0.205      342.180       17.409      857.958
04/18/2014  21:04:00     -212.812      -28.418       -2.988       88.786       74.531       43.428     7883.023     5554.813     1885.951        3.071        0.766      214.702       42.517        0.039      342.235       17.500      857.982
04/18/2014  21:05:00     -166.309      -29.235       -1.159      100.673       66.621       39.762    10134.978     4438.315     1581.023        2.233        0.808      168.859       51.350        0.092      342.241       17.510      857.992
04/18/2014  21:06:00     -195.574      -15.039       -1.757       91.149       83.170       57.561     8308.185     6917.320     3313.282        2.850        0.927      196.151       52.673        0.072      342.250       17.526      857.994
04/18/2014  21:07:00     -227.700      -64.900       -8.495      108.534      112.226       54.693    11779.733    12594.777     2991.362        4.174        1.368      236.768       60.430        0.065      342.195       17.432      858.001
04/18/2014  21:08:00     -153.533      -36.868        6.911       85.938       92.142       48.595     7385.278     8490.150     2361.506        2.160        0.912      157.898       41.228        0.068      342.187       17.419      858.012
04/18/2014  21:09:00     -320.966      -79.320      -25.915       92.646       86.743       52.260     8583.246     7524.273     2731.067        6.441        0.942      330.621       49.598        0.023      342.177       17.400      858.022
04/18/2014  21:10:00     -142.735      -52.078        3.416       93.170       71.762       57.252     8680.639     5149.779     3277.814        2.010        0.855      151.939       52.188        0.118      342.141       17.341      858.025
04/18/2014  21:11:00     -138.982      -81.997       14.000      122.212       75.905       52.378    14935.851     5761.536     2743.488        2.483        1.172      161.367       62.547        0.150      342.109       17.286      858.021
04/18/2014  21:12:00     -278.204     -146.657       -8.455      115.597       93.777       57.471    13362.619     8794.097     3302.913        6.221        1.273      314.493       62.355        0.039      342.110       17.288      858.014
04/18/2014  21:13:00     -256.887     -111.405      -10.124      126.407       92.350       61.165    15978.654     8528.540     3741.173        5.337        1.412      280.004       66.698        0.057      342.073       17.225      857.998
04/18/2014  21:14:00     -283.897     -135.085       -8.566      103.620       95.456       52.041    10737.172     9111.893     2708.290        6.073        1.128      314.397       49.093        0.024      342.073       17.224      857.992
04/18/2014  21:15:00     -231.798      -77.120       -2.321       93.065       92.972       52.916     8661.068     8643.750     2800.156        3.989        1.005      244.290       49.734        0.041      342.041       17.171      857.994
04/18/2014  21:16:00      -91.609      -64.763       19.897      125.170      112.238       67.962    15667.600    12597.401     4618.767        2.293        1.644      112.189       71.716        0.409      341.995       17.093      858.000
04/18/2014  21:17:00     -268.002      -75.193       -8.261      107.884       96.256       50.388    11639.035     9265.298     2538.903        5.049        1.172      278.350       50.076        0.032      342.008       17.115      858.011
04/18/2014  21:18:00     -212.891      -54.662      -15.924      103.201       66.472       38.464    10650.473     4418.502     1479.492        3.255        0.827      219.796       44.824        0.042      341.990       17.086      858.024
04/18/2014  21:19:00      -89.828       16.996        1.516       63.081       43.382       30.649     3979.254     1882.040      939.355        0.758        0.340       91.422       29.969        0.107      342.028       17.150      858.029
04/18/2014  21:20:00      -41.240       -2.476        3.858       71.142       46.657       30.407     5061.228     2176.871      924.604        0.494        0.408       41.314       36.914        0.798      341.968       17.048      858.034
04/18/2014  21:21:00     -163.104        9.134      -15.123      142.109       68.513       32.902    20195.042     4694.063     1082.519        2.644        1.299      163.359       50.652        0.096      342.039       17.167      858.036
04/18/2014  21:22:00     -155.534      -68.586       -2.463       86.284       68.750       33.728     7444.904     4726.510     1137.555        2.110        0.665      169.985       38.365        0.051      341.940       17.000      858.052
04/18/2014  21:23:00     -243.905      -60.005      -12.571       76.437       69.268       40.295     5842.610     4798.020     1623.694        3.775        0.613      251.178       35.822        0.020      341.912       16.951      858.086
04/18/2014  21:24:00     -191.038      -41.066       -0.983       74.252       74.471       37.471     5513.416     5545.900     1404.082        2.532        0.623      195.402       40.729        0.043      341.893       16.918      858.116
04/18/2014  21:25:00     -137.878      -37.541       -2.858       59.158       49.791       29.836     3499.701     2479.110      890.211        1.365        0.343      142.897       31.959        0.050      341.891       16.918      858.148
04/18/2014  21:26:00     -128.083      -53.788       11.739       85.887      102.421       45.988     7376.657    10490.098     2114.862        1.970        0.999      138.919       44.940        0.105      341.861       16.866      858.172
04/18/2014  21:27:00     -166.887      -70.513       10.206      131.157       90.586       49.799    17202.039     8205.776     2479.963        3.040        1.394      181.172       58.987        0.106      341.876       16.891      858.189
04/18/2014  21:28:00     -247.999     -129.007      -11.265      100.742       86.076       49.564    10148.933     7409.095     2456.578        4.914        1.001      279.547       43.377        0.024      341.893       16.918      858.206
04/18/2014  21:29:00     -195.760      -55.534       -1.082      105.351       84.138       42.321    11098.798     7079.272     1791.078        3.068        0.998      203.484       48.037        0.056      341.846       16.841      858.228
04/18/2014  21:30:00     -203.136      -48.472      -12.951      129.575       79.699       47.856    16789.745     6351.980     2290.182        3.460        1.272      208.839       46.420        0.049      341.872       16.883      858.239
04/18/2014  21:31:00     -236.825      -98.803       -7.439      127.175       78.863       60.558    16173.560     6219.384     3667.293        4.598        1.303      256.609       68.951        0.072      341.838       16.825      858.256
04/18/2014  21:32:00     -234.218      -41.903      -16.193       94.630       82.041       44.001     8954.790     6730.756     1936.111        3.725        0.881      237.936       44.528        0.035      341.837       16.822      858.254
04/18/2014  21:33:00     -181.255      -34.155       -4.780      104.557       84.292       48.638    10932.149     7105.193     2365.664        2.722        1.020      184.445       48.740        0.070      341.832       16.815      858.256
04/18/2014  21:34:00     -355.604      -69.485      -31.233      103.429      102.837       59.449    10697.493    10575.487     3534.229        7.853        1.240      362.329       63.023        0.030      341.791       16.748      858.265
04/18/2014  21:35:00     -278.572       -8.815      -25.556       93.271       84.359       54.829     8699.438     7116.375     3006.183        4.857        0.941      278.712       46.839        0.028      341.805       16.769      858.276
04/18/2014  21:36:00     -300.812      -20.037      -16.438      150.396       70.563       51.897    22619.090     4979.090     2693.340        6.072        1.515      301.478       63.939        0.045      341.775       16.718      858.278
04/18/2014  21:37:00     -310.450      -29.056      -25.467      108.655      110.088       49.345    11805.836    12119.392     2434.897        6.211        1.318      311.807       45.716        0.021      341.776       16.717      858.266
04/18/2014  21:38:00     -305.452      -86.709      -27.652       87.235       84.986       47.708     7609.960     7222.546     2276.045        5.934        0.855      317.520       38.049        0.014      341.728       16.639      858.266
04/18/2014  21:39:00     -257.019      -48.650      -15.300      147.878      102.769       50.578    21868.002    10561.383     2558.142        5.182        1.749      261.583       62.339        0.057      341.765       16.703      858.267
04/18/2014  21:40:00     -347.152      -86.194      -31.173      146.541      110.180       70.255    21474.158    12139.557     4935.755        8.372        1.927      357.692       71.973        0.040      341.709       16.606      858.247
04/18/2014  21:41:00     -230.569      -69.016       -4.081      150.697      114.267       62.950    22709.456    13056.844     3962.723        4.883        1.986      240.677       70.000        0.085      341.682       16.563      858.267
04/18/2014  21:42:00     -284.314      -71.809      -15.344      119.440      100.224       48.527    14265.803    10044.846     2354.886        5.644        1.333      293.242       48.853        0.028      341.666       16.534      858.285
04/18/2014  21:43:00     -262.572        4.698       -8.392      121.313       75.806       53.721    14716.764     5746.580     2885.900        4.619        1.167      262.614       60.156        0.052      341.680       16.559      858.287
04/18/2014  21:44:00     -158.830      -39.584       -3.480      135.070       75.801       52.413    18243.913     5745.731     2747.122        2.677        1.337      163.688       58.271        0.127      341.637       16.487      858.271
04/18/2014  21:45:00     -236.552      -76.364        4.054      167.308       99.131       61.190    27991.933     9826.966     3744.251        5.168        2.078      248.573       75.717        0.093      341.605       16.432      858.277
04/18/2014  21:46:00     -269.121      -81.890       13.695      199.075      156.874       75.277    39630.924    24609.328     5666.552        7.460        3.495      281.304       98.613        0.123      341.589       16.404      858.263
04/18/2014  21:47:00     -418.210     -116.072      -19.778      177.200      101.772       63.298    31399.753    10357.458     4006.603       11.725        2.288      434.019       59.969        0.019      341.568       16.366      858.262
04/18/2014  21:48:00     -401.478      -55.412      -39.925      187.310      106.567       82.791    35084.879    11356.585     6854.334       10.956        2.665      405.284       85.411        0.044      341.562       16.359      858.269
04/18/2014  21:49:00     -277.948       -9.318      -10.117      126.795      106.303       70.749    16076.995    11300.322     5005.469        5.491        1.619      278.104       70.213        0.064      341.578       16.386      858.290
04/18/2014  21:50:00     -357.456     -119.312       -8.792      214.443      131.475       89.157    45985.781    17285.710     7948.957       10.664        3.561      376.842      106.759        0.080      341.542       16.322      858.276
04/18/2014  21:51:00     -150.703        9.314        3.607       83.557      113.484       53.473     6981.716    12878.581     2859.408        2.276        1.136      150.991       54.560        0.131      341.608       16.436      858.275
04/18/2014  21:52:00     -184.188      -63.213       -3.156      120.183      114.917       48.887    14443.850    13205.845     2389.907        3.398        1.502      194.734       51.829        0.071      341.569       16.371      858.270
04/18/2014  21:53:00     -291.497       18.511      -20.522      145.116      101.851       63.328    21058.744    10373.610     4010.419        6.058        1.772      292.084       69.806        0.057      341.582       16.393      858.285
04/18/2014  21:54:00     -327.519      -41.221       -7.338      124.237      142.153       59.451    15434.881    20207.437     3534.462        7.409        1.959      330.102       55.696        0.028      341.550       16.338      858.304
04/18/2014  21:55:00     -417.932     -128.154      -13.307      131.529      151.458       73.057    17299.767    22939.636     5337.286       11.841        2.279      437.139       72.864        0.028      341.546       16.330      858.304
04/18/2014  21:56:00     -262.208     -117.847      -18.843       97.252       73.551       40.584     9457.932     5409.815     1647.022        4.975        0.826      287.473       23.039        0.006      341.561       16.356      858.307
04/18/2014  21:57:00     -422.515      -83.280      -25.560      158.099      104.552       63.056    24995.442    10931.159     3976.119       11.300        1.995      430.645       65.679        0.023      341.555       16.345      858.316
04/18/2014  21:58:00     -360.572      -97.448      -11.968      132.487      146.082       68.671    17552.703    21339.858     4715.639        9.162        2.180      373.508       56.938        0.023      341.543       16.327      858.307
04/18/2014  21:59:00     -394.994      -48.380      -31.861      153.117      108.548       76.785    23444.801    11782.603     5895.872       10.024        2.056      397.945       86.549        0.047      341.563       16.359      858.336
04/18/2014  22:00:00     -428.806      -33.242      -28.770      111.498      123.084       67.134    12431.835    15149.558     4506.915       10.894        1.604      430.093       63.308        0.022      341.595       16.413      858.340
04/18/2014  22:01:00     -239.545      -95.437       -1.197      158.068       89.152       66.281    24985.383     7947.999     4393.125        5.190        1.866      257.856       70.124        0.074      341.549       16.336      858.334
04/18/2014  22:02:00     -352.588     -135.078       -1.123      182.029      173.985       83.539    33134.578    30270.918     6978.719       10.646        3.519      377.577       98.922        0.069      341.580       16.387      858.347
04/18/2014  22:03:00     -380.868      -23.981       -9.364      173.226      148.418       78.536    30007.335    22027.883     6167.952       10.195        2.910      381.622       86.757        0.052      341.581       16.390      858.361
04/18/2014  22:04:00     -325.264      -79.875       -9.858      100.169      105.731       49.870    10033.901    11178.981     2486.971        6.798        1.185      334.928       45.524        0.018      341.555       16.346      858.369
04/18/2014  22:05:00     -229.451      -32.769       -6.577      161.439       91.655       66.876    26062.576     8400.688     4472.413        4.634        1.947      231.779       74.450        0.103      341.533       16.309      858.369
04/18/2014  22:06:00     -296.676        4.861      -10.324      125.300      104.226       60.012    15700.120    10863.154     3601.429        5.915        1.508      296.716       47.905        0.026      341.531       16.305      858.405
04/18/2014  22:07:00     -227.032      -46.722       -6.799      112.300      115.914       58.174    12611.276    13436.108     3384.195        4.160        1.472      231.790       62.621        0.073      341.500       16.252      858.408
04/18/2014  22:08:00     -155.214      -73.818        4.523      148.428      117.784       76.811    22030.969    13873.101     5899.921        3.567        2.090      171.873       80.957        0.222      341.522       16.290      858.404
04/18/2014  22:09:00     -377.501      -21.420      -15.977      156.781      102.519       79.250    24580.200    10510.116     6280.636        9.229        2.069      378.108       81.953        0.047      341.493       16.240      858.418
04/18/2014  22:10:00     -371.382      -35.952      -19.731      166.388      151.614       82.292    27685.130    22986.943     6771.990        9.851        2.872      373.118       81.096        0.047      341.469       16.201      858.427
04/18/2014  22:11:00     -258.887      -16.444      -14.512      118.361      111.375       59.239    14009.404    12404.299     3509.300        4.871        1.496      259.409       50.189        0.037      341.455       16.175      858.419
04/18/2014  22:12:00     -358.119       -8.098       -8.303      163.984      111.207       65.121    26890.867    12367.067     4240.711        8.593        2.175      358.210       77.595        0.047      341.464       16.191      858.443
04/18/2014  22:13:00     -294.858      -51.257       -0.576      171.016      117.068       56.063    29246.593    13705.005     3143.095        6.782        2.305      299.280       63.277        0.045      341.446       16.162      858.441
04/18/2014  22:14:00     -220.233       -1.239       -3.977      120.075      105.108       54.366    14417.959    11047.706     2955.672        3.847        1.421      220.237       53.455        0.059      341.470       16.202      858.439
04/18/2014  22:15:00     -196.401      -64.605       -4.531      153.629      105.834       65.056    23601.728    11200.808     4232.231        4.089        1.952      206.753       71.236        0.119      341.462       16.188      858.457
04/18/2014  22:16:00     -364.582      -13.990       -7.741      161.831      115.286       76.933    26189.125    13290.799     5918.717        8.928        2.270      364.850       79.461        0.047      341.449       16.165      858.452
04/18/2014  22:17:00     -278.096      -61.574      -11.624      148.135      146.022       69.348    21944.008    21322.499     4809.094        6.466        2.404      284.831       72.656        0.065      341.457       16.179      858.437
04/18/2014  22:18:00     -347.693      -62.170      -15.612      180.167      104.130       68.910    32460.208    10843.054     4748.644        8.652        2.403      353.207       67.083        0.036      341.437       16.145      858.442
04/18/2014  22:19:00     -489.429      -40.917      -39.715      112.007      121.383       71.167    12545.497    14733.852     5064.672       13.756        1.617      491.136       67.156        0.019      341.436       16.145      858.449
04/18/2014  22:20:00     -272.644      -19.357       -6.809      137.331      115.894       59.802    18859.795    13431.512     3576.298        5.530        1.793      273.330       64.767        0.056      341.459       16.181      858.441
04/18/2014  22:21:00     -393.213      -81.090      -21.540      148.380      131.241       68.533    22016.743    17224.208     4696.732       10.279        2.197      401.487       66.754        0.028      341.437       16.145      858.440
04/18/2014  22:22:00     -388.134      -25.600      -28.162      162.881       93.532       66.116    26530.068     8748.325     4371.373        9.587        1.982      388.978       86.111        0.049      341.447       16.162      858.440
04/18/2014  22:23:00     -237.561      -37.034       -3.941      151.734      124.711       56.588    23023.235    15552.777     3202.244        4.979        2.089      240.430       63.502        0.070      341.441       16.153      858.438
04/18/2014  22:24:00     -372.359      -16.512      -19.387      164.194      141.449       76.509    26959.691    20007.864     5853.551        9.605        2.641      372.725       84.971        0.052      341.456       16.178      858.443
04/18/2014  22:25:00     -382.914      -22.413      -25.926      115.054      105.700       58.648    13237.534    11172.519     3439.643        8.782        1.392      383.570       62.464        0.027      341.441       16.153      858.445
04/18/2014  22:26:00     -244.895       -5.426      -14.177      141.159      102.820       63.597    19925.853    10571.878     4044.598        4.737        1.727      244.955       51.181        0.044      341.453       16.172      858.453
04/18/2014  22:27:00     -327.129      -50.704      -10.837      140.254       89.216       65.809    19671.243     7959.539     4330.836        7.083        1.598      331.035       73.307        0.049      341.421       16.119      858.470
04/18/2014  22:28:00     -335.487     -128.772      -12.487      125.693      115.791       67.097    15798.801    13407.565     4501.952        8.149        1.685      359.352       62.265        0.030      341.429       16.131      858.479
04/18/2014  22:29:00     -246.694      -42.524       -0.761      127.264      115.096       65.540    16196.105    13247.056     4295.428        4.820        1.687      250.333       64.340        0.066      341.441       16.153      858.480
04/18/2014  22:30:00     -351.410      -56.635      -23.373      195.016      138.350       79.726    38031.365    19140.795     6356.166        9.537        3.176      355.944       98.384        0.076      341.437       16.148      858.498
04/18/2014  22:31:00     -193.850      -22.225       -4.536       79.246       98.801       43.620     6279.934     9761.657     1902.681        2.801        0.897      195.120       34.438        0.031      341.464       16.192      858.501
04/18/2014  22:32:00     -218.307      -67.130       -0.668      111.847       93.664       57.279    12509.773     8772.887     3280.916        3.836        1.228      228.395       38.788        0.029      341.433       16.139      858.495
04/18/2014  22:33:00     -271.909       15.941       -7.764      164.444       97.568       57.565    27041.906     9519.501     3313.687        5.705        1.994      272.376       60.678        0.050      341.443       16.156      858.498
04/18/2014  22:34:00     -178.585      -71.437       -2.926      165.187      118.089       63.987    27286.781    13944.927     4094.317        4.116        2.266      192.343       69.714        0.131      341.394       16.074      858.466
04/18/2014  22:35:00     -384.172      -58.952      -25.287      121.522       85.775       66.318    14767.629     7357.381     4398.027        8.911        1.326      388.668       67.896        0.031      341.370       16.031      858.474
04/18/2014  22:36:00     -201.329       21.680        4.175      111.997       79.323       52.253    12543.358     6292.062     2730.426        3.129        1.078      202.493       53.700        0.070      341.394       16.074      858.477
04/18/2014  22:37:00     -142.589      -38.059        4.462       81.363       78.345       47.176     6619.936     6137.927     2225.593        1.839        0.749      147.581       49.335        0.112      341.375       16.042      858.465
04/18/2014  22:38:00      -54.073      -13.895       36.071      105.031      112.409       73.994    11031.439    12635.795     5475.071        1.677        1.457       55.830       77.125        1.908      341.358       16.013      858.461
04/18/2014  22:39:00     -169.632      -80.141       -9.400      140.507       74.881       49.770    19742.262     5607.217     2477.010        3.155        1.391      187.610       63.187        0.113      341.385       16.059      858.468
04/18/2014  22:40:00     -161.002      -74.265       12.374      149.515       82.652       52.639    22354.640     6831.399     2770.842        3.177        1.598      177.305       65.695        0.137      341.374       16.041      858.451
04/18/2014  22:41:00     -119.975     -102.304        4.098      103.079      105.794       52.105    10625.317    11192.351     2714.954        2.470        1.227      157.670       51.439        0.106      341.355       16.008      858.437
04/18/2014  22:42:00     -215.031      -95.621       -7.117       86.271       87.732       47.927     7442.728     7696.832     2296.953        3.643        0.872      235.333       45.806        0.038      341.354       16.004      858.456
04/18/2014  22:43:00     -256.342      -49.946      -11.220       91.197       67.205       48.314     8316.910     4516.467     2334.272        4.175        0.758      261.163       44.803        0.029      341.326       15.957      858.455
04/18/2014  22:44:00     -254.144      -94.854       -2.686      103.181       91.586       53.151    10646.237     8388.062     2825.001        4.772        1.093      271.268       53.512        0.039      341.321       15.950      858.442
04/18/2014  22:45:00     -126.226      -55.486        0.930       87.268       87.016       52.122     7615.624     7571.871     2716.683        1.845        0.895      137.883       54.396        0.156      341.375       16.042      858.436
04/18/2014  22:46:00     -212.424     -111.156       -5.741      160.243       88.482       57.244    25677.848     7829.115     3276.875        4.714        1.839      239.749       69.459        0.084      341.314       15.938      858.432
04/18/2014  22:47:00     -147.412      -88.211        5.612      134.146      100.945       60.586    17995.255    10189.947     3670.647        3.069        1.593      171.789       68.938        0.161      341.303       15.920      858.441
04/18/2014  22:48:00     -281.033      -83.769       -9.172      139.382      105.924       58.620    19427.320    11219.988     3436.255        6.008        1.704      293.252       54.038        0.034      341.312       15.935      858.441
04/18/2014  22:49:00     -213.827     -109.179        1.893       96.242       94.087       49.747     9262.481     8852.278     2474.749        3.911        1.029      240.088       50.023        0.043      341.329       15.962      858.463
04/18/2014  22:50:00     -184.011      -83.351       -3.981      120.445      107.078       51.877    14507.032    11465.666     2691.233        3.474        1.433      202.008       55.603        0.076      341.316       15.941      858.473
04/18/2014  22:51:00     -192.501      -35.287       11.181      135.862       99.015       61.465    18458.505     9803.919     3777.928        3.523        1.602      195.708       69.213        0.125      341.333       15.970      858.483
04/18/2014  22:52:00     -188.235      -92.380        1.483      122.854      125.020       70.821    15093.129    15629.989     5015.547        3.985        1.787      209.682       72.914        0.121      341.329       15.964      858.489
04/18/2014  22:53:00     -214.865     -106.811       12.076      139.405       99.345       61.178    19433.842     9869.395     3742.724        4.538        1.652      239.949       64.916        0.073      341.311       15.934      858.484
04/18/2014  22:54:00     -210.030     -182.748       -3.959      134.048      102.000       77.429    17969.000    10404.096     5995.215        5.594        1.718      278.404       80.483        0.084      341.318       15.945      858.489
04/18/2014  22:55:00     -155.134      -73.652       14.442      122.655       87.819       55.631    15044.182     7712.196     3094.778        2.777        1.293      171.730       64.751        0.142      341.324       15.956      858.491
04/18/2014  22:56:00     -214.703     -170.361       -5.006      127.179      121.044       65.847    16174.425    14651.633     4335.875        5.515        1.758      274.081       69.010        0.063      341.319       15.946      858.508
04/18/2014  22:57:00     -253.966     -161.362      -12.674      177.483      137.107       67.847    31500.160    18798.318     4603.199        7.279        2.745      300.893       78.842        0.069      341.319       15.948      858.523
04/18/2014  22:58:00     -193.879     -118.907       12.619      131.010      127.582       76.317    17163.745    16277.177     5824.262        4.557        1.963      227.438       72.443        0.101      341.323       15.954      858.541
04/18/2014  22:59:00     -306.561     -198.376       -6.700      160.236      144.631       75.025    25675.651    20918.144     5628.754        9.279        2.611      365.147       83.391        0.052      341.313       15.936      858.546
04/18/2014  23:00:00     -311.795     -140.916       -5.518      180.562      111.884       72.303    32602.761    12517.981     5227.719        8.372        2.517      342.160       84.673        0.061      341.320       15.949      858.566
04/18/2014  23:01:00     -394.199     -238.695      -21.762      145.742      133.257       70.941    21240.773    17757.374     5032.675       12.843        2.202      460.835       75.318        0.027      341.302       15.915      858.571
04/18/2014  23:02:00     -242.437     -160.253       -9.260      129.987      125.313       58.031    16896.564    15703.381     3367.620        6.025        1.798      290.615       55.601        0.037      341.307       15.928      858.580
04/18/2014  23:03:00     -252.877     -139.847        0.579      134.245       92.224       58.232    18021.725     8505.183     3391.010        5.670        1.496      288.970       62.240        0.046      341.290       15.896      858.589
04/18/2014  23:04:00     -302.341     -168.748       -6.400      157.559      111.996       73.270    24824.764    12543.178     5368.507        8.132        2.137      346.246       73.674        0.045      341.290       15.898      858.592
04/18/2014  23:05:00     -237.301     -165.866       -2.173      125.312       95.529       63.213    15703.105     9125.850     3995.923        5.632        1.441      289.523       61.619        0.045      341.283       15.884      858.590
04/18/2014  23:06:00     -185.039     -110.114       -4.018      145.791       90.701       60.218    21254.882     8226.671     3626.263        3.974        1.655      215.324       72.123        0.112      341.295       15.906      858.598
04/18/2014  23:07:00     -112.950      -38.557        8.248      108.069       66.131       48.272    11678.967     4373.317     2330.185        1.634        0.919      119.350       54.569        0.209      341.338       15.980      858.598
04/18/2014  23:08:00     -254.700      -70.147        1.562      165.304      115.395       62.322    27325.364    13316.002     3884.067        5.715        2.226      264.183       61.211        0.054      341.314       15.938      858.603
04/18/2014  23:09:00     -174.458      -56.690        1.264       78.616       92.183       45.816     6180.410     8497.725     2099.118        2.521        0.839      183.437       37.100        0.041      341.351       16.001      858.602
04/18/2014  23:10:00     -290.260     -205.458      -17.876       99.707       97.939       57.525     9941.418     9592.004     3309.068        7.481        1.142      355.618       52.929        0.022      341.320       15.947      858.597
04/18/2014  23:11:00     -291.717      -83.071      -11.536      148.798      117.565       61.436    22140.833    13821.456     3774.332        6.593        1.987      303.315       62.559        0.043      341.312       15.934      858.622
04/18/2014  23:12:00     -193.261      -35.154       -4.399      118.286       92.946       52.908    13991.656     8638.907     2799.272        3.201        1.271      196.432       57.562        0.086      341.354       16.007      858.616
04/18/2014  23:13:00     -249.434      -85.736      -13.381      121.282       85.625       57.407    14709.414     7331.609     3295.539        4.754        1.267      263.758       53.124        0.041      341.332       15.969      858.618
04/18/2014  23:14:00     -221.288      -38.143       -0.321      114.601       89.865       54.918    13133.456     8075.799     3016.020        3.732        1.211      224.552       51.037        0.052      341.315       15.939      858.613
04/18/2014  23:15:00     -125.614      -75.192        7.838      116.257       65.936       52.067    13515.616     4347.620     2710.953        2.103        1.029      146.399       56.178        0.147      341.330       15.967      858.606
04/18/2014  23:16:00     -263.890      -93.375       -8.688      126.897       88.182       57.262    16102.910     7775.992     3278.980        5.279        1.358      279.923       61.096        0.048      341.312       15.935      858.603
04/18/2014  23:17:00     -124.561      -17.735       12.629       96.414       97.259       55.087     9295.632     9459.320     3034.610        1.889        1.089      125.818       55.593        0.195      341.341       15.984      858.601
04/18/2014  23:18:00     -179.578     -111.342       -2.814      100.715       93.631       55.974    10143.504     8766.751     3133.139        3.334        1.102      211.294       50.367        0.057      341.337       15.976      858.622
04/18/2014  23:19:00     -164.969      -83.160       10.460      151.097      126.849       79.971    22830.191    16090.684     6395.296        3.977        2.266      184.744       89.449        0.234      341.308       15.928      858.605
04/18/2014  23:20:00     -316.394       -6.670      -14.033      140.662       99.261       63.455    19785.751     9852.782     4026.486        6.700        1.683      316.465       53.203        0.028      341.309       15.930      858.614
04/18/2014  23:21:00     -105.938      -15.119        9.221      149.896       90.170       63.106    22468.859     8130.627     3982.377        2.305        1.729      107.012       61.849        0.334      341.297       15.910      858.591
04/18/2014  23:22:00     -359.758      -63.640       -4.883      144.362      138.277       64.739    20840.377    19120.533     4191.166        8.882        2.208      365.344       61.209        0.028      341.295       15.906      858.604
04/18/2014  23:23:00     -303.911      -29.827       -7.259      138.476      109.740       65.421    19175.637    12042.845     4279.965        6.439        1.775      305.371       70.232        0.053      341.308       15.928      858.600
04/18/2014  23:24:00     -209.724      -17.091        2.957      127.812       89.282       54.332    16335.980     7971.271     2951.989        3.577        1.363      210.419       64.519        0.094      341.279       15.880      858.590
04/18/2014  23:25:00     -298.512      -71.681       -3.530      172.547      104.322       75.993    29772.620    10883.119     5775.007        7.034        2.322      306.997       78.565        0.065      341.277       15.876      858.589
04/18/2014  23:26:00     -226.609     -128.531        3.491      150.036       98.252       62.874    22510.852     9653.484     3953.119        5.199        1.806      260.522       50.916        0.038      341.262       15.850      858.601
04/18/2014  23:27:00     -231.686      -42.353       -3.953      124.010       86.804       60.616    15378.526     7534.998     3674.268        4.103        1.329      235.526       69.596        0.087      341.268       15.859      858.616
04/18/2014  23:28:00     -214.830      -90.297       -1.061      109.316      108.896       57.494    11949.902    11858.359     3305.571        4.070        1.356      233.035       49.818        0.046      341.277       15.877      858.615
04/18/2014  23:29:00     -365.394     -142.930       -4.330      209.858      133.361       82.701    44040.587    17785.183     6839.419       11.130        3.433      392.354       83.801        0.046      341.273       15.868      858.627
04/18/2014  23:30:00     -282.055      -53.273       -4.036      155.964      130.407       73.647    24324.738    17005.909     5423.838        6.457        2.338      287.042       77.313        0.073      341.285       15.888      858.627
04/18/2014  23:31:00     -240.401     -156.010       18.036      208.820      146.863       82.426    43605.827    21568.859     6794.022        7.720        3.598      286.586      105.257        0.135      341.273       15.869      858.629
04/18/2014  23:32:00     -312.433     -130.072      -10.598      139.343      159.610       67.569    19416.495    25475.196     4565.610        8.204        2.473      338.427       71.931        0.045      341.250       15.829      858.626
04/18/2014  23:33:00     -278.505     -146.687       -4.713      158.221      199.226       85.504    25033.986    39690.893     7310.897        8.556        3.602      314.773       75.190        0.057      341.279       15.879      858.629
04/18/2014  23:34:00     -271.054      -88.474        3.119      206.814      113.692       86.843    42771.843    12925.843     7541.653        7.226        3.162      285.128      107.719        0.143      341.259       15.845      858.615
04/18/2014  23:35:00     -395.436      -45.448      -17.484      190.082      121.170       83.875    36131.084    14682.268     7035.002       10.828        2.892      398.039       96.071        0.058      341.256       15.840      858.640
04/18/2014  23:36:00     -362.878     -150.012      -14.393      169.041      127.071       66.544    28574.885    16147.140     4428.097       10.176        2.458      392.663       64.705        0.027      341.246       15.823      858.640
04/18/2014  23:37:00     -240.440      -65.475      -10.637      158.318      139.422       59.808    25064.701    19438.597     3577.018        5.514        2.404      249.195       71.546        0.082      341.227       15.789      858.640
04/18/2014  23:38:00     -239.928     -132.073       -6.990      135.996      110.527       73.000    18494.887    12216.163     5329.052        5.554        1.802      273.877       63.715        0.054      341.221       15.780      858.648
04/18/2014  23:39:00     -133.015      -93.477      -11.505      118.821      106.995       72.363    14118.540    11447.998     5236.411        2.868        1.540      162.576       58.313        0.129      341.231       15.798      858.671
04/18/2014  23:40:00     -256.736     -128.253       -0.745      153.799      114.865       65.877    23654.159    13193.998     4339.766        6.177        2.059      286.988       67.669        0.056      341.206       15.754      858.696
04/18/2014  23:41:00     -297.373      -70.788      -14.759      143.931       96.990       57.253    20716.133     9407.123     3277.878        6.352        1.670      305.682       59.923        0.038      341.204       15.751      858.701
04/18/2014  23:42:00     -238.230      -74.526       -1.697      124.097       80.833       52.112    15400.130     6533.911     2715.693        4.348        1.232      249.615       43.415        0.030      341.210       15.764      858.714
04/18/2014  23:43:00     -257.287     -126.471        6.678      163.028      131.129       61.539    26578.150    17194.850     3787.027        6.489        2.378      286.690       62.527        0.048      341.198       15.742      858.709
04/18/2014  23:44:00     -285.448      -84.904      -18.929      136.671      128.457       66.003    18678.983    16501.275     4356.413        6.428        1.977      297.807       57.570        0.037      341.184       15.717      858.729
04/18/2014  23:45:00     -135.963      -52.142        5.162      100.109       82.459       51.580    10021.815     6799.507     2660.546        2.035        0.974      145.618       54.775        0.141      341.206       15.756      858.738
04/18/2014  23:46:00     -328.689      -40.044       -4.615      132.308      142.144       65.368    17505.452    20204.907     4273.036        7.581        2.099      331.119       39.959        0.015      341.183       15.714      858.730
04/18/2014  23:47:00     -282.661     -224.859       -2.081      147.124      138.255       79.514    21645.595    19114.451     6322.457        8.876        2.354      361.191       79.518        0.048      341.175       15.702      858.729
04/18/2014  23:48:00     -229.399     -178.517      -10.590      137.958      130.602       75.533    19032.530    17056.830     5705.256        6.319        2.090      290.675       82.107        0.080      341.173       15.698      858.712
04/18/2014  23:49:00     -247.831      -80.205      -12.017      129.024      108.981       58.116    16647.244    11876.847     3377.462        4.994        1.595      260.486       54.894        0.044      341.186       15.720      858.700
04/18/2014  23:50:00     -215.692      -93.295       -8.934      151.076       79.051       56.535    22824.062     6249.103     3196.199        4.378        1.613      235.004       68.266        0.084      341.149       15.660      858.686
04/18/2014  23:51:00     -146.873      -84.878      -12.900      105.407       79.216       48.037    11110.676     6275.237     2307.592        2.431        0.985      169.635       33.870        0.040      341.120       15.610      858.686
04/18/2014  23:52:00     -142.608      -58.375        7.173      100.916       87.849       54.757    10184.012     7717.465     2998.371        2.234        1.045      154.093       46.723        0.092      341.111       15.596      858.707
04/18/2014  23:53:00     -214.968      -93.047       18.098      136.305       74.080       60.232    18579.110     5487.788     3627.837        4.144        1.385      234.241       67.496        0.083      341.089       15.558      858.719
04/18/2014  23:54:00     -254.021     -208.531       -1.539      118.771       94.476       65.938    14106.618     8925.732     4347.868        6.769        1.369      328.651       66.850        0.041      341.083       15.545      858.712
04/18/2014  23:55:00     -272.424      -88.350       -6.477      139.721      101.545       72.077    19521.864    10311.407     5195.139        5.854        1.751      286.393       59.012        0.042      341.088       15.554      858.712
04/18/2014  23:56:00     -258.253     -120.580       -1.367      137.359      126.476       63.786    18867.371    15996.199     4068.646        6.008        1.947      285.016       67.718        0.056      341.093       15.565      858.718
04/18/2014  23:57:00     -308.016     -160.197      -19.293      134.724      101.341       60.391    18150.546    10270.060     3647.062        7.648        1.603      347.184       63.630        0.034      341.069       15.523      858.703
04/18/2014  23:58:00     -327.542     -119.548        2.119      106.835      112.447       60.390    11413.683    12644.281     3646.972        7.464        1.385      348.676       57.082        0.027      341.054       15.498      858.694
04/18/2014  23:59:00     -169.162     -103.352       12.396      125.596       98.455       64.694    15774.377     9693.459     4185.263        3.455        1.483      198.235       66.932        0.114      341.033       15.464      858.685
